<?xml version="1.0" encoding="UTF-8" standalone="no" ?>
<gpx xmlns="http://www.topografix.com/GPX/1/1" xmlns:xsi="http://www.w3.org/2001/XMLSchema-instance" xsi:schemaLocation="http://www.topografix.com/GPX/1/1 http://www.topografix.com/GPX/1/1/gpx.xsd" version="1.1" creator="VisuGPX - https://www.visugpx.com">
  <metadata>
    <name>Vertou_ChateauThebaudClisson_20-30km</name>
    <desc><![CDATA[gnerando idor:7030879_8004523_15824577]]></desc>
  </metadata>
  <wpt lat="47.16584" lon="-1.47958">
    <ele>4</ele>
    <name><![CDATA[0001156]]></name>
  </wpt>
  <wpt lat="47.12025" lon="-1.4203">
    <ele>48</ele>
    <name><![CDATA[chauviniere Cave]]></name>
  </wpt>
  <wpt lat="47.12582" lon="-1.41639">
    <ele>23.7</ele>
    <name><![CDATA[0001158]]></name>
  </wpt>
  <wpt lat="47.12602" lon="-1.41622">
    <ele>21.7</ele>
    <name><![CDATA[0001159]]></name>
  </wpt>
  <wpt lat="47.16576" lon="-1.47955">
    <ele>4</ele>
    <name><![CDATA[0001160]]></name>
  </wpt>
  <trk>
    <name><![CDATA[Vertou_ boucleChateauThebaud_20.3km-7030879]]></name>
    <extensions>
      <line xmlns="http://www.topografix.com/GPX/gpx_style/0/2">
        <color>0000FF</color>
        <width>4</width>
      </line>
    </extensions>
    <trkseg>
      <trkpt lat="47.14995" lon="-1.46769">
        <ele>9</ele>
        <time>2023-11-14T06:30:52Z</time>
      </trkpt>
      <trkpt lat="47.14972" lon="-1.46636">
        <ele>14</ele>
        <time>2023-11-14T06:32:57Z</time>
      </trkpt>
      <trkpt lat="47.14957" lon="-1.46525">
        <ele>15</ele>
        <time>2023-11-14T06:34:39Z</time>
      </trkpt>
      <trkpt lat="47.14975" lon="-1.46422">
        <ele>14</ele>
        <time>2023-11-14T06:36:16Z</time>
      </trkpt>
      <trkpt lat="47.14969" lon="-1.46289">
        <ele>17</ele>
        <time>2023-11-14T06:38:17Z</time>
      </trkpt>
      <trkpt lat="47.15001" lon="-1.4616">
        <ele>13</ele>
        <time>2023-11-14T06:40:21Z</time>
      </trkpt>
      <trkpt lat="47.15018" lon="-1.46083">
        <ele>10</ele>
        <time>2023-11-14T06:41:35Z</time>
      </trkpt>
      <trkpt lat="47.14995" lon="-1.4601">
        <ele>11</ele>
        <time>2023-11-14T06:42:48Z</time>
      </trkpt>
      <trkpt lat="47.15018" lon="-1.45945">
        <ele>9</ele>
        <time>2023-11-14T06:43:54Z</time>
      </trkpt>
      <trkpt lat="47.15013" lon="-1.45864">
        <ele>9</ele>
        <time>2023-11-14T06:45:08Z</time>
      </trkpt>
      <trkpt lat="47.15033" lon="-1.45782">
        <ele>8</ele>
        <time>2023-11-14T06:46:27Z</time>
      </trkpt>
      <trkpt lat="47.1503" lon="-1.45688">
        <ele>8</ele>
        <time>2023-11-14T06:47:53Z</time>
      </trkpt>
      <trkpt lat="47.15042" lon="-1.45568">
        <ele>9</ele>
        <time>2023-11-14T06:49:43Z</time>
      </trkpt>
      <trkpt lat="47.15068" lon="-1.45387">
        <ele>11</ele>
        <time>2023-11-14T06:52:31Z</time>
      </trkpt>
      <trkpt lat="47.15103" lon="-1.45229">
        <ele>11</ele>
        <time>2023-11-14T06:55:01Z</time>
      </trkpt>
      <trkpt lat="47.15129" lon="-1.451">
        <ele>9</ele>
        <time>2023-11-14T06:57:03Z</time>
      </trkpt>
      <trkpt lat="47.15094" lon="-1.44984">
        <ele>11</ele>
        <time>2023-11-14T06:58:59Z</time>
      </trkpt>
      <trkpt lat="47.15051" lon="-1.44928">
        <ele>13</ele>
        <time>2023-11-14T07:00:15Z</time>
      </trkpt>
      <trkpt lat="47.14954" lon="-1.4495">
        <ele>18</ele>
        <time>2023-11-14T07:02:26Z</time>
      </trkpt>
      <trkpt lat="47.14858" lon="-1.44988">
        <ele>23</ele>
        <time>2023-11-14T07:04:39Z</time>
      </trkpt>
      <trkpt lat="47.14808" lon="-1.45001">
        <ele>24</ele>
        <time>2023-11-14T07:05:47Z</time>
      </trkpt>
      <trkpt lat="47.14747" lon="-1.45005">
        <ele>24</ele>
        <time>2023-11-14T07:07:08Z</time>
      </trkpt>
      <trkpt lat="47.14706" lon="-1.44993">
        <ele>24</ele>
        <time>2023-11-14T07:08:04Z</time>
      </trkpt>
      <trkpt lat="47.14639" lon="-1.44937">
        <ele>24</ele>
        <time>2023-11-14T07:09:47Z</time>
      </trkpt>
      <trkpt lat="47.14572" lon="-1.44872">
        <ele>26</ele>
        <time>2023-11-14T07:11:34Z</time>
      </trkpt>
      <trkpt lat="47.14519" lon="-1.44774">
        <ele>28</ele>
        <time>2023-11-14T07:13:28Z</time>
      </trkpt>
      <trkpt lat="47.1449" lon="-1.44727">
        <ele>29</ele>
        <time>2023-11-14T07:14:25Z</time>
      </trkpt>
      <trkpt lat="47.14417" lon="-1.44739">
        <ele>29</ele>
        <time>2023-11-14T07:16:03Z</time>
      </trkpt>
      <trkpt lat="47.14324" lon="-1.44765">
        <ele>29</ele>
        <time>2023-11-14T07:18:10Z</time>
      </trkpt>
      <trkpt lat="47.14262" lon="-1.44799">
        <ele>30</ele>
        <time>2023-11-14T07:19:38Z</time>
      </trkpt>
      <trkpt lat="47.14213" lon="-1.44666">
        <ele>32</ele>
        <time>2023-11-14T07:21:55Z</time>
      </trkpt>
      <trkpt lat="47.14175" lon="-1.44589">
        <ele>35</ele>
        <time>2023-11-14T07:23:21Z</time>
      </trkpt>
      <trkpt lat="47.13889" lon="-1.44658">
        <ele>50</ele>
        <time>2023-11-14T07:29:48Z</time>
      </trkpt>
      <trkpt lat="47.13816" lon="-1.44697">
        <ele>47</ele>
        <time>2023-11-14T07:31:32Z</time>
      </trkpt>
      <trkpt lat="47.13784" lon="-1.44542">
        <ele>46</ele>
        <time>2023-11-14T07:33:59Z</time>
      </trkpt>
      <trkpt lat="47.13936" lon="-1.44435">
        <ele>47</ele>
        <time>2023-11-14T07:37:44Z</time>
      </trkpt>
      <trkpt lat="47.1393" lon="-1.44336">
        <ele>37</ele>
        <time>2023-11-14T07:39:14Z</time>
      </trkpt>
      <trkpt lat="47.14008" lon="-1.44285">
        <ele>32</ele>
        <time>2023-11-14T07:41:08Z</time>
      </trkpt>
      <trkpt lat="47.14038" lon="-1.44224">
        <ele>28</ele>
        <time>2023-11-14T07:42:16Z</time>
      </trkpt>
      <trkpt lat="47.14073" lon="-1.44066">
        <ele>19</ele>
        <time>2023-11-14T07:44:47Z</time>
      </trkpt>
      <trkpt lat="47.14035" lon="-1.4407">
        <ele>20</ele>
        <time>2023-11-14T07:45:38Z</time>
      </trkpt>
      <trkpt lat="47.13982" lon="-1.44057">
        <ele>23</ele>
        <time>2023-11-14T07:46:50Z</time>
      </trkpt>
      <trkpt lat="47.139" lon="-1.44014">
        <ele>28</ele>
        <time>2023-11-14T07:48:46Z</time>
      </trkpt>
      <trkpt lat="47.13816" lon="-1.44036">
        <ele>32</ele>
        <time>2023-11-14T07:50:40Z</time>
      </trkpt>
      <trkpt lat="47.13752" lon="-1.44121">
        <ele>36</ele>
        <time>2023-11-14T07:52:35Z</time>
      </trkpt>
      <trkpt lat="47.13693" lon="-1.44203">
        <ele>37</ele>
        <time>2023-11-14T07:54:23Z</time>
      </trkpt>
      <trkpt lat="47.13644" lon="-1.44267">
        <ele>37</ele>
        <time>2023-11-14T07:55:51Z</time>
      </trkpt>
      <trkpt lat="47.13544" lon="-1.44194">
        <ele>39</ele>
        <time>2023-11-14T07:58:20Z</time>
      </trkpt>
      <trkpt lat="47.1348" lon="-1.44087">
        <ele>43</ele>
        <time>2023-11-14T08:00:29Z</time>
      </trkpt>
      <trkpt lat="47.13512" lon="-1.43945">
        <ele>45</ele>
        <time>2023-11-14T08:02:45Z</time>
      </trkpt>
      <trkpt lat="47.13509" lon="-1.43825">
        <ele>47</ele>
        <time>2023-11-14T08:04:34Z</time>
      </trkpt>
      <trkpt lat="47.13474" lon="-1.43722">
        <ele>49</ele>
        <time>2023-11-14T08:06:18Z</time>
      </trkpt>
      <trkpt lat="47.13524" lon="-1.43624">
        <ele>49</ele>
        <time>2023-11-14T08:08:09Z</time>
      </trkpt>
      <trkpt lat="47.13568" lon="-1.43632">
        <ele>48</ele>
        <time>2023-11-14T08:09:09Z</time>
      </trkpt>
      <trkpt lat="47.13629" lon="-1.43589">
        <ele>45</ele>
        <time>2023-11-14T08:10:39Z</time>
      </trkpt>
      <trkpt lat="47.13591" lon="-1.43525">
        <ele>45</ele>
        <time>2023-11-14T08:11:56Z</time>
      </trkpt>
      <trkpt lat="47.13541" lon="-1.43448">
        <ele>46</ele>
        <time>2023-11-14T08:13:33Z</time>
      </trkpt>
      <trkpt lat="47.13512" lon="-1.43345">
        <ele>44</ele>
        <time>2023-11-14T08:15:14Z</time>
      </trkpt>
      <trkpt lat="47.13489" lon="-1.43276">
        <ele>44</ele>
        <time>2023-11-14T08:16:24Z</time>
      </trkpt>
      <trkpt lat="47.13267" lon="-1.43503">
        <ele>47</ele>
        <time>2023-11-14T08:22:25Z</time>
      </trkpt>
      <trkpt lat="47.13226" lon="-1.43508">
        <ele>46</ele>
        <time>2023-11-14T08:23:19Z</time>
      </trkpt>
      <trkpt lat="47.13159" lon="-1.43585">
        <ele>49</ele>
        <time>2023-11-14T08:25:13Z</time>
      </trkpt>
      <trkpt lat="47.13068" lon="-1.43658">
        <ele>51</ele>
        <time>2023-11-14T08:27:31Z</time>
      </trkpt>
      <trkpt lat="47.12984" lon="-1.43679">
        <ele>54</ele>
        <time>2023-11-14T08:29:25Z</time>
      </trkpt>
      <trkpt lat="47.12887" lon="-1.43709">
        <ele>55</ele>
        <time>2023-11-14T08:31:37Z</time>
      </trkpt>
      <trkpt lat="47.12847" lon="-1.43748">
        <ele>54</ele>
        <time>2023-11-14T08:32:41Z</time>
      </trkpt>
      <trkpt lat="47.12782" lon="-1.4377">
        <ele>53</ele>
        <time>2023-11-14T08:34:10Z</time>
      </trkpt>
      <trkpt lat="47.12739" lon="-1.43808">
        <ele>54</ele>
        <time>2023-11-14T08:35:17Z</time>
      </trkpt>
      <trkpt lat="47.1263" lon="-1.43847">
        <ele>54</ele>
        <time>2023-11-14T08:37:47Z</time>
      </trkpt>
      <trkpt lat="47.12578" lon="-1.43851">
        <ele>54</ele>
        <time>2023-11-14T08:38:56Z</time>
      </trkpt>
      <trkpt lat="47.12517" lon="-1.43791">
        <ele>54</ele>
        <time>2023-11-14T08:40:34Z</time>
      </trkpt>
      <trkpt lat="47.12458" lon="-1.43731">
        <ele>53</ele>
        <time>2023-11-14T08:42:10Z</time>
      </trkpt>
      <trkpt lat="47.12429" lon="-1.43701">
        <ele>52</ele>
        <time>2023-11-14T08:42:57Z</time>
      </trkpt>
      <trkpt lat="47.12376" lon="-1.43602">
        <ele>51</ele>
        <time>2023-11-14T08:44:52Z</time>
      </trkpt>
      <trkpt lat="47.12286" lon="-1.43478">
        <ele>51</ele>
        <time>2023-11-14T08:47:36Z</time>
      </trkpt>
      <trkpt lat="47.12257" lon="-1.43443">
        <ele>51</ele>
        <time>2023-11-14T08:48:27Z</time>
      </trkpt>
      <trkpt lat="47.12216" lon="-1.43349">
        <ele>52</ele>
        <time>2023-11-14T08:50:08Z</time>
      </trkpt>
      <trkpt lat="47.12172" lon="-1.43255">
        <ele>51</ele>
        <time>2023-11-14T08:51:52Z</time>
      </trkpt>
      <trkpt lat="47.12143" lon="-1.43173">
        <ele>51</ele>
        <time>2023-11-14T08:53:15Z</time>
      </trkpt>
      <trkpt lat="47.12105" lon="-1.43122">
        <ele>52</ele>
        <time>2023-11-14T08:54:24Z</time>
      </trkpt>
      <trkpt lat="47.12049" lon="-1.43027">
        <ele>51</ele>
        <time>2023-11-14T08:56:18Z</time>
      </trkpt>
      <trkpt lat="47.11994" lon="-1.4298">
        <ele>51</ele>
        <time>2023-11-14T08:57:43Z</time>
      </trkpt>
      <trkpt lat="47.11953" lon="-1.42916">
        <ele>49</ele>
        <time>2023-11-14T08:59:03Z</time>
      </trkpt>
      <trkpt lat="47.11909" lon="-1.42851">
        <ele>50</ele>
        <time>2023-11-14T09:00:26Z</time>
      </trkpt>
      <trkpt lat="47.11874" lon="-1.4277">
        <ele>48</ele>
        <time>2023-11-14T09:01:53Z</time>
      </trkpt>
      <trkpt lat="47.11839" lon="-1.42671">
        <ele>46</ele>
        <time>2023-11-14T09:03:35Z</time>
      </trkpt>
      <trkpt lat="47.11816" lon="-1.42632">
        <ele>45</ele>
        <time>2023-11-14T09:04:22Z</time>
      </trkpt>
      <trkpt lat="47.11792" lon="-1.42555">
        <ele>45</ele>
        <time>2023-11-14T09:05:38Z</time>
      </trkpt>
      <trkpt lat="47.11769" lon="-1.42461">
        <ele>45</ele>
        <time>2023-11-14T09:07:09Z</time>
      </trkpt>
      <trkpt lat="47.11757" lon="-1.42396">
        <ele>45</ele>
        <time>2023-11-14T09:08:10Z</time>
      </trkpt>
      <trkpt lat="47.11754" lon="-1.42336">
        <ele>43</ele>
        <time>2023-11-14T09:09:05Z</time>
      </trkpt>
      <trkpt lat="47.1174" lon="-1.42272">
        <ele>43</ele>
        <time>2023-11-14T09:10:06Z</time>
      </trkpt>
      <trkpt lat="47.11769" lon="-1.42177">
        <ele>44</ele>
        <time>2023-11-14T09:11:41Z</time>
      </trkpt>
      <trkpt lat="47.11871" lon="-1.42109">
        <ele>46</ele>
        <time>2023-11-14T09:14:10Z</time>
      </trkpt>
      <trkpt lat="47.12023" lon="-1.42027">
        <ele>47</ele>
        <time>2023-11-14T09:17:46Z</time>
      </trkpt>
      <trkpt lat="47.12117" lon="-1.42019">
        <ele>47</ele>
        <time>2023-11-14T09:19:52Z</time>
      </trkpt>
      <trkpt lat="47.12163" lon="-1.42031">
        <ele>47</ele>
        <time>2023-11-14T09:20:54Z</time>
      </trkpt>
      <trkpt lat="47.12239" lon="-1.42023">
        <ele>49</ele>
        <time>2023-11-14T09:22:36Z</time>
      </trkpt>
      <trkpt lat="47.12312" lon="-1.42027">
        <ele>51</ele>
        <time>2023-11-14T09:24:13Z</time>
      </trkpt>
      <trkpt lat="47.12344" lon="-1.41976">
        <ele>46</ele>
        <time>2023-11-14T09:25:16Z</time>
      </trkpt>
      <trkpt lat="47.12394" lon="-1.41924">
        <ele>45</ele>
        <time>2023-11-14T09:26:38Z</time>
      </trkpt>
      <trkpt lat="47.12449" lon="-1.41924">
        <ele>49</ele>
        <time>2023-11-14T09:27:51Z</time>
      </trkpt>
      <trkpt lat="47.12464" lon="-1.41903">
        <ele>48</ele>
        <time>2023-11-14T09:28:19Z</time>
      </trkpt>
      <trkpt lat="47.12499" lon="-1.41877">
        <ele>48</ele>
        <time>2023-11-14T09:29:11Z</time>
      </trkpt>
      <trkpt lat="47.12537" lon="-1.41856">
        <ele>47</ele>
        <time>2023-11-14T09:30:06Z</time>
      </trkpt>
      <trkpt lat="47.12543" lon="-1.41808">
        <ele>43</ele>
        <time>2023-11-14T09:30:50Z</time>
      </trkpt>
      <trkpt lat="47.1254" lon="-1.41753">
        <ele>36</ele>
        <time>2023-11-14T09:31:40Z</time>
      </trkpt>
      <trkpt lat="47.12534" lon="-1.41675">
        <ele>23</ele>
        <time>2023-11-14T09:32:51Z</time>
      </trkpt>
      <trkpt lat="47.12572" lon="-1.41632">
        <ele>21</ele>
        <time>2023-11-14T09:33:55Z</time>
      </trkpt>
      <trkpt lat="47.12604" lon="-1.41598">
        <ele>18</ele>
        <time>2023-11-14T09:34:48Z</time>
      </trkpt>
      <trkpt lat="47.12581" lon="-1.41551">
        <ele>12</ele>
        <time>2023-11-14T09:35:40Z</time>
      </trkpt>
      <trkpt lat="47.12537" lon="-1.41486">
        <ele>9</ele>
        <time>2023-11-14T09:37:04Z</time>
      </trkpt>
      <trkpt lat="47.12517" lon="-1.41439">
        <ele>14</ele>
        <time>2023-11-14T09:37:54Z</time>
      </trkpt>
      <trkpt lat="47.12484" lon="-1.41448">
        <ele>18</ele>
        <time>2023-11-14T09:38:39Z</time>
      </trkpt>
      <trkpt lat="47.12452" lon="-1.41512">
        <ele>18</ele>
        <time>2023-11-14T09:39:51Z</time>
      </trkpt>
      <trkpt lat="47.12435" lon="-1.41585">
        <ele>11</ele>
        <time>2023-11-14T09:41:01Z</time>
      </trkpt>
      <trkpt lat="47.12409" lon="-1.41607">
        <ele>12</ele>
        <time>2023-11-14T09:41:41Z</time>
      </trkpt>
      <trkpt lat="47.12385" lon="-1.41654">
        <ele>11</ele>
        <time>2023-11-14T09:42:34Z</time>
      </trkpt>
      <trkpt lat="47.12359" lon="-1.4174">
        <ele>12</ele>
        <time>2023-11-14T09:44:00Z</time>
      </trkpt>
      <trkpt lat="47.12309" lon="-1.41791">
        <ele>13</ele>
        <time>2023-11-14T09:45:21Z</time>
      </trkpt>
      <trkpt lat="47.12251" lon="-1.41834">
        <ele>13</ele>
        <time>2023-11-14T09:46:48Z</time>
      </trkpt>
      <trkpt lat="47.12163" lon="-1.41782">
        <ele>20</ele>
        <time>2023-11-14T09:48:54Z</time>
      </trkpt>
      <trkpt lat="47.1206" lon="-1.41704">
        <ele>25</ele>
        <time>2023-11-14T09:51:29Z</time>
      </trkpt>
      <trkpt lat="47.11961" lon="-1.417">
        <ele>19</ele>
        <time>2023-11-14T09:53:41Z</time>
      </trkpt>
      <trkpt lat="47.11832" lon="-1.41709">
        <ele>16</ele>
        <time>2023-11-14T09:56:33Z</time>
      </trkpt>
      <trkpt lat="47.11768" lon="-1.41683">
        <ele>17</ele>
        <time>2023-11-14T09:58:02Z</time>
      </trkpt>
      <trkpt lat="47.11733" lon="-1.4161">
        <ele>25</ele>
        <time>2023-11-14T09:59:23Z</time>
      </trkpt>
      <trkpt lat="47.11683" lon="-1.41546">
        <ele>30</ele>
        <time>2023-11-14T10:00:52Z</time>
      </trkpt>
      <trkpt lat="47.11715" lon="-1.41451">
        <ele>41</ele>
        <time>2023-11-14T10:02:28Z</time>
      </trkpt>
      <trkpt lat="47.12195" lon="-1.41664">
        <ele>37</ele>
        <time>2023-11-14T10:13:37Z</time>
      </trkpt>
      <trkpt lat="47.12417" lon="-1.41426">
        <ele>39</ele>
        <time>2023-11-14T10:19:44Z</time>
      </trkpt>
      <trkpt lat="47.12402" lon="-1.41262">
        <ele>44</ele>
        <time>2023-11-14T10:22:14Z</time>
      </trkpt>
      <trkpt lat="47.1249" lon="-1.41305">
        <ele>37</ele>
        <time>2023-11-14T10:24:18Z</time>
      </trkpt>
      <trkpt lat="47.12522" lon="-1.41318">
        <ele>31</ele>
        <time>2023-11-14T10:25:02Z</time>
      </trkpt>
      <trkpt lat="47.12519" lon="-1.41408">
        <ele>17</ele>
        <time>2023-11-14T10:26:24Z</time>
      </trkpt>
      <trkpt lat="47.12574" lon="-1.41391">
        <ele>13</ele>
        <time>2023-11-14T10:27:39Z</time>
      </trkpt>
      <trkpt lat="47.12636" lon="-1.4134">
        <ele>14</ele>
        <time>2023-11-14T10:29:14Z</time>
      </trkpt>
      <trkpt lat="47.12715" lon="-1.4128">
        <ele>18</ele>
        <time>2023-11-14T10:31:12Z</time>
      </trkpt>
      <trkpt lat="47.12802" lon="-1.41228">
        <ele>19</ele>
        <time>2023-11-14T10:33:18Z</time>
      </trkpt>
      <trkpt lat="47.12899" lon="-1.41215">
        <ele>14</ele>
        <time>2023-11-14T10:35:28Z</time>
      </trkpt>
      <trkpt lat="47.1298" lon="-1.41241">
        <ele>10</ele>
        <time>2023-11-14T10:37:18Z</time>
      </trkpt>
      <trkpt lat="47.1305" lon="-1.41292">
        <ele>8</ele>
        <time>2023-11-14T10:39:03Z</time>
      </trkpt>
      <trkpt lat="47.13138" lon="-1.41284">
        <ele>10</ele>
        <time>2023-11-14T10:41:00Z</time>
      </trkpt>
      <trkpt lat="47.13228" lon="-1.41284">
        <ele>13</ele>
        <time>2023-11-14T10:43:00Z</time>
      </trkpt>
      <trkpt lat="47.13307" lon="-1.41318">
        <ele>18</ele>
        <time>2023-11-14T10:44:50Z</time>
      </trkpt>
      <trkpt lat="47.13395" lon="-1.41378">
        <ele>18</ele>
        <time>2023-11-14T10:47:00Z</time>
      </trkpt>
      <trkpt lat="47.13485" lon="-1.41447">
        <ele>13</ele>
        <time>2023-11-14T10:49:15Z</time>
      </trkpt>
      <trkpt lat="47.13576" lon="-1.41507">
        <ele>14</ele>
        <time>2023-11-14T10:51:28Z</time>
      </trkpt>
      <trkpt lat="47.13669" lon="-1.41567">
        <ele>16</ele>
        <time>2023-11-14T10:53:44Z</time>
      </trkpt>
      <trkpt lat="47.13742" lon="-1.41683">
        <ele>11</ele>
        <time>2023-11-14T10:56:07Z</time>
      </trkpt>
      <trkpt lat="47.13821" lon="-1.41747">
        <ele>10</ele>
        <time>2023-11-14T10:58:07Z</time>
      </trkpt>
      <trkpt lat="47.13894" lon="-1.41799">
        <ele>9</ele>
        <time>2023-11-14T10:59:56Z</time>
      </trkpt>
      <trkpt lat="47.13926" lon="-1.4179">
        <ele>11</ele>
        <time>2023-11-14T11:00:39Z</time>
      </trkpt>
      <trkpt lat="47.13967" lon="-1.41825">
        <ele>10</ele>
        <time>2023-11-14T11:01:42Z</time>
      </trkpt>
      <trkpt lat="47.14046" lon="-1.41833">
        <ele>14</ele>
        <time>2023-11-14T11:03:28Z</time>
      </trkpt>
      <trkpt lat="47.14069" lon="-1.41915">
        <ele>8</ele>
        <time>2023-11-14T11:04:49Z</time>
      </trkpt>
      <trkpt lat="47.14133" lon="-1.41979">
        <ele>9</ele>
        <time>2023-11-14T11:06:32Z</time>
      </trkpt>
      <trkpt lat="47.14241" lon="-1.42146">
        <ele>11</ele>
        <time>2023-11-14T11:10:01Z</time>
      </trkpt>
      <trkpt lat="47.14358" lon="-1.42314">
        <ele>10</ele>
        <time>2023-11-14T11:13:39Z</time>
      </trkpt>
      <trkpt lat="47.14402" lon="-1.42408">
        <ele>10</ele>
        <time>2023-11-14T11:15:23Z</time>
      </trkpt>
      <trkpt lat="47.14455" lon="-1.42378">
        <ele>16</ele>
        <time>2023-11-14T11:16:39Z</time>
      </trkpt>
      <trkpt lat="47.14513" lon="-1.42335">
        <ele>22</ele>
        <time>2023-11-14T11:18:05Z</time>
      </trkpt>
      <trkpt lat="47.14548" lon="-1.42292">
        <ele>23</ele>
        <time>2023-11-14T11:19:06Z</time>
      </trkpt>
      <trkpt lat="47.14519" lon="-1.42228">
        <ele>23</ele>
        <time>2023-11-14T11:20:16Z</time>
      </trkpt>
      <trkpt lat="47.14563" lon="-1.42198">
        <ele>21</ele>
        <time>2023-11-14T11:21:21Z</time>
      </trkpt>
      <trkpt lat="47.14641" lon="-1.42155">
        <ele>13</ele>
        <time>2023-11-14T11:23:12Z</time>
      </trkpt>
      <trkpt lat="47.14668" lon="-1.42146">
        <ele>10</ele>
        <time>2023-11-14T11:23:49Z</time>
      </trkpt>
      <trkpt lat="47.14691" lon="-1.42138">
        <ele>8</ele>
        <time>2023-11-14T11:24:20Z</time>
      </trkpt>
      <trkpt lat="47.14799" lon="-1.42254">
        <ele>9</ele>
        <time>2023-11-14T11:27:19Z</time>
      </trkpt>
      <trkpt lat="47.14846" lon="-1.42275">
        <ele>12</ele>
        <time>2023-11-14T11:28:24Z</time>
      </trkpt>
      <trkpt lat="47.14913" lon="-1.42288">
        <ele>13</ele>
        <time>2023-11-14T11:29:55Z</time>
      </trkpt>
      <trkpt lat="47.1498" lon="-1.4231">
        <ele>14</ele>
        <time>2023-11-14T11:31:26Z</time>
      </trkpt>
      <trkpt lat="47.15047" lon="-1.42352">
        <ele>14</ele>
        <time>2023-11-14T11:33:03Z</time>
      </trkpt>
      <trkpt lat="47.15091" lon="-1.42408">
        <ele>16</ele>
        <time>2023-11-14T11:34:21Z</time>
      </trkpt>
      <trkpt lat="47.15105" lon="-1.42451">
        <ele>17</ele>
        <time>2023-11-14T11:35:04Z</time>
      </trkpt>
      <trkpt lat="47.15137" lon="-1.42511">
        <ele>15</ele>
        <time>2023-11-14T11:36:14Z</time>
      </trkpt>
      <trkpt lat="47.15181" lon="-1.42541">
        <ele>13</ele>
        <time>2023-11-14T11:37:18Z</time>
      </trkpt>
      <trkpt lat="47.1521" lon="-1.42619">
        <ele>17</ele>
        <time>2023-11-14T11:38:39Z</time>
      </trkpt>
      <trkpt lat="47.1524" lon="-1.42704">
        <ele>19</ele>
        <time>2023-11-14T11:40:06Z</time>
      </trkpt>
      <trkpt lat="47.15254" lon="-1.42794">
        <ele>22</ele>
        <time>2023-11-14T11:41:30Z</time>
      </trkpt>
      <trkpt lat="47.15269" lon="-1.4288">
        <ele>22</ele>
        <time>2023-11-14T11:42:50Z</time>
      </trkpt>
      <trkpt lat="47.15278" lon="-1.42966">
        <ele>22</ele>
        <time>2023-11-14T11:44:09Z</time>
      </trkpt>
      <trkpt lat="47.15237" lon="-1.43">
        <ele>25</ele>
        <time>2023-11-14T11:45:12Z</time>
      </trkpt>
      <trkpt lat="47.15254" lon="-1.43026">
        <ele>23</ele>
        <time>2023-11-14T11:45:45Z</time>
      </trkpt>
      <trkpt lat="47.15269" lon="-1.43056">
        <ele>20</ele>
        <time>2023-11-14T11:46:19Z</time>
      </trkpt>
      <trkpt lat="47.1528" lon="-1.43103">
        <ele>18</ele>
        <time>2023-11-14T11:47:04Z</time>
      </trkpt>
      <trkpt lat="47.15292" lon="-1.43146">
        <ele>15</ele>
        <time>2023-11-14T11:47:46Z</time>
      </trkpt>
      <trkpt lat="47.15313" lon="-1.43189">
        <ele>11</ele>
        <time>2023-11-14T11:48:34Z</time>
      </trkpt>
      <trkpt lat="47.15316" lon="-1.43228">
        <ele>10</ele>
        <time>2023-11-14T11:49:09Z</time>
      </trkpt>
      <trkpt lat="47.15304" lon="-1.43275">
        <ele>11</ele>
        <time>2023-11-14T11:49:55Z</time>
      </trkpt>
      <trkpt lat="47.15286" lon="-1.43335">
        <ele>13</ele>
        <time>2023-11-14T11:50:55Z</time>
      </trkpt>
      <trkpt lat="47.15283" lon="-1.43382">
        <ele>13</ele>
        <time>2023-11-14T11:51:37Z</time>
      </trkpt>
      <trkpt lat="47.15298" lon="-1.4346">
        <ele>10</ele>
        <time>2023-11-14T11:52:51Z</time>
      </trkpt>
      <trkpt lat="47.15313" lon="-1.43537">
        <ele>9</ele>
        <time>2023-11-14T11:54:04Z</time>
      </trkpt>
      <trkpt lat="47.15321" lon="-1.43631">
        <ele>9</ele>
        <time>2023-11-14T11:55:30Z</time>
      </trkpt>
      <trkpt lat="47.1531" lon="-1.4373">
        <ele>13</ele>
        <time>2023-11-14T11:57:01Z</time>
      </trkpt>
      <trkpt lat="47.15304" lon="-1.4382">
        <ele>12</ele>
        <time>2023-11-14T11:58:23Z</time>
      </trkpt>
      <trkpt lat="47.15289" lon="-1.43885">
        <ele>13</ele>
        <time>2023-11-14T11:59:25Z</time>
      </trkpt>
      <trkpt lat="47.15345" lon="-1.43962">
        <ele>7</ele>
        <time>2023-11-14T12:01:07Z</time>
      </trkpt>
      <trkpt lat="47.15372" lon="-1.44013">
        <ele>8</ele>
        <time>2023-11-14T12:02:06Z</time>
      </trkpt>
      <trkpt lat="47.15328" lon="-1.44073">
        <ele>8</ele>
        <time>2023-11-14T12:03:26Z</time>
      </trkpt>
      <trkpt lat="47.15275" lon="-1.44151">
        <ele>7</ele>
        <time>2023-11-14T12:05:06Z</time>
      </trkpt>
      <trkpt lat="47.15226" lon="-1.44232">
        <ele>9</ele>
        <time>2023-11-14T12:06:44Z</time>
      </trkpt>
      <trkpt lat="47.15229" lon="-1.44309">
        <ele>9</ele>
        <time>2023-11-14T12:07:54Z</time>
      </trkpt>
      <trkpt lat="47.15266" lon="-1.44417">
        <ele>6</ele>
        <time>2023-11-14T12:09:44Z</time>
      </trkpt>
      <trkpt lat="47.15319" lon="-1.4452">
        <ele>5</ele>
        <time>2023-11-14T12:11:41Z</time>
      </trkpt>
      <trkpt lat="47.1536" lon="-1.44575">
        <ele>7</ele>
        <time>2023-11-14T12:12:55Z</time>
      </trkpt>
      <trkpt lat="47.15407" lon="-1.44618">
        <ele>10</ele>
        <time>2023-11-14T12:14:09Z</time>
      </trkpt>
      <trkpt lat="47.15424" lon="-1.44683">
        <ele>13</ele>
        <time>2023-11-14T12:15:13Z</time>
      </trkpt>
      <trkpt lat="47.15418" lon="-1.44773">
        <ele>12</ele>
        <time>2023-11-14T12:16:35Z</time>
      </trkpt>
      <trkpt lat="47.15424" lon="-1.44867">
        <ele>12</ele>
        <time>2023-11-14T12:18:00Z</time>
      </trkpt>
      <trkpt lat="47.15427" lon="-1.44962">
        <ele>12</ele>
        <time>2023-11-14T12:19:27Z</time>
      </trkpt>
      <trkpt lat="47.15409" lon="-1.45073">
        <ele>11</ele>
        <time>2023-11-14T12:21:10Z</time>
      </trkpt>
      <trkpt lat="47.15433" lon="-1.45185">
        <ele>8</ele>
        <time>2023-11-14T12:22:57Z</time>
      </trkpt>
      <trkpt lat="47.15453" lon="-1.45245">
        <ele>9</ele>
        <time>2023-11-14T12:23:57Z</time>
      </trkpt>
      <trkpt lat="47.15517" lon="-1.45241">
        <ele>14</ele>
        <time>2023-11-14T12:25:23Z</time>
      </trkpt>
      <trkpt lat="47.15558" lon="-1.45215">
        <ele>14</ele>
        <time>2023-11-14T12:26:22Z</time>
      </trkpt>
      <trkpt lat="47.15532" lon="-1.45129">
        <ele>16</ele>
        <time>2023-11-14T12:27:48Z</time>
      </trkpt>
      <trkpt lat="47.15547" lon="-1.45069">
        <ele>17</ele>
        <time>2023-11-14T12:28:46Z</time>
      </trkpt>
      <trkpt lat="47.15593" lon="-1.45035">
        <ele>17</ele>
        <time>2023-11-14T12:29:55Z</time>
      </trkpt>
      <trkpt lat="47.15655" lon="-1.45005">
        <ele>21</ele>
        <time>2023-11-14T12:31:22Z</time>
      </trkpt>
      <trkpt lat="47.15701" lon="-1.4503">
        <ele>23</ele>
        <time>2023-11-14T12:32:27Z</time>
      </trkpt>
      <trkpt lat="47.15725" lon="-1.45103">
        <ele>22</ele>
        <time>2023-11-14T12:33:41Z</time>
      </trkpt>
      <trkpt lat="47.15739" lon="-1.45193">
        <ele>25</ele>
        <time>2023-11-14T12:35:04Z</time>
      </trkpt>
      <trkpt lat="47.15768" lon="-1.45301">
        <ele>28</ele>
        <time>2023-11-14T12:36:50Z</time>
      </trkpt>
      <trkpt lat="47.15777" lon="-1.45374">
        <ele>29</ele>
        <time>2023-11-14T12:37:57Z</time>
      </trkpt>
      <trkpt lat="47.1583" lon="-1.45391">
        <ele>32</ele>
        <time>2023-11-14T12:39:09Z</time>
      </trkpt>
      <trkpt lat="47.15812" lon="-1.45451">
        <ele>31</ele>
        <time>2023-11-14T12:40:09Z</time>
      </trkpt>
      <trkpt lat="47.15789" lon="-1.45537">
        <ele>30</ele>
        <time>2023-11-14T12:41:33Z</time>
      </trkpt>
      <trkpt lat="47.15777" lon="-1.45605">
        <ele>30</ele>
        <time>2023-11-14T12:42:37Z</time>
      </trkpt>
      <trkpt lat="47.1576" lon="-1.45683">
        <ele>30</ele>
        <time>2023-11-14T12:43:51Z</time>
      </trkpt>
      <trkpt lat="47.15736" lon="-1.45777">
        <ele>29</ele>
        <time>2023-11-14T12:45:22Z</time>
      </trkpt>
      <trkpt lat="47.15684" lon="-1.4582">
        <ele>30</ele>
        <time>2023-11-14T12:46:42Z</time>
      </trkpt>
      <trkpt lat="47.15663" lon="-1.45872">
        <ele>30</ele>
        <time>2023-11-14T12:47:37Z</time>
      </trkpt>
      <trkpt lat="47.15623" lon="-1.4591">
        <ele>29</ele>
        <time>2023-11-14T12:48:40Z</time>
      </trkpt>
      <trkpt lat="47.15564" lon="-1.45957">
        <ele>28</ele>
        <time>2023-11-14T12:50:10Z</time>
      </trkpt>
      <trkpt lat="47.15491" lon="-1.46017">
        <ele>21</ele>
        <time>2023-11-14T12:52:01Z</time>
      </trkpt>
      <trkpt lat="47.15436" lon="-1.46043">
        <ele>18</ele>
        <time>2023-11-14T12:53:18Z</time>
      </trkpt>
      <trkpt lat="47.15369" lon="-1.45992">
        <ele>12</ele>
        <time>2023-11-14T12:54:59Z</time>
      </trkpt>
      <trkpt lat="47.15313" lon="-1.46069">
        <ele>13</ele>
        <time>2023-11-14T12:56:41Z</time>
      </trkpt>
      <trkpt lat="47.15319" lon="-1.46176">
        <ele>15</ele>
        <time>2023-11-14T12:58:19Z</time>
      </trkpt>
      <trkpt lat="47.15313" lon="-1.46292">
        <ele>14</ele>
        <time>2023-11-14T13:00:04Z</time>
      </trkpt>
      <trkpt lat="47.15319" lon="-1.46412">
        <ele>11</ele>
        <time>2023-11-14T13:01:54Z</time>
      </trkpt>
      <trkpt lat="47.15342" lon="-1.46481">
        <ele>10</ele>
        <time>2023-11-14T13:03:03Z</time>
      </trkpt>
      <trkpt lat="47.15322" lon="-1.46575">
        <ele>6</ele>
        <time>2023-11-14T13:04:33Z</time>
      </trkpt>
      <trkpt lat="47.15313" lon="-1.467">
        <ele>6</ele>
        <time>2023-11-14T13:06:27Z</time>
      </trkpt>
      <trkpt lat="47.15331" lon="-1.46773">
        <ele>5</ele>
        <time>2023-11-14T13:07:37Z</time>
      </trkpt>
      <trkpt lat="47.15272" lon="-1.4679">
        <ele>4</ele>
        <time>2023-11-14T13:08:57Z</time>
      </trkpt>
      <trkpt lat="47.15205" lon="-1.46816">
        <ele>3</ele>
        <time>2023-11-14T13:10:30Z</time>
      </trkpt>
      <trkpt lat="47.15129" lon="-1.46824">
        <ele>2</ele>
        <time>2023-11-14T13:12:12Z</time>
      </trkpt>
      <trkpt lat="47.15065" lon="-1.4685">
        <ele>4</ele>
        <time>2023-11-14T13:13:40Z</time>
      </trkpt>
      <trkpt lat="47.14995" lon="-1.46846">
        <ele>10</ele>
        <time>2023-11-14T13:15:14Z</time>
      </trkpt>
      <trkpt lat="47.14948" lon="-1.4682">
        <ele>13</ele>
        <time>2023-11-14T13:16:21Z</time>
      </trkpt>
      <trkpt lat="47.14996" lon="-1.46768">
        <ele>9</ele>
        <time>2023-11-14T13:17:40Z</time>
      </trkpt>
    </trkseg>
  </trk>
  <trk>
    <name><![CDATA[VertouGare_ClissonGare_29.7km-8004523]]></name>
    <extensions>
      <line xmlns="http://www.topografix.com/GPX/gpx_style/0/2">
        <color>00FF00</color>
        <width>4</width>
      </line>
    </extensions>
    <trkseg>
      <trkpt lat="47.18615" lon="-1.47811">
        <ele>31</ele>
        <time>2023-11-14T06:30:28Z</time>
      </trkpt>
      <trkpt lat="47.18598" lon="-1.47835">
        <ele>31</ele>
        <time>2023-11-14T06:30:59Z</time>
      </trkpt>
      <trkpt lat="47.18594" lon="-1.47806">
        <ele>30</ele>
        <time>2023-11-14T06:31:26Z</time>
      </trkpt>
      <trkpt lat="47.1858" lon="-1.47788">
        <ele>29</ele>
        <time>2023-11-14T06:31:51Z</time>
      </trkpt>
      <trkpt lat="47.18588" lon="-1.47733">
        <ele>28</ele>
        <time>2023-11-14T06:32:42Z</time>
      </trkpt>
      <trkpt lat="47.18583" lon="-1.47707">
        <ele>27</ele>
        <time>2023-11-14T06:33:07Z</time>
      </trkpt>
      <trkpt lat="47.18584" lon="-1.4768">
        <ele>26</ele>
        <time>2023-11-14T06:33:31Z</time>
      </trkpt>
      <trkpt lat="47.18598" lon="-1.476">
        <ele>26</ele>
        <time>2023-11-14T06:34:46Z</time>
      </trkpt>
      <trkpt lat="47.18608" lon="-1.47463">
        <ele>28</ele>
        <time>2023-11-14T06:36:51Z</time>
      </trkpt>
      <trkpt lat="47.18605" lon="-1.47437">
        <ele>29</ele>
        <time>2023-11-14T06:37:15Z</time>
      </trkpt>
      <trkpt lat="47.18567" lon="-1.47443">
        <ele>27</ele>
        <time>2023-11-14T06:38:06Z</time>
      </trkpt>
      <trkpt lat="47.18549" lon="-1.47449">
        <ele>26</ele>
        <time>2023-11-14T06:38:31Z</time>
      </trkpt>
      <trkpt lat="47.18512" lon="-1.47454">
        <ele>25</ele>
        <time>2023-11-14T06:39:20Z</time>
      </trkpt>
      <trkpt lat="47.18458" lon="-1.47472">
        <ele>22</ele>
        <time>2023-11-14T06:40:34Z</time>
      </trkpt>
      <trkpt lat="47.18421" lon="-1.47481">
        <ele>20</ele>
        <time>2023-11-14T06:41:24Z</time>
      </trkpt>
      <trkpt lat="47.18403" lon="-1.47479">
        <ele>19</ele>
        <time>2023-11-14T06:41:48Z</time>
      </trkpt>
      <trkpt lat="47.18391" lon="-1.47459">
        <ele>19</ele>
        <time>2023-11-14T06:42:12Z</time>
      </trkpt>
      <trkpt lat="47.18369" lon="-1.47324">
        <ele>18</ele>
        <time>2023-11-14T06:44:18Z</time>
      </trkpt>
      <trkpt lat="47.18359" lon="-1.47301">
        <ele>18</ele>
        <time>2023-11-14T06:44:43Z</time>
      </trkpt>
      <trkpt lat="47.18352" lon="-1.47276">
        <ele>18</ele>
        <time>2023-11-14T06:45:08Z</time>
      </trkpt>
      <trkpt lat="47.18349" lon="-1.47249">
        <ele>18</ele>
        <time>2023-11-14T06:45:32Z</time>
      </trkpt>
      <trkpt lat="47.18332" lon="-1.47241">
        <ele>18</ele>
        <time>2023-11-14T06:45:56Z</time>
      </trkpt>
      <trkpt lat="47.18296" lon="-1.47263">
        <ele>17</ele>
        <time>2023-11-14T06:46:48Z</time>
      </trkpt>
      <trkpt lat="47.18277" lon="-1.47268">
        <ele>16</ele>
        <time>2023-11-14T06:47:14Z</time>
      </trkpt>
      <trkpt lat="47.1826" lon="-1.47258">
        <ele>16</ele>
        <time>2023-11-14T06:47:38Z</time>
      </trkpt>
      <trkpt lat="47.18248" lon="-1.47207">
        <ele>18</ele>
        <time>2023-11-14T06:48:27Z</time>
      </trkpt>
      <trkpt lat="47.18257" lon="-1.47155">
        <ele>21</ele>
        <time>2023-11-14T06:49:16Z</time>
      </trkpt>
      <trkpt lat="47.18257" lon="-1.47127">
        <ele>22</ele>
        <time>2023-11-14T06:49:41Z</time>
      </trkpt>
      <trkpt lat="47.18249" lon="-1.47102">
        <ele>23</ele>
        <time>2023-11-14T06:50:06Z</time>
      </trkpt>
      <trkpt lat="47.18238" lon="-1.47049">
        <ele>24</ele>
        <time>2023-11-14T06:50:57Z</time>
      </trkpt>
      <trkpt lat="47.18238" lon="-1.47022">
        <ele>25</ele>
        <time>2023-11-14T06:51:21Z</time>
      </trkpt>
      <trkpt lat="47.18248" lon="-1.46969">
        <ele>27</ele>
        <time>2023-11-14T06:52:11Z</time>
      </trkpt>
      <trkpt lat="47.18243" lon="-1.46943">
        <ele>28</ele>
        <time>2023-11-14T06:52:36Z</time>
      </trkpt>
      <trkpt lat="47.18235" lon="-1.46918">
        <ele>29</ele>
        <time>2023-11-14T06:53:01Z</time>
      </trkpt>
      <trkpt lat="47.18232" lon="-1.46891">
        <ele>30</ele>
        <time>2023-11-14T06:53:25Z</time>
      </trkpt>
      <trkpt lat="47.18269" lon="-1.46881">
        <ele>30</ele>
        <time>2023-11-14T06:54:16Z</time>
      </trkpt>
      <trkpt lat="47.18305" lon="-1.46864">
        <ele>30</ele>
        <time>2023-11-14T06:55:06Z</time>
      </trkpt>
      <trkpt lat="47.18324" lon="-1.4686">
        <ele>30</ele>
        <time>2023-11-14T06:55:32Z</time>
      </trkpt>
      <trkpt lat="47.18361" lon="-1.46859">
        <ele>31</ele>
        <time>2023-11-14T06:56:21Z</time>
      </trkpt>
      <trkpt lat="47.18398" lon="-1.46864">
        <ele>31</ele>
        <time>2023-11-14T06:57:11Z</time>
      </trkpt>
      <trkpt lat="47.18414" lon="-1.46853">
        <ele>32</ele>
        <time>2023-11-14T06:57:34Z</time>
      </trkpt>
      <trkpt lat="47.18418" lon="-1.46826">
        <ele>32</ele>
        <time>2023-11-14T06:57:59Z</time>
      </trkpt>
      <trkpt lat="47.18418" lon="-1.46799">
        <ele>32</ele>
        <time>2023-11-14T06:58:24Z</time>
      </trkpt>
      <trkpt lat="47.18423" lon="-1.46773">
        <ele>33</ele>
        <time>2023-11-14T06:58:48Z</time>
      </trkpt>
      <trkpt lat="47.18418" lon="-1.46664">
        <ele>33</ele>
        <time>2023-11-14T07:00:27Z</time>
      </trkpt>
      <trkpt lat="47.18419" lon="-1.46636">
        <ele>33</ele>
        <time>2023-11-14T07:00:53Z</time>
      </trkpt>
      <trkpt lat="47.18415" lon="-1.46609">
        <ele>34</ele>
        <time>2023-11-14T07:01:18Z</time>
      </trkpt>
      <trkpt lat="47.18416" lon="-1.46582">
        <ele>34</ele>
        <time>2023-11-14T07:01:42Z</time>
      </trkpt>
      <trkpt lat="47.18419" lon="-1.46555">
        <ele>34</ele>
        <time>2023-11-14T07:02:07Z</time>
      </trkpt>
      <trkpt lat="47.18427" lon="-1.46529">
        <ele>35</ele>
        <time>2023-11-14T07:02:33Z</time>
      </trkpt>
      <trkpt lat="47.1843" lon="-1.46503">
        <ele>35</ele>
        <time>2023-11-14T07:02:57Z</time>
      </trkpt>
      <trkpt lat="47.18422" lon="-1.46477">
        <ele>35</ele>
        <time>2023-11-14T07:03:23Z</time>
      </trkpt>
      <trkpt lat="47.18403" lon="-1.4643">
        <ele>36</ele>
        <time>2023-11-14T07:04:13Z</time>
      </trkpt>
      <trkpt lat="47.18391" lon="-1.46409">
        <ele>36</ele>
        <time>2023-11-14T07:04:37Z</time>
      </trkpt>
      <trkpt lat="47.18351" lon="-1.46317">
        <ele>34</ele>
        <time>2023-11-14T07:06:16Z</time>
      </trkpt>
      <trkpt lat="47.18345" lon="-1.46292">
        <ele>34</ele>
        <time>2023-11-14T07:06:41Z</time>
      </trkpt>
      <trkpt lat="47.18335" lon="-1.46269">
        <ele>34</ele>
        <time>2023-11-14T07:07:05Z</time>
      </trkpt>
      <trkpt lat="47.18323" lon="-1.46249">
        <ele>34</ele>
        <time>2023-11-14T07:07:30Z</time>
      </trkpt>
      <trkpt lat="47.18289" lon="-1.46227">
        <ele>33</ele>
        <time>2023-11-14T07:08:19Z</time>
      </trkpt>
      <trkpt lat="47.18256" lon="-1.462">
        <ele>33</ele>
        <time>2023-11-14T07:09:09Z</time>
      </trkpt>
      <trkpt lat="47.18232" lon="-1.4616">
        <ele>31</ele>
        <time>2023-11-14T07:09:58Z</time>
      </trkpt>
      <trkpt lat="47.18204" lon="-1.46123">
        <ele>29</ele>
        <time>2023-11-14T07:10:48Z</time>
      </trkpt>
      <trkpt lat="47.18191" lon="-1.46102">
        <ele>28</ele>
        <time>2023-11-14T07:11:14Z</time>
      </trkpt>
      <trkpt lat="47.18176" lon="-1.46086">
        <ele>27</ele>
        <time>2023-11-14T07:11:39Z</time>
      </trkpt>
      <trkpt lat="47.18136" lon="-1.46029">
        <ele>25</ele>
        <time>2023-11-14T07:12:53Z</time>
      </trkpt>
      <trkpt lat="47.18121" lon="-1.46014">
        <ele>24</ele>
        <time>2023-11-14T07:13:17Z</time>
      </trkpt>
      <trkpt lat="47.18081" lon="-1.45957">
        <ele>24</ele>
        <time>2023-11-14T07:14:31Z</time>
      </trkpt>
      <trkpt lat="47.1805" lon="-1.45925">
        <ele>22</ele>
        <time>2023-11-14T07:15:22Z</time>
      </trkpt>
      <trkpt lat="47.18038" lon="-1.45902">
        <ele>22</ele>
        <time>2023-11-14T07:15:48Z</time>
      </trkpt>
      <trkpt lat="47.18022" lon="-1.45885">
        <ele>20</ele>
        <time>2023-11-14T07:16:15Z</time>
      </trkpt>
      <trkpt lat="47.1801" lon="-1.45864">
        <ele>20</ele>
        <time>2023-11-14T07:16:39Z</time>
      </trkpt>
      <trkpt lat="47.17994" lon="-1.45851">
        <ele>19</ele>
        <time>2023-11-14T07:17:04Z</time>
      </trkpt>
      <trkpt lat="47.17984" lon="-1.45829">
        <ele>19</ele>
        <time>2023-11-14T07:17:28Z</time>
      </trkpt>
      <trkpt lat="47.17969" lon="-1.45813">
        <ele>19</ele>
        <time>2023-11-14T07:17:53Z</time>
      </trkpt>
      <trkpt lat="47.17952" lon="-1.45804">
        <ele>18</ele>
        <time>2023-11-14T07:18:17Z</time>
      </trkpt>
      <trkpt lat="47.17907" lon="-1.45754">
        <ele>20</ele>
        <time>2023-11-14T07:19:32Z</time>
      </trkpt>
      <trkpt lat="47.1788" lon="-1.45716">
        <ele>19</ele>
        <time>2023-11-14T07:20:22Z</time>
      </trkpt>
      <trkpt lat="47.17871" lon="-1.45692">
        <ele>19</ele>
        <time>2023-11-14T07:20:47Z</time>
      </trkpt>
      <trkpt lat="47.1786" lon="-1.45671">
        <ele>18</ele>
        <time>2023-11-14T07:21:11Z</time>
      </trkpt>
      <trkpt lat="47.17846" lon="-1.45651">
        <ele>19</ele>
        <time>2023-11-14T07:21:37Z</time>
      </trkpt>
      <trkpt lat="47.17824" lon="-1.45608">
        <ele>20</ele>
        <time>2023-11-14T07:22:26Z</time>
      </trkpt>
      <trkpt lat="47.17794" lon="-1.45574">
        <ele>22</ele>
        <time>2023-11-14T07:23:16Z</time>
      </trkpt>
      <trkpt lat="47.17776" lon="-1.4557">
        <ele>22</ele>
        <time>2023-11-14T07:23:40Z</time>
      </trkpt>
      <trkpt lat="47.1776" lon="-1.45556">
        <ele>22</ele>
        <time>2023-11-14T07:24:05Z</time>
      </trkpt>
      <trkpt lat="47.17746" lon="-1.45537">
        <ele>22</ele>
        <time>2023-11-14T07:24:31Z</time>
      </trkpt>
      <trkpt lat="47.1773" lon="-1.45525">
        <ele>22</ele>
        <time>2023-11-14T07:24:55Z</time>
      </trkpt>
      <trkpt lat="47.17701" lon="-1.4549">
        <ele>23</ele>
        <time>2023-11-14T07:25:45Z</time>
      </trkpt>
      <trkpt lat="47.17655" lon="-1.45447">
        <ele>25</ele>
        <time>2023-11-14T07:26:57Z</time>
      </trkpt>
      <trkpt lat="47.17618" lon="-1.45432">
        <ele>26</ele>
        <time>2023-11-14T07:27:49Z</time>
      </trkpt>
      <trkpt lat="47.17566" lon="-1.45399">
        <ele>26</ele>
        <time>2023-11-14T07:29:04Z</time>
      </trkpt>
      <trkpt lat="47.17535" lon="-1.45371">
        <ele>27</ele>
        <time>2023-11-14T07:29:53Z</time>
      </trkpt>
      <trkpt lat="47.17517" lon="-1.45363">
        <ele>27</ele>
        <time>2023-11-14T07:30:18Z</time>
      </trkpt>
      <trkpt lat="47.175" lon="-1.45351">
        <ele>26</ele>
        <time>2023-11-14T07:30:43Z</time>
      </trkpt>
      <trkpt lat="47.17486" lon="-1.45333">
        <ele>26</ele>
        <time>2023-11-14T07:31:08Z</time>
      </trkpt>
      <trkpt lat="47.1747" lon="-1.45321">
        <ele>27</ele>
        <time>2023-11-14T07:31:32Z</time>
      </trkpt>
      <trkpt lat="47.17454" lon="-1.45334">
        <ele>27</ele>
        <time>2023-11-14T07:31:56Z</time>
      </trkpt>
      <trkpt lat="47.17423" lon="-1.45367">
        <ele>28</ele>
        <time>2023-11-14T07:32:47Z</time>
      </trkpt>
      <trkpt lat="47.17406" lon="-1.45379">
        <ele>28</ele>
        <time>2023-11-14T07:33:12Z</time>
      </trkpt>
      <trkpt lat="47.1737" lon="-1.45389">
        <ele>29</ele>
        <time>2023-11-14T07:34:01Z</time>
      </trkpt>
      <trkpt lat="47.17334" lon="-1.45378">
        <ele>29</ele>
        <time>2023-11-14T07:34:50Z</time>
      </trkpt>
      <trkpt lat="47.17303" lon="-1.45349">
        <ele>31</ele>
        <time>2023-11-14T07:35:39Z</time>
      </trkpt>
      <trkpt lat="47.17286" lon="-1.4534">
        <ele>31</ele>
        <time>2023-11-14T07:36:03Z</time>
      </trkpt>
      <trkpt lat="47.17267" lon="-1.45338">
        <ele>32</ele>
        <time>2023-11-14T07:36:29Z</time>
      </trkpt>
      <trkpt lat="47.17249" lon="-1.45341">
        <ele>32</ele>
        <time>2023-11-14T07:36:53Z</time>
      </trkpt>
      <trkpt lat="47.17161" lon="-1.45383">
        <ele>32</ele>
        <time>2023-11-14T07:38:57Z</time>
      </trkpt>
      <trkpt lat="47.17123" lon="-1.45381">
        <ele>34</ele>
        <time>2023-11-14T07:39:47Z</time>
      </trkpt>
      <trkpt lat="47.17019" lon="-1.45438">
        <ele>38</ele>
        <time>2023-11-14T07:42:15Z</time>
      </trkpt>
      <trkpt lat="47.17003" lon="-1.45451">
        <ele>38</ele>
        <time>2023-11-14T07:42:40Z</time>
      </trkpt>
      <trkpt lat="47.16984" lon="-1.45457">
        <ele>39</ele>
        <time>2023-11-14T07:43:06Z</time>
      </trkpt>
      <trkpt lat="47.16966" lon="-1.45467">
        <ele>38</ele>
        <time>2023-11-14T07:43:31Z</time>
      </trkpt>
      <trkpt lat="47.1695" lon="-1.4548">
        <ele>39</ele>
        <time>2023-11-14T07:43:56Z</time>
      </trkpt>
      <trkpt lat="47.16932" lon="-1.45487">
        <ele>39</ele>
        <time>2023-11-14T07:44:21Z</time>
      </trkpt>
      <trkpt lat="47.16898" lon="-1.45511">
        <ele>39</ele>
        <time>2023-11-14T07:45:11Z</time>
      </trkpt>
      <trkpt lat="47.16862" lon="-1.45525">
        <ele>39</ele>
        <time>2023-11-14T07:46:01Z</time>
      </trkpt>
      <trkpt lat="47.16825" lon="-1.45524">
        <ele>39</ele>
        <time>2023-11-14T07:46:50Z</time>
      </trkpt>
      <trkpt lat="47.16806" lon="-1.4552">
        <ele>38</ele>
        <time>2023-11-14T07:47:16Z</time>
      </trkpt>
      <trkpt lat="47.16788" lon="-1.4552">
        <ele>38</ele>
        <time>2023-11-14T07:47:40Z</time>
      </trkpt>
      <trkpt lat="47.16751" lon="-1.45525">
        <ele>37</ele>
        <time>2023-11-14T07:48:29Z</time>
      </trkpt>
      <trkpt lat="47.16733" lon="-1.45522">
        <ele>37</ele>
        <time>2023-11-14T07:48:53Z</time>
      </trkpt>
      <trkpt lat="47.16699" lon="-1.455">
        <ele>37</ele>
        <time>2023-11-14T07:49:43Z</time>
      </trkpt>
      <trkpt lat="47.16667" lon="-1.45475">
        <ele>37</ele>
        <time>2023-11-14T07:50:31Z</time>
      </trkpt>
      <trkpt lat="47.16635" lon="-1.45446">
        <ele>37</ele>
        <time>2023-11-14T07:51:21Z</time>
      </trkpt>
      <trkpt lat="47.16591" lon="-1.45361">
        <ele>38</ele>
        <time>2023-11-14T07:52:58Z</time>
      </trkpt>
      <trkpt lat="47.16587" lon="-1.45333">
        <ele>39</ele>
        <time>2023-11-14T07:53:24Z</time>
      </trkpt>
      <trkpt lat="47.16576" lon="-1.45311">
        <ele>38</ele>
        <time>2023-11-14T07:53:49Z</time>
      </trkpt>
      <trkpt lat="47.16558" lon="-1.45305">
        <ele>38</ele>
        <time>2023-11-14T07:54:14Z</time>
      </trkpt>
      <trkpt lat="47.1654" lon="-1.45303">
        <ele>37</ele>
        <time>2023-11-14T07:54:38Z</time>
      </trkpt>
      <trkpt lat="47.16502" lon="-1.45304">
        <ele>36</ele>
        <time>2023-11-14T07:55:29Z</time>
      </trkpt>
      <trkpt lat="47.16448" lon="-1.45326">
        <ele>35</ele>
        <time>2023-11-14T07:56:43Z</time>
      </trkpt>
      <trkpt lat="47.16429" lon="-1.45327">
        <ele>35</ele>
        <time>2023-11-14T07:57:09Z</time>
      </trkpt>
      <trkpt lat="47.16427" lon="-1.45354">
        <ele>35</ele>
        <time>2023-11-14T07:57:33Z</time>
      </trkpt>
      <trkpt lat="47.16429" lon="-1.45382">
        <ele>35</ele>
        <time>2023-11-14T07:57:59Z</time>
      </trkpt>
      <trkpt lat="47.16416" lon="-1.45402">
        <ele>35</ele>
        <time>2023-11-14T07:58:24Z</time>
      </trkpt>
      <trkpt lat="47.164" lon="-1.45416">
        <ele>35</ele>
        <time>2023-11-14T07:58:49Z</time>
      </trkpt>
      <trkpt lat="47.16387" lon="-1.45436">
        <ele>34</ele>
        <time>2023-11-14T07:59:14Z</time>
      </trkpt>
      <trkpt lat="47.16369" lon="-1.45441">
        <ele>33</ele>
        <time>2023-11-14T07:59:38Z</time>
      </trkpt>
      <trkpt lat="47.16352" lon="-1.45452">
        <ele>32</ele>
        <time>2023-11-14T08:00:03Z</time>
      </trkpt>
      <trkpt lat="47.16338" lon="-1.45471">
        <ele>31</ele>
        <time>2023-11-14T08:00:29Z</time>
      </trkpt>
      <trkpt lat="47.1633" lon="-1.45496">
        <ele>30</ele>
        <time>2023-11-14T08:00:54Z</time>
      </trkpt>
      <trkpt lat="47.16309" lon="-1.4554">
        <ele>29</ele>
        <time>2023-11-14T08:01:42Z</time>
      </trkpt>
      <trkpt lat="47.16296" lon="-1.4556">
        <ele>28</ele>
        <time>2023-11-14T08:02:08Z</time>
      </trkpt>
      <trkpt lat="47.16253" lon="-1.45611">
        <ele>26</ele>
        <time>2023-11-14T08:03:21Z</time>
      </trkpt>
      <trkpt lat="47.16188" lon="-1.45663">
        <ele>26</ele>
        <time>2023-11-14T08:05:00Z</time>
      </trkpt>
      <trkpt lat="47.16141" lon="-1.45709">
        <ele>26</ele>
        <time>2023-11-14T08:06:15Z</time>
      </trkpt>
      <trkpt lat="47.16086" lon="-1.45719">
        <ele>27</ele>
        <time>2023-11-14T08:07:29Z</time>
      </trkpt>
      <trkpt lat="47.16036" lon="-1.45749">
        <ele>27</ele>
        <time>2023-11-14T08:08:41Z</time>
      </trkpt>
      <trkpt lat="47.16023" lon="-1.45729">
        <ele>27</ele>
        <time>2023-11-14T08:09:06Z</time>
      </trkpt>
      <trkpt lat="47.15999" lon="-1.45656">
        <ele>29</ele>
        <time>2023-11-14T08:10:20Z</time>
      </trkpt>
      <trkpt lat="47.15983" lon="-1.45641">
        <ele>30</ele>
        <time>2023-11-14T08:10:45Z</time>
      </trkpt>
      <trkpt lat="47.15964" lon="-1.45642">
        <ele>29</ele>
        <time>2023-11-14T08:11:11Z</time>
      </trkpt>
      <trkpt lat="47.15947" lon="-1.45651">
        <ele>29</ele>
        <time>2023-11-14T08:11:35Z</time>
      </trkpt>
      <trkpt lat="47.15929" lon="-1.45657">
        <ele>28</ele>
        <time>2023-11-14T08:11:59Z</time>
      </trkpt>
      <trkpt lat="47.15892" lon="-1.4566">
        <ele>28</ele>
        <time>2023-11-14T08:12:49Z</time>
      </trkpt>
      <trkpt lat="47.15837" lon="-1.45652">
        <ele>29</ele>
        <time>2023-11-14T08:14:03Z</time>
      </trkpt>
      <trkpt lat="47.15801" lon="-1.45641">
        <ele>30</ele>
        <time>2023-11-14T08:14:52Z</time>
      </trkpt>
      <trkpt lat="47.1581" lon="-1.45587">
        <ele>30</ele>
        <time>2023-11-14T08:15:42Z</time>
      </trkpt>
      <trkpt lat="47.15809" lon="-1.4556">
        <ele>30</ele>
        <time>2023-11-14T08:16:07Z</time>
      </trkpt>
      <trkpt lat="47.15823" lon="-1.45397">
        <ele>32</ele>
        <time>2023-11-14T08:18:36Z</time>
      </trkpt>
      <trkpt lat="47.15808" lon="-1.45379">
        <ele>31</ele>
        <time>2023-11-14T08:19:02Z</time>
      </trkpt>
      <trkpt lat="47.15771" lon="-1.45378">
        <ele>29</ele>
        <time>2023-11-14T08:19:51Z</time>
      </trkpt>
      <trkpt lat="47.15762" lon="-1.45353">
        <ele>29</ele>
        <time>2023-11-14T08:20:17Z</time>
      </trkpt>
      <trkpt lat="47.15748" lon="-1.45274">
        <ele>27</ele>
        <time>2023-11-14T08:21:31Z</time>
      </trkpt>
      <trkpt lat="47.15723" lon="-1.45171">
        <ele>23</ele>
        <time>2023-11-14T08:23:10Z</time>
      </trkpt>
      <trkpt lat="47.15718" lon="-1.45145">
        <ele>22</ele>
        <time>2023-11-14T08:23:35Z</time>
      </trkpt>
      <trkpt lat="47.15718" lon="-1.45117">
        <ele>22</ele>
        <time>2023-11-14T08:24:00Z</time>
      </trkpt>
      <trkpt lat="47.15713" lon="-1.45091">
        <ele>21</ele>
        <time>2023-11-14T08:24:24Z</time>
      </trkpt>
      <trkpt lat="47.15695" lon="-1.45044">
        <ele>22</ele>
        <time>2023-11-14T08:25:13Z</time>
      </trkpt>
      <trkpt lat="47.1568" lon="-1.45028">
        <ele>22</ele>
        <time>2023-11-14T08:25:38Z</time>
      </trkpt>
      <trkpt lat="47.15662" lon="-1.45031">
        <ele>20</ele>
        <time>2023-11-14T08:26:02Z</time>
      </trkpt>
      <trkpt lat="47.1554" lon="-1.45091">
        <ele>16</ele>
        <time>2023-11-14T08:28:54Z</time>
      </trkpt>
      <trkpt lat="47.15533" lon="-1.45115">
        <ele>16</ele>
        <time>2023-11-14T08:29:18Z</time>
      </trkpt>
      <trkpt lat="47.15543" lon="-1.45168">
        <ele>14</ele>
        <time>2023-11-14T08:30:08Z</time>
      </trkpt>
      <trkpt lat="47.15552" lon="-1.45191">
        <ele>14</ele>
        <time>2023-11-14T08:30:32Z</time>
      </trkpt>
      <trkpt lat="47.15547" lon="-1.45218">
        <ele>14</ele>
        <time>2023-11-14T08:30:57Z</time>
      </trkpt>
      <trkpt lat="47.15531" lon="-1.45233">
        <ele>14</ele>
        <time>2023-11-14T08:31:22Z</time>
      </trkpt>
      <trkpt lat="47.15513" lon="-1.45238">
        <ele>14</ele>
        <time>2023-11-14T08:31:47Z</time>
      </trkpt>
      <trkpt lat="47.15494" lon="-1.45239">
        <ele>13</ele>
        <time>2023-11-14T08:32:12Z</time>
      </trkpt>
      <trkpt lat="47.15456" lon="-1.45234">
        <ele>10</ele>
        <time>2023-11-14T08:33:03Z</time>
      </trkpt>
      <trkpt lat="47.15445" lon="-1.45213">
        <ele>9</ele>
        <time>2023-11-14T08:33:27Z</time>
      </trkpt>
      <trkpt lat="47.15425" lon="-1.45139">
        <ele>9</ele>
        <time>2023-11-14T08:34:39Z</time>
      </trkpt>
      <trkpt lat="47.15415" lon="-1.45114">
        <ele>9</ele>
        <time>2023-11-14T08:35:06Z</time>
      </trkpt>
      <trkpt lat="47.15411" lon="-1.45088">
        <ele>10</ele>
        <time>2023-11-14T08:35:30Z</time>
      </trkpt>
      <trkpt lat="47.15413" lon="-1.45033">
        <ele>11</ele>
        <time>2023-11-14T08:36:20Z</time>
      </trkpt>
      <trkpt lat="47.15421" lon="-1.4498">
        <ele>12</ele>
        <time>2023-11-14T08:37:09Z</time>
      </trkpt>
      <trkpt lat="47.15421" lon="-1.44926">
        <ele>12</ele>
        <time>2023-11-14T08:37:58Z</time>
      </trkpt>
      <trkpt lat="47.15427" lon="-1.44873">
        <ele>12</ele>
        <time>2023-11-14T08:38:47Z</time>
      </trkpt>
      <trkpt lat="47.15418" lon="-1.44791">
        <ele>12</ele>
        <time>2023-11-14T08:40:02Z</time>
      </trkpt>
      <trkpt lat="47.15419" lon="-1.44764">
        <ele>12</ele>
        <time>2023-11-14T08:40:27Z</time>
      </trkpt>
      <trkpt lat="47.15425" lon="-1.44738">
        <ele>13</ele>
        <time>2023-11-14T08:40:52Z</time>
      </trkpt>
      <trkpt lat="47.15424" lon="-1.44711">
        <ele>13</ele>
        <time>2023-11-14T08:41:16Z</time>
      </trkpt>
      <trkpt lat="47.1541" lon="-1.44631">
        <ele>11</ele>
        <time>2023-11-14T08:42:31Z</time>
      </trkpt>
      <trkpt lat="47.15396" lon="-1.44613">
        <ele>10</ele>
        <time>2023-11-14T08:42:56Z</time>
      </trkpt>
      <trkpt lat="47.15379" lon="-1.44604">
        <ele>9</ele>
        <time>2023-11-14T08:43:20Z</time>
      </trkpt>
      <trkpt lat="47.15348" lon="-1.44573">
        <ele>6</ele>
        <time>2023-11-14T08:44:10Z</time>
      </trkpt>
      <trkpt lat="47.153" lon="-1.4449">
        <ele>4</ele>
        <time>2023-11-14T08:45:49Z</time>
      </trkpt>
      <trkpt lat="47.1528" lon="-1.44444">
        <ele>5</ele>
        <time>2023-11-14T08:46:39Z</time>
      </trkpt>
      <trkpt lat="47.15239" lon="-1.4432">
        <ele>7</ele>
        <time>2023-11-14T08:48:44Z</time>
      </trkpt>
      <trkpt lat="47.15226" lon="-1.443">
        <ele>9</ele>
        <time>2023-11-14T08:49:09Z</time>
      </trkpt>
      <trkpt lat="47.15217" lon="-1.44277">
        <ele>11</ele>
        <time>2023-11-14T08:49:33Z</time>
      </trkpt>
      <trkpt lat="47.15226" lon="-1.44253">
        <ele>8</ele>
        <time>2023-11-14T08:49:58Z</time>
      </trkpt>
      <trkpt lat="47.15271" lon="-1.44167">
        <ele>7</ele>
        <time>2023-11-14T08:51:36Z</time>
      </trkpt>
      <trkpt lat="47.1535" lon="-1.44046">
        <ele>8</ele>
        <time>2023-11-14T08:54:09Z</time>
      </trkpt>
      <trkpt lat="47.15367" lon="-1.44053">
        <ele>10</ele>
        <time>2023-11-14T08:54:32Z</time>
      </trkpt>
      <trkpt lat="47.15374" lon="-1.44079">
        <ele>12</ele>
        <time>2023-11-14T08:54:57Z</time>
      </trkpt>
      <trkpt lat="47.15368" lon="-1.44104">
        <ele>12</ele>
        <time>2023-11-14T08:55:22Z</time>
      </trkpt>
      <trkpt lat="47.1538" lon="-1.44082">
        <ele>12</ele>
        <time>2023-11-14T08:55:47Z</time>
      </trkpt>
      <trkpt lat="47.15376" lon="-1.44056">
        <ele>11</ele>
        <time>2023-11-14T08:56:11Z</time>
      </trkpt>
      <trkpt lat="47.15367" lon="-1.44032">
        <ele>9</ele>
        <time>2023-11-14T08:56:36Z</time>
      </trkpt>
      <trkpt lat="47.15354" lon="-1.44013">
        <ele>7</ele>
        <time>2023-11-14T08:57:01Z</time>
      </trkpt>
      <trkpt lat="47.15345" lon="-1.4399">
        <ele>7</ele>
        <time>2023-11-14T08:57:25Z</time>
      </trkpt>
      <trkpt lat="47.15303" lon="-1.43935">
        <ele>10</ele>
        <time>2023-11-14T08:58:40Z</time>
      </trkpt>
      <trkpt lat="47.15291" lon="-1.43915">
        <ele>12</ele>
        <time>2023-11-14T08:59:04Z</time>
      </trkpt>
      <trkpt lat="47.15281" lon="-1.43891">
        <ele>14</ele>
        <time>2023-11-14T08:59:30Z</time>
      </trkpt>
      <trkpt lat="47.15302" lon="-1.43846">
        <ele>12</ele>
        <time>2023-11-14T09:00:19Z</time>
      </trkpt>
      <trkpt lat="47.1531" lon="-1.43794">
        <ele>12</ele>
        <time>2023-11-14T09:01:07Z</time>
      </trkpt>
      <trkpt lat="47.15304" lon="-1.4374">
        <ele>14</ele>
        <time>2023-11-14T09:01:57Z</time>
      </trkpt>
      <trkpt lat="47.15306" lon="-1.43712">
        <ele>13</ele>
        <time>2023-11-14T09:02:23Z</time>
      </trkpt>
      <trkpt lat="47.15311" lon="-1.43687">
        <ele>12</ele>
        <time>2023-11-14T09:02:46Z</time>
      </trkpt>
      <trkpt lat="47.15312" lon="-1.43659">
        <ele>11</ele>
        <time>2023-11-14T09:03:12Z</time>
      </trkpt>
      <trkpt lat="47.15308" lon="-1.43632">
        <ele>11</ele>
        <time>2023-11-14T09:03:37Z</time>
      </trkpt>
      <trkpt lat="47.15311" lon="-1.43577">
        <ele>10</ele>
        <time>2023-11-14T09:04:27Z</time>
      </trkpt>
      <trkpt lat="47.15306" lon="-1.43523">
        <ele>10</ele>
        <time>2023-11-14T09:05:16Z</time>
      </trkpt>
      <trkpt lat="47.15295" lon="-1.43501">
        <ele>12</ele>
        <time>2023-11-14T09:05:41Z</time>
      </trkpt>
      <trkpt lat="47.15287" lon="-1.43476">
        <ele>13</ele>
        <time>2023-11-14T09:06:06Z</time>
      </trkpt>
      <trkpt lat="47.15276" lon="-1.43424">
        <ele>13</ele>
        <time>2023-11-14T09:06:56Z</time>
      </trkpt>
      <trkpt lat="47.15273" lon="-1.43396">
        <ele>14</ele>
        <time>2023-11-14T09:07:21Z</time>
      </trkpt>
      <trkpt lat="47.15278" lon="-1.43342">
        <ele>14</ele>
        <time>2023-11-14T09:08:11Z</time>
      </trkpt>
      <trkpt lat="47.15301" lon="-1.43266">
        <ele>11</ele>
        <time>2023-11-14T09:09:26Z</time>
      </trkpt>
      <trkpt lat="47.15301" lon="-1.43213">
        <ele>12</ele>
        <time>2023-11-14T09:10:14Z</time>
      </trkpt>
      <trkpt lat="47.15296" lon="-1.43187">
        <ele>13</ele>
        <time>2023-11-14T09:10:39Z</time>
      </trkpt>
      <trkpt lat="47.15286" lon="-1.43165">
        <ele>15</ele>
        <time>2023-11-14T09:11:03Z</time>
      </trkpt>
      <trkpt lat="47.15274" lon="-1.43114">
        <ele>18</ele>
        <time>2023-11-14T09:11:52Z</time>
      </trkpt>
      <trkpt lat="47.15259" lon="-1.43064">
        <ele>21</ele>
        <time>2023-11-14T09:12:41Z</time>
      </trkpt>
      <trkpt lat="47.15239" lon="-1.43017">
        <ele>24</ele>
        <time>2023-11-14T09:13:32Z</time>
      </trkpt>
      <trkpt lat="47.15231" lon="-1.42992">
        <ele>25</ele>
        <time>2023-11-14T09:13:57Z</time>
      </trkpt>
      <trkpt lat="47.15246" lon="-1.42976">
        <ele>25</ele>
        <time>2023-11-14T09:14:22Z</time>
      </trkpt>
      <trkpt lat="47.15259" lon="-1.42956">
        <ele>24</ele>
        <time>2023-11-14T09:14:47Z</time>
      </trkpt>
      <trkpt lat="47.15261" lon="-1.42929">
        <ele>24</ele>
        <time>2023-11-14T09:15:11Z</time>
      </trkpt>
      <trkpt lat="47.15251" lon="-1.4282">
        <ele>23</ele>
        <time>2023-11-14T09:16:51Z</time>
      </trkpt>
      <trkpt lat="47.15244" lon="-1.42795">
        <ele>22</ele>
        <time>2023-11-14T09:17:16Z</time>
      </trkpt>
      <trkpt lat="47.15235" lon="-1.42742">
        <ele>22</ele>
        <time>2023-11-14T09:18:05Z</time>
      </trkpt>
      <trkpt lat="47.15231" lon="-1.42688">
        <ele>18</ele>
        <time>2023-11-14T09:18:55Z</time>
      </trkpt>
      <trkpt lat="47.1522" lon="-1.42666">
        <ele>18</ele>
        <time>2023-11-14T09:19:19Z</time>
      </trkpt>
      <trkpt lat="47.15206" lon="-1.42648">
        <ele>18</ele>
        <time>2023-11-14T09:19:44Z</time>
      </trkpt>
      <trkpt lat="47.15178" lon="-1.42578">
        <ele>17</ele>
        <time>2023-11-14T09:20:58Z</time>
      </trkpt>
      <trkpt lat="47.15165" lon="-1.42558">
        <ele>16</ele>
        <time>2023-11-14T09:21:23Z</time>
      </trkpt>
      <trkpt lat="47.15149" lon="-1.42541">
        <ele>16</ele>
        <time>2023-11-14T09:21:49Z</time>
      </trkpt>
      <trkpt lat="47.15101" lon="-1.42455">
        <ele>18</ele>
        <time>2023-11-14T09:23:30Z</time>
      </trkpt>
      <trkpt lat="47.15086" lon="-1.42405">
        <ele>16</ele>
        <time>2023-11-14T09:24:20Z</time>
      </trkpt>
      <trkpt lat="47.15057" lon="-1.42371">
        <ele>15</ele>
        <time>2023-11-14T09:25:09Z</time>
      </trkpt>
      <trkpt lat="47.15007" lon="-1.42333">
        <ele>15</ele>
        <time>2023-11-14T09:26:25Z</time>
      </trkpt>
      <trkpt lat="47.14954" lon="-1.42307">
        <ele>14</ele>
        <time>2023-11-14T09:27:39Z</time>
      </trkpt>
      <trkpt lat="47.14936" lon="-1.42301">
        <ele>14</ele>
        <time>2023-11-14T09:28:04Z</time>
      </trkpt>
      <trkpt lat="47.14898" lon="-1.42294">
        <ele>13</ele>
        <time>2023-11-14T09:28:55Z</time>
      </trkpt>
      <trkpt lat="47.14879" lon="-1.42296">
        <ele>14</ele>
        <time>2023-11-14T09:29:20Z</time>
      </trkpt>
      <trkpt lat="47.14826" lon="-1.42277">
        <ele>12</ele>
        <time>2023-11-14T09:30:33Z</time>
      </trkpt>
      <trkpt lat="47.14775" lon="-1.42242">
        <ele>9</ele>
        <time>2023-11-14T09:31:48Z</time>
      </trkpt>
      <trkpt lat="47.14762" lon="-1.42224">
        <ele>8</ele>
        <time>2023-11-14T09:32:12Z</time>
      </trkpt>
      <trkpt lat="47.14746" lon="-1.4221">
        <ele>7</ele>
        <time>2023-11-14T09:32:37Z</time>
      </trkpt>
      <trkpt lat="47.14718" lon="-1.42176">
        <ele>8</ele>
        <time>2023-11-14T09:33:25Z</time>
      </trkpt>
      <trkpt lat="47.14702" lon="-1.42163">
        <ele>8</ele>
        <time>2023-11-14T09:33:50Z</time>
      </trkpt>
      <trkpt lat="47.14685" lon="-1.42154">
        <ele>9</ele>
        <time>2023-11-14T09:34:14Z</time>
      </trkpt>
      <trkpt lat="47.14649" lon="-1.4217">
        <ele>13</ele>
        <time>2023-11-14T09:35:04Z</time>
      </trkpt>
      <trkpt lat="47.1463" lon="-1.42169">
        <ele>15</ele>
        <time>2023-11-14T09:35:29Z</time>
      </trkpt>
      <trkpt lat="47.14587" lon="-1.4199">
        <ele>16</ele>
        <time>2023-11-14T09:38:22Z</time>
      </trkpt>
      <trkpt lat="47.14568" lon="-1.41944">
        <ele>19</ele>
        <time>2023-11-14T09:39:10Z</time>
      </trkpt>
      <trkpt lat="47.14553" lon="-1.41894">
        <ele>21</ele>
        <time>2023-11-14T09:40:00Z</time>
      </trkpt>
      <trkpt lat="47.14543" lon="-1.41872">
        <ele>24</ele>
        <time>2023-11-14T09:40:24Z</time>
      </trkpt>
      <trkpt lat="47.14544" lon="-1.41846">
        <ele>23</ele>
        <time>2023-11-14T09:40:48Z</time>
      </trkpt>
      <trkpt lat="47.14566" lon="-1.41684">
        <ele>26</ele>
        <time>2023-11-14T09:43:18Z</time>
      </trkpt>
      <trkpt lat="47.14589" lon="-1.41551">
        <ele>30</ele>
        <time>2023-11-14T09:45:22Z</time>
      </trkpt>
      <trkpt lat="47.14605" lon="-1.4154">
        <ele>29</ele>
        <time>2023-11-14T09:45:46Z</time>
      </trkpt>
      <trkpt lat="47.14624" lon="-1.41545">
        <ele>26</ele>
        <time>2023-11-14T09:46:12Z</time>
      </trkpt>
      <trkpt lat="47.14642" lon="-1.41542">
        <ele>24</ele>
        <time>2023-11-14T09:46:36Z</time>
      </trkpt>
      <trkpt lat="47.14657" lon="-1.41525">
        <ele>23</ele>
        <time>2023-11-14T09:47:01Z</time>
      </trkpt>
      <trkpt lat="47.14702" lon="-1.41436">
        <ele>26</ele>
        <time>2023-11-14T09:48:42Z</time>
      </trkpt>
      <trkpt lat="47.14732" lon="-1.41368">
        <ele>27</ele>
        <time>2023-11-14T09:49:55Z</time>
      </trkpt>
      <trkpt lat="47.14734" lon="-1.41341">
        <ele>27</ele>
        <time>2023-11-14T09:50:20Z</time>
      </trkpt>
      <trkpt lat="47.14716" lon="-1.41333">
        <ele>28</ele>
        <time>2023-11-14T09:50:45Z</time>
      </trkpt>
      <trkpt lat="47.14708" lon="-1.41308">
        <ele>29</ele>
        <time>2023-11-14T09:51:10Z</time>
      </trkpt>
      <trkpt lat="47.14716" lon="-1.41256">
        <ele>28</ele>
        <time>2023-11-14T09:51:58Z</time>
      </trkpt>
      <trkpt lat="47.14728" lon="-1.41234">
        <ele>28</ele>
        <time>2023-11-14T09:52:24Z</time>
      </trkpt>
      <trkpt lat="47.14746" lon="-1.41226">
        <ele>27</ele>
        <time>2023-11-14T09:52:49Z</time>
      </trkpt>
      <trkpt lat="47.14818" lon="-1.41266">
        <ele>28</ele>
        <time>2023-11-14T09:54:32Z</time>
      </trkpt>
      <trkpt lat="47.14832" lon="-1.41284">
        <ele>28</ele>
        <time>2023-11-14T09:54:57Z</time>
      </trkpt>
      <trkpt lat="47.14851" lon="-1.4133">
        <ele>27</ele>
        <time>2023-11-14T09:55:45Z</time>
      </trkpt>
      <trkpt lat="47.14876" lon="-1.41369">
        <ele>26</ele>
        <time>2023-11-14T09:56:34Z</time>
      </trkpt>
      <trkpt lat="47.14881" lon="-1.41396">
        <ele>23</ele>
        <time>2023-11-14T09:57:00Z</time>
      </trkpt>
      <trkpt lat="47.14891" lon="-1.41421">
        <ele>21</ele>
        <time>2023-11-14T09:57:26Z</time>
      </trkpt>
      <trkpt lat="47.14905" lon="-1.41439">
        <ele>19</ele>
        <time>2023-11-14T09:57:51Z</time>
      </trkpt>
      <trkpt lat="47.14922" lon="-1.41453">
        <ele>17</ele>
        <time>2023-11-14T09:58:17Z</time>
      </trkpt>
      <trkpt lat="47.14934" lon="-1.41473">
        <ele>15</ele>
        <time>2023-11-14T09:58:41Z</time>
      </trkpt>
      <trkpt lat="47.14953" lon="-1.41474">
        <ele>15</ele>
        <time>2023-11-14T09:59:06Z</time>
      </trkpt>
      <trkpt lat="47.1497" lon="-1.41468">
        <ele>15</ele>
        <time>2023-11-14T09:59:30Z</time>
      </trkpt>
      <trkpt lat="47.14983" lon="-1.41448">
        <ele>17</ele>
        <time>2023-11-14T09:59:55Z</time>
      </trkpt>
      <trkpt lat="47.14994" lon="-1.41425">
        <ele>19</ele>
        <time>2023-11-14T10:00:20Z</time>
      </trkpt>
      <trkpt lat="47.15022" lon="-1.41391">
        <ele>19</ele>
        <time>2023-11-14T10:01:09Z</time>
      </trkpt>
      <trkpt lat="47.15034" lon="-1.41371">
        <ele>20</ele>
        <time>2023-11-14T10:01:33Z</time>
      </trkpt>
      <trkpt lat="47.15068" lon="-1.41347">
        <ele>18</ele>
        <time>2023-11-14T10:02:23Z</time>
      </trkpt>
      <trkpt lat="47.15087" lon="-1.4134">
        <ele>16</ele>
        <time>2023-11-14T10:02:49Z</time>
      </trkpt>
      <trkpt lat="47.15102" lon="-1.41326">
        <ele>16</ele>
        <time>2023-11-14T10:03:13Z</time>
      </trkpt>
      <trkpt lat="47.15128" lon="-1.41288">
        <ele>17</ele>
        <time>2023-11-14T10:04:02Z</time>
      </trkpt>
      <trkpt lat="47.15144" lon="-1.41273">
        <ele>15</ele>
        <time>2023-11-14T10:04:27Z</time>
      </trkpt>
      <trkpt lat="47.15162" lon="-1.41269">
        <ele>12</ele>
        <time>2023-11-14T10:04:52Z</time>
      </trkpt>
      <trkpt lat="47.15198" lon="-1.41251">
        <ele>11</ele>
        <time>2023-11-14T10:05:42Z</time>
      </trkpt>
      <trkpt lat="47.15216" lon="-1.41254">
        <ele>11</ele>
        <time>2023-11-14T10:06:06Z</time>
      </trkpt>
      <trkpt lat="47.15226" lon="-1.41201">
        <ele>13</ele>
        <time>2023-11-14T10:06:56Z</time>
      </trkpt>
      <trkpt lat="47.15214" lon="-1.41151">
        <ele>18</ele>
        <time>2023-11-14T10:07:45Z</time>
      </trkpt>
      <trkpt lat="47.15211" lon="-1.41124">
        <ele>19</ele>
        <time>2023-11-14T10:08:09Z</time>
      </trkpt>
      <trkpt lat="47.15212" lon="-1.41097">
        <ele>20</ele>
        <time>2023-11-14T10:08:34Z</time>
      </trkpt>
      <trkpt lat="47.15206" lon="-1.41043">
        <ele>19</ele>
        <time>2023-11-14T10:09:24Z</time>
      </trkpt>
      <trkpt lat="47.15188" lon="-1.41037">
        <ele>21</ele>
        <time>2023-11-14T10:09:48Z</time>
      </trkpt>
      <trkpt lat="47.1517" lon="-1.41042">
        <ele>23</ele>
        <time>2023-11-14T10:10:13Z</time>
      </trkpt>
      <trkpt lat="47.15136" lon="-1.4106">
        <ele>28</ele>
        <time>2023-11-14T10:11:01Z</time>
      </trkpt>
      <trkpt lat="47.15118" lon="-1.41054">
        <ele>29</ele>
        <time>2023-11-14T10:11:25Z</time>
      </trkpt>
      <trkpt lat="47.15082" lon="-1.41047">
        <ele>32</ele>
        <time>2023-11-14T10:12:14Z</time>
      </trkpt>
      <trkpt lat="47.15046" lon="-1.41029">
        <ele>33</ele>
        <time>2023-11-14T10:13:05Z</time>
      </trkpt>
      <trkpt lat="47.14973" lon="-1.41014">
        <ele>38</ele>
        <time>2023-11-14T10:14:43Z</time>
      </trkpt>
      <trkpt lat="47.14956" lon="-1.41">
        <ele>39</ele>
        <time>2023-11-14T10:15:09Z</time>
      </trkpt>
      <trkpt lat="47.14914" lon="-1.40948">
        <ele>36</ele>
        <time>2023-11-14T10:16:22Z</time>
      </trkpt>
      <trkpt lat="47.14867" lon="-1.40905">
        <ele>38</ele>
        <time>2023-11-14T10:17:36Z</time>
      </trkpt>
      <trkpt lat="47.14842" lon="-1.40865">
        <ele>37</ele>
        <time>2023-11-14T10:18:25Z</time>
      </trkpt>
      <trkpt lat="47.14827" lon="-1.40848">
        <ele>37</ele>
        <time>2023-11-14T10:18:51Z</time>
      </trkpt>
      <trkpt lat="47.14809" lon="-1.4084">
        <ele>38</ele>
        <time>2023-11-14T10:19:16Z</time>
      </trkpt>
      <trkpt lat="47.14793" lon="-1.40825">
        <ele>39</ele>
        <time>2023-11-14T10:19:41Z</time>
      </trkpt>
      <trkpt lat="47.14779" lon="-1.40804">
        <ele>39</ele>
        <time>2023-11-14T10:20:08Z</time>
      </trkpt>
      <trkpt lat="47.14769" lon="-1.40782">
        <ele>38</ele>
        <time>2023-11-14T10:20:32Z</time>
      </trkpt>
      <trkpt lat="47.14745" lon="-1.40741">
        <ele>40</ele>
        <time>2023-11-14T10:21:21Z</time>
      </trkpt>
      <trkpt lat="47.14737" lon="-1.40717">
        <ele>39</ele>
        <time>2023-11-14T10:21:45Z</time>
      </trkpt>
      <trkpt lat="47.14715" lon="-1.40642">
        <ele>36</ele>
        <time>2023-11-14T10:22:59Z</time>
      </trkpt>
      <trkpt lat="47.14708" lon="-1.40589">
        <ele>33</ele>
        <time>2023-11-14T10:23:48Z</time>
      </trkpt>
      <trkpt lat="47.14697" lon="-1.40536">
        <ele>35</ele>
        <time>2023-11-14T10:24:39Z</time>
      </trkpt>
      <trkpt lat="47.14691" lon="-1.40483">
        <ele>35</ele>
        <time>2023-11-14T10:25:27Z</time>
      </trkpt>
      <trkpt lat="47.14694" lon="-1.40401">
        <ele>33</ele>
        <time>2023-11-14T10:26:42Z</time>
      </trkpt>
      <trkpt lat="47.14715" lon="-1.40325">
        <ele>28</ele>
        <time>2023-11-14T10:27:56Z</time>
      </trkpt>
      <trkpt lat="47.14723" lon="-1.40273">
        <ele>28</ele>
        <time>2023-11-14T10:28:45Z</time>
      </trkpt>
      <trkpt lat="47.1472" lon="-1.40218">
        <ele>27</ele>
        <time>2023-11-14T10:29:35Z</time>
      </trkpt>
      <trkpt lat="47.14722" lon="-1.4019">
        <ele>25</ele>
        <time>2023-11-14T10:30:00Z</time>
      </trkpt>
      <trkpt lat="47.14727" lon="-1.40164">
        <ele>23</ele>
        <time>2023-11-14T10:30:25Z</time>
      </trkpt>
      <trkpt lat="47.14742" lon="-1.4015">
        <ele>22</ele>
        <time>2023-11-14T10:30:49Z</time>
      </trkpt>
      <trkpt lat="47.14762" lon="-1.40145">
        <ele>19</ele>
        <time>2023-11-14T10:31:16Z</time>
      </trkpt>
      <trkpt lat="47.1478" lon="-1.40151">
        <ele>17</ele>
        <time>2023-11-14T10:31:40Z</time>
      </trkpt>
      <trkpt lat="47.14784" lon="-1.40123">
        <ele>16</ele>
        <time>2023-11-14T10:32:06Z</time>
      </trkpt>
      <trkpt lat="47.14797" lon="-1.40104">
        <ele>15</ele>
        <time>2023-11-14T10:32:31Z</time>
      </trkpt>
      <trkpt lat="47.14813" lon="-1.4009">
        <ele>13</ele>
        <time>2023-11-14T10:32:56Z</time>
      </trkpt>
      <trkpt lat="47.14831" lon="-1.40082">
        <ele>11</ele>
        <time>2023-11-14T10:33:21Z</time>
      </trkpt>
      <trkpt lat="47.1484" lon="-1.40059">
        <ele>11</ele>
        <time>2023-11-14T10:33:45Z</time>
      </trkpt>
      <trkpt lat="47.14834" lon="-1.39977">
        <ele>12</ele>
        <time>2023-11-14T10:35:00Z</time>
      </trkpt>
      <trkpt lat="47.14829" lon="-1.3995">
        <ele>12</ele>
        <time>2023-11-14T10:35:25Z</time>
      </trkpt>
      <trkpt lat="47.14819" lon="-1.39929">
        <ele>13</ele>
        <time>2023-11-14T10:35:48Z</time>
      </trkpt>
      <trkpt lat="47.148" lon="-1.39926">
        <ele>15</ele>
        <time>2023-11-14T10:36:14Z</time>
      </trkpt>
      <trkpt lat="47.14787" lon="-1.39819">
        <ele>16</ele>
        <time>2023-11-14T10:37:52Z</time>
      </trkpt>
      <trkpt lat="47.14773" lon="-1.39738">
        <ele>16</ele>
        <time>2023-11-14T10:39:08Z</time>
      </trkpt>
      <trkpt lat="47.14755" lon="-1.39736">
        <ele>18</ele>
        <time>2023-11-14T10:39:32Z</time>
      </trkpt>
      <trkpt lat="47.14684" lon="-1.39765">
        <ele>22</ele>
        <time>2023-11-14T10:41:11Z</time>
      </trkpt>
      <trkpt lat="47.14668" lon="-1.39781">
        <ele>24</ele>
        <time>2023-11-14T10:41:37Z</time>
      </trkpt>
      <trkpt lat="47.14646" lon="-1.39824">
        <ele>25</ele>
        <time>2023-11-14T10:42:25Z</time>
      </trkpt>
      <trkpt lat="47.14631" lon="-1.39839">
        <ele>25</ele>
        <time>2023-11-14T10:42:50Z</time>
      </trkpt>
      <trkpt lat="47.14618" lon="-1.39859">
        <ele>26</ele>
        <time>2023-11-14T10:43:15Z</time>
      </trkpt>
      <trkpt lat="47.14557" lon="-1.3992">
        <ele>29</ele>
        <time>2023-11-14T10:44:53Z</time>
      </trkpt>
      <trkpt lat="47.14532" lon="-1.3996">
        <ele>32</ele>
        <time>2023-11-14T10:45:42Z</time>
      </trkpt>
      <trkpt lat="47.14516" lon="-1.39973">
        <ele>33</ele>
        <time>2023-11-14T10:46:07Z</time>
      </trkpt>
      <trkpt lat="47.14498" lon="-1.39984">
        <ele>34</ele>
        <time>2023-11-14T10:46:33Z</time>
      </trkpt>
      <trkpt lat="47.1448" lon="-1.39989">
        <ele>34</ele>
        <time>2023-11-14T10:46:57Z</time>
      </trkpt>
      <trkpt lat="47.14425" lon="-1.39995">
        <ele>33</ele>
        <time>2023-11-14T10:48:11Z</time>
      </trkpt>
      <trkpt lat="47.14409" lon="-1.39982">
        <ele>31</ele>
        <time>2023-11-14T10:48:35Z</time>
      </trkpt>
      <trkpt lat="47.14373" lon="-1.39965">
        <ele>29</ele>
        <time>2023-11-14T10:49:26Z</time>
      </trkpt>
      <trkpt lat="47.14354" lon="-1.39963">
        <ele>28</ele>
        <time>2023-11-14T10:49:51Z</time>
      </trkpt>
      <trkpt lat="47.14336" lon="-1.39958">
        <ele>27</ele>
        <time>2023-11-14T10:50:16Z</time>
      </trkpt>
      <trkpt lat="47.14318" lon="-1.39949">
        <ele>28</ele>
        <time>2023-11-14T10:50:41Z</time>
      </trkpt>
      <trkpt lat="47.143" lon="-1.39944">
        <ele>29</ele>
        <time>2023-11-14T10:51:05Z</time>
      </trkpt>
      <trkpt lat="47.14281" lon="-1.39949">
        <ele>31</ele>
        <time>2023-11-14T10:51:31Z</time>
      </trkpt>
      <trkpt lat="47.14267" lon="-1.39966">
        <ele>33</ele>
        <time>2023-11-14T10:51:55Z</time>
      </trkpt>
      <trkpt lat="47.14249" lon="-1.39973">
        <ele>34</ele>
        <time>2023-11-14T10:52:20Z</time>
      </trkpt>
      <trkpt lat="47.14231" lon="-1.39965">
        <ele>34</ele>
        <time>2023-11-14T10:52:45Z</time>
      </trkpt>
      <trkpt lat="47.14211" lon="-1.39918">
        <ele>32</ele>
        <time>2023-11-14T10:53:36Z</time>
      </trkpt>
      <trkpt lat="47.14195" lon="-1.39902">
        <ele>31</ele>
        <time>2023-11-14T10:54:02Z</time>
      </trkpt>
      <trkpt lat="47.14161" lon="-1.39878">
        <ele>31</ele>
        <time>2023-11-14T10:54:52Z</time>
      </trkpt>
      <trkpt lat="47.14147" lon="-1.39861">
        <ele>31</ele>
        <time>2023-11-14T10:55:16Z</time>
      </trkpt>
      <trkpt lat="47.1413" lon="-1.39813">
        <ele>29</ele>
        <time>2023-11-14T10:56:05Z</time>
      </trkpt>
      <trkpt lat="47.14117" lon="-1.39762">
        <ele>28</ele>
        <time>2023-11-14T10:56:55Z</time>
      </trkpt>
      <trkpt lat="47.14123" lon="-1.39736">
        <ele>26</ele>
        <time>2023-11-14T10:57:20Z</time>
      </trkpt>
      <trkpt lat="47.14123" lon="-1.39709">
        <ele>24</ele>
        <time>2023-11-14T10:57:44Z</time>
      </trkpt>
      <trkpt lat="47.14112" lon="-1.39657">
        <ele>23</ele>
        <time>2023-11-14T10:58:33Z</time>
      </trkpt>
      <trkpt lat="47.14127" lon="-1.39643">
        <ele>21</ele>
        <time>2023-11-14T10:58:57Z</time>
      </trkpt>
      <trkpt lat="47.14145" lon="-1.39637">
        <ele>20</ele>
        <time>2023-11-14T10:59:22Z</time>
      </trkpt>
      <trkpt lat="47.14199" lon="-1.39623">
        <ele>15</ele>
        <time>2023-11-14T11:00:35Z</time>
      </trkpt>
      <trkpt lat="47.14236" lon="-1.39621">
        <ele>11</ele>
        <time>2023-11-14T11:01:24Z</time>
      </trkpt>
      <trkpt lat="47.14248" lon="-1.396">
        <ele>11</ele>
        <time>2023-11-14T11:01:49Z</time>
      </trkpt>
      <trkpt lat="47.14263" lon="-1.39585">
        <ele>10</ele>
        <time>2023-11-14T11:02:14Z</time>
      </trkpt>
      <trkpt lat="47.14281" lon="-1.39579">
        <ele>9</ele>
        <time>2023-11-14T11:02:38Z</time>
      </trkpt>
      <trkpt lat="47.14297" lon="-1.39569">
        <ele>8</ele>
        <time>2023-11-14T11:03:01Z</time>
      </trkpt>
      <trkpt lat="47.14305" lon="-1.39543">
        <ele>8</ele>
        <time>2023-11-14T11:03:27Z</time>
      </trkpt>
      <trkpt lat="47.14316" lon="-1.39461">
        <ele>9</ele>
        <time>2023-11-14T11:04:43Z</time>
      </trkpt>
      <trkpt lat="47.14322" lon="-1.39379">
        <ele>9</ele>
        <time>2023-11-14T11:05:58Z</time>
      </trkpt>
      <trkpt lat="47.1432" lon="-1.39324">
        <ele>10</ele>
        <time>2023-11-14T11:06:48Z</time>
      </trkpt>
      <trkpt lat="47.14311" lon="-1.393">
        <ele>10</ele>
        <time>2023-11-14T11:07:13Z</time>
      </trkpt>
      <trkpt lat="47.14324" lon="-1.39281">
        <ele>10</ele>
        <time>2023-11-14T11:07:37Z</time>
      </trkpt>
      <trkpt lat="47.14305" lon="-1.39234">
        <ele>11</ele>
        <time>2023-11-14T11:08:27Z</time>
      </trkpt>
      <trkpt lat="47.14256" lon="-1.3915">
        <ele>14</ele>
        <time>2023-11-14T11:10:07Z</time>
      </trkpt>
      <trkpt lat="47.14217" lon="-1.39094">
        <ele>17</ele>
        <time>2023-11-14T11:11:20Z</time>
      </trkpt>
      <trkpt lat="47.14202" lon="-1.39077">
        <ele>19</ele>
        <time>2023-11-14T11:11:45Z</time>
      </trkpt>
      <trkpt lat="47.14181" lon="-1.39034">
        <ele>20</ele>
        <time>2023-11-14T11:12:33Z</time>
      </trkpt>
      <trkpt lat="47.14157" lon="-1.38992">
        <ele>19</ele>
        <time>2023-11-14T11:13:23Z</time>
      </trkpt>
      <trkpt lat="47.14143" lon="-1.38973">
        <ele>19</ele>
        <time>2023-11-14T11:13:49Z</time>
      </trkpt>
      <trkpt lat="47.14137" lon="-1.38948">
        <ele>18</ele>
        <time>2023-11-14T11:14:13Z</time>
      </trkpt>
      <trkpt lat="47.14154" lon="-1.38957">
        <ele>16</ele>
        <time>2023-11-14T11:14:37Z</time>
      </trkpt>
      <trkpt lat="47.14162" lon="-1.38932">
        <ele>12</ele>
        <time>2023-11-14T11:15:02Z</time>
      </trkpt>
      <trkpt lat="47.14174" lon="-1.3891">
        <ele>9</ele>
        <time>2023-11-14T11:15:27Z</time>
      </trkpt>
      <trkpt lat="47.14183" lon="-1.38887">
        <ele>8</ele>
        <time>2023-11-14T11:15:52Z</time>
      </trkpt>
      <trkpt lat="47.14188" lon="-1.38831">
        <ele>6</ele>
        <time>2023-11-14T11:16:43Z</time>
      </trkpt>
      <trkpt lat="47.14179" lon="-1.38806">
        <ele>6</ele>
        <time>2023-11-14T11:17:09Z</time>
      </trkpt>
      <trkpt lat="47.14166" lon="-1.38789">
        <ele>6</ele>
        <time>2023-11-14T11:17:32Z</time>
      </trkpt>
      <trkpt lat="47.14155" lon="-1.38767">
        <ele>8</ele>
        <time>2023-11-14T11:17:57Z</time>
      </trkpt>
      <trkpt lat="47.1415" lon="-1.38714">
        <ele>10</ele>
        <time>2023-11-14T11:18:45Z</time>
      </trkpt>
      <trkpt lat="47.14154" lon="-1.38687">
        <ele>10</ele>
        <time>2023-11-14T11:19:10Z</time>
      </trkpt>
      <trkpt lat="47.14168" lon="-1.38636">
        <ele>9</ele>
        <time>2023-11-14T11:20:00Z</time>
      </trkpt>
      <trkpt lat="47.14172" lon="-1.3861">
        <ele>10</ele>
        <time>2023-11-14T11:20:24Z</time>
      </trkpt>
      <trkpt lat="47.14213" lon="-1.38552">
        <ele>9</ele>
        <time>2023-11-14T11:21:40Z</time>
      </trkpt>
      <trkpt lat="47.14228" lon="-1.38536">
        <ele>9</ele>
        <time>2023-11-14T11:22:05Z</time>
      </trkpt>
      <trkpt lat="47.14248" lon="-1.38534">
        <ele>7</ele>
        <time>2023-11-14T11:22:32Z</time>
      </trkpt>
      <trkpt lat="47.14266" lon="-1.38525">
        <ele>8</ele>
        <time>2023-11-14T11:22:57Z</time>
      </trkpt>
      <trkpt lat="47.14288" lon="-1.38483">
        <ele>9</ele>
        <time>2023-11-14T11:23:45Z</time>
      </trkpt>
      <trkpt lat="47.14298" lon="-1.38458">
        <ele>9</ele>
        <time>2023-11-14T11:24:12Z</time>
      </trkpt>
      <trkpt lat="47.14314" lon="-1.38381">
        <ele>9</ele>
        <time>2023-11-14T11:25:25Z</time>
      </trkpt>
      <trkpt lat="47.14326" lon="-1.38357">
        <ele>8</ele>
        <time>2023-11-14T11:25:52Z</time>
      </trkpt>
      <trkpt lat="47.14341" lon="-1.38308">
        <ele>9</ele>
        <time>2023-11-14T11:26:40Z</time>
      </trkpt>
      <trkpt lat="47.14344" lon="-1.38282">
        <ele>9</ele>
        <time>2023-11-14T11:27:04Z</time>
      </trkpt>
      <trkpt lat="47.14363" lon="-1.38235">
        <ele>9</ele>
        <time>2023-11-14T11:27:54Z</time>
      </trkpt>
      <trkpt lat="47.14374" lon="-1.38183">
        <ele>11</ele>
        <time>2023-11-14T11:28:43Z</time>
      </trkpt>
      <trkpt lat="47.14399" lon="-1.38143">
        <ele>10</ele>
        <time>2023-11-14T11:29:33Z</time>
      </trkpt>
      <trkpt lat="47.1444" lon="-1.38087">
        <ele>10</ele>
        <time>2023-11-14T11:30:47Z</time>
      </trkpt>
      <trkpt lat="47.14452" lon="-1.38065">
        <ele>10</ele>
        <time>2023-11-14T11:31:13Z</time>
      </trkpt>
      <trkpt lat="47.14467" lon="-1.38048">
        <ele>10</ele>
        <time>2023-11-14T11:31:38Z</time>
      </trkpt>
      <trkpt lat="47.14475" lon="-1.38023">
        <ele>10</ele>
        <time>2023-11-14T11:32:03Z</time>
      </trkpt>
      <trkpt lat="47.14478" lon="-1.37998">
        <ele>9</ele>
        <time>2023-11-14T11:32:26Z</time>
      </trkpt>
      <trkpt lat="47.14459" lon="-1.37951">
        <ele>9</ele>
        <time>2023-11-14T11:33:16Z</time>
      </trkpt>
      <trkpt lat="47.14447" lon="-1.37897">
        <ele>9</ele>
        <time>2023-11-14T11:34:08Z</time>
      </trkpt>
      <trkpt lat="47.14429" lon="-1.37847">
        <ele>10</ele>
        <time>2023-11-14T11:34:59Z</time>
      </trkpt>
      <trkpt lat="47.14429" lon="-1.3782">
        <ele>9</ele>
        <time>2023-11-14T11:35:23Z</time>
      </trkpt>
      <trkpt lat="47.14424" lon="-1.37793">
        <ele>9</ele>
        <time>2023-11-14T11:35:49Z</time>
      </trkpt>
      <trkpt lat="47.14415" lon="-1.37767">
        <ele>8</ele>
        <time>2023-11-14T11:36:15Z</time>
      </trkpt>
      <trkpt lat="47.14411" lon="-1.37741">
        <ele>7</ele>
        <time>2023-11-14T11:36:39Z</time>
      </trkpt>
      <trkpt lat="47.14402" lon="-1.37718">
        <ele>7</ele>
        <time>2023-11-14T11:37:04Z</time>
      </trkpt>
      <trkpt lat="47.14399" lon="-1.37691">
        <ele>7</ele>
        <time>2023-11-14T11:37:28Z</time>
      </trkpt>
      <trkpt lat="47.14387" lon="-1.3764">
        <ele>7</ele>
        <time>2023-11-14T11:38:17Z</time>
      </trkpt>
      <trkpt lat="47.14366" lon="-1.37595">
        <ele>7</ele>
        <time>2023-11-14T11:39:07Z</time>
      </trkpt>
      <trkpt lat="47.1434" lon="-1.37465">
        <ele>8</ele>
        <time>2023-11-14T11:41:10Z</time>
      </trkpt>
      <trkpt lat="47.14319" lon="-1.37389">
        <ele>10</ele>
        <time>2023-11-14T11:42:24Z</time>
      </trkpt>
      <trkpt lat="47.14308" lon="-1.37366">
        <ele>11</ele>
        <time>2023-11-14T11:42:50Z</time>
      </trkpt>
      <trkpt lat="47.1428" lon="-1.3733">
        <ele>11</ele>
        <time>2023-11-14T11:43:40Z</time>
      </trkpt>
      <trkpt lat="47.14235" lon="-1.37283">
        <ele>10</ele>
        <time>2023-11-14T11:44:53Z</time>
      </trkpt>
      <trkpt lat="47.14216" lon="-1.37279">
        <ele>10</ele>
        <time>2023-11-14T11:45:19Z</time>
      </trkpt>
      <trkpt lat="47.14197" lon="-1.37285">
        <ele>9</ele>
        <time>2023-11-14T11:45:45Z</time>
      </trkpt>
      <trkpt lat="47.1416" lon="-1.37286">
        <ele>9</ele>
        <time>2023-11-14T11:46:34Z</time>
      </trkpt>
      <trkpt lat="47.14121" lon="-1.37291">
        <ele>10</ele>
        <time>2023-11-14T11:47:26Z</time>
      </trkpt>
      <trkpt lat="47.14083" lon="-1.37288">
        <ele>10</ele>
        <time>2023-11-14T11:48:17Z</time>
      </trkpt>
      <trkpt lat="47.14044" lon="-1.37291">
        <ele>14</ele>
        <time>2023-11-14T11:49:09Z</time>
      </trkpt>
      <trkpt lat="47.14025" lon="-1.37287">
        <ele>16</ele>
        <time>2023-11-14T11:49:35Z</time>
      </trkpt>
      <trkpt lat="47.1401" lon="-1.37273">
        <ele>17</ele>
        <time>2023-11-14T11:49:59Z</time>
      </trkpt>
      <trkpt lat="47.13996" lon="-1.37255">
        <ele>16</ele>
        <time>2023-11-14T11:50:23Z</time>
      </trkpt>
      <trkpt lat="47.13978" lon="-1.37246">
        <ele>16</ele>
        <time>2023-11-14T11:50:49Z</time>
      </trkpt>
      <trkpt lat="47.13965" lon="-1.37227">
        <ele>16</ele>
        <time>2023-11-14T11:51:13Z</time>
      </trkpt>
      <trkpt lat="47.13968" lon="-1.372">
        <ele>15</ele>
        <time>2023-11-14T11:51:38Z</time>
      </trkpt>
      <trkpt lat="47.13965" lon="-1.37173">
        <ele>15</ele>
        <time>2023-11-14T11:52:03Z</time>
      </trkpt>
      <trkpt lat="47.13961" lon="-1.37147">
        <ele>14</ele>
        <time>2023-11-14T11:52:27Z</time>
      </trkpt>
      <trkpt lat="47.13953" lon="-1.37121">
        <ele>13</ele>
        <time>2023-11-14T11:52:53Z</time>
      </trkpt>
      <trkpt lat="47.13943" lon="-1.37097">
        <ele>12</ele>
        <time>2023-11-14T11:53:19Z</time>
      </trkpt>
      <trkpt lat="47.13931" lon="-1.37076">
        <ele>12</ele>
        <time>2023-11-14T11:53:43Z</time>
      </trkpt>
      <trkpt lat="47.13906" lon="-1.37036">
        <ele>14</ele>
        <time>2023-11-14T11:54:33Z</time>
      </trkpt>
      <trkpt lat="47.13891" lon="-1.37021">
        <ele>16</ele>
        <time>2023-11-14T11:54:57Z</time>
      </trkpt>
      <trkpt lat="47.1388" lon="-1.36999">
        <ele>17</ele>
        <time>2023-11-14T11:55:22Z</time>
      </trkpt>
      <trkpt lat="47.13858" lon="-1.36924">
        <ele>17</ele>
        <time>2023-11-14T11:56:36Z</time>
      </trkpt>
      <trkpt lat="47.13853" lon="-1.36897">
        <ele>16</ele>
        <time>2023-11-14T11:57:01Z</time>
      </trkpt>
      <trkpt lat="47.13819" lon="-1.36833">
        <ele>15</ele>
        <time>2023-11-14T11:58:15Z</time>
      </trkpt>
      <trkpt lat="47.13789" lon="-1.36801">
        <ele>18</ele>
        <time>2023-11-14T11:59:04Z</time>
      </trkpt>
      <trkpt lat="47.13778" lon="-1.3678">
        <ele>17</ele>
        <time>2023-11-14T11:59:29Z</time>
      </trkpt>
      <trkpt lat="47.13764" lon="-1.36762">
        <ele>16</ele>
        <time>2023-11-14T11:59:53Z</time>
      </trkpt>
      <trkpt lat="47.13746" lon="-1.36753">
        <ele>17</ele>
        <time>2023-11-14T12:00:19Z</time>
      </trkpt>
      <trkpt lat="47.13709" lon="-1.36745">
        <ele>24</ele>
        <time>2023-11-14T12:01:09Z</time>
      </trkpt>
      <trkpt lat="47.13694" lon="-1.3673">
        <ele>24</ele>
        <time>2023-11-14T12:01:33Z</time>
      </trkpt>
      <trkpt lat="47.13669" lon="-1.36689">
        <ele>22</ele>
        <time>2023-11-14T12:02:23Z</time>
      </trkpt>
      <trkpt lat="47.13659" lon="-1.36667">
        <ele>20</ele>
        <time>2023-11-14T12:02:47Z</time>
      </trkpt>
      <trkpt lat="47.13645" lon="-1.36649">
        <ele>20</ele>
        <time>2023-11-14T12:03:12Z</time>
      </trkpt>
      <trkpt lat="47.13635" lon="-1.36626">
        <ele>20</ele>
        <time>2023-11-14T12:03:36Z</time>
      </trkpt>
      <trkpt lat="47.13631" lon="-1.36599">
        <ele>18</ele>
        <time>2023-11-14T12:04:02Z</time>
      </trkpt>
      <trkpt lat="47.13631" lon="-1.36571">
        <ele>16</ele>
        <time>2023-11-14T12:04:27Z</time>
      </trkpt>
      <trkpt lat="47.13626" lon="-1.36517">
        <ele>13</ele>
        <time>2023-11-14T12:05:16Z</time>
      </trkpt>
      <trkpt lat="47.13593" lon="-1.36451">
        <ele>15</ele>
        <time>2023-11-14T12:06:31Z</time>
      </trkpt>
      <trkpt lat="47.13609" lon="-1.36466">
        <ele>14</ele>
        <time>2023-11-14T12:06:56Z</time>
      </trkpt>
      <trkpt lat="47.13613" lon="-1.3644">
        <ele>12</ele>
        <time>2023-11-14T12:07:20Z</time>
      </trkpt>
      <trkpt lat="47.13614" lon="-1.36412">
        <ele>11</ele>
        <time>2023-11-14T12:07:46Z</time>
      </trkpt>
      <trkpt lat="47.13592" lon="-1.36307">
        <ele>10</ele>
        <time>2023-11-14T12:09:25Z</time>
      </trkpt>
      <trkpt lat="47.13595" lon="-1.3628">
        <ele>10</ele>
        <time>2023-11-14T12:09:50Z</time>
      </trkpt>
      <trkpt lat="47.1359" lon="-1.36227">
        <ele>10</ele>
        <time>2023-11-14T12:10:39Z</time>
      </trkpt>
      <trkpt lat="47.13596" lon="-1.36201">
        <ele>10</ele>
        <time>2023-11-14T12:11:04Z</time>
      </trkpt>
      <trkpt lat="47.13594" lon="-1.36174">
        <ele>11</ele>
        <time>2023-11-14T12:11:28Z</time>
      </trkpt>
      <trkpt lat="47.13594" lon="-1.36091">
        <ele>12</ele>
        <time>2023-11-14T12:12:44Z</time>
      </trkpt>
      <trkpt lat="47.13573" lon="-1.36047">
        <ele>14</ele>
        <time>2023-11-14T12:13:33Z</time>
      </trkpt>
      <trkpt lat="47.13545" lon="-1.3601">
        <ele>14</ele>
        <time>2023-11-14T12:14:23Z</time>
      </trkpt>
      <trkpt lat="47.13515" lon="-1.35976">
        <ele>14</ele>
        <time>2023-11-14T12:15:13Z</time>
      </trkpt>
      <trkpt lat="47.13508" lon="-1.35949">
        <ele>13</ele>
        <time>2023-11-14T12:15:40Z</time>
      </trkpt>
      <trkpt lat="47.13513" lon="-1.35923">
        <ele>13</ele>
        <time>2023-11-14T12:16:04Z</time>
      </trkpt>
      <trkpt lat="47.13554" lon="-1.35833">
        <ele>13</ele>
        <time>2023-11-14T12:17:42Z</time>
      </trkpt>
      <trkpt lat="47.13567" lon="-1.35814">
        <ele>14</ele>
        <time>2023-11-14T12:18:07Z</time>
      </trkpt>
      <trkpt lat="47.13621" lon="-1.35841">
        <ele>13</ele>
        <time>2023-11-14T12:19:23Z</time>
      </trkpt>
      <trkpt lat="47.13655" lon="-1.35862">
        <ele>12</ele>
        <time>2023-11-14T12:20:12Z</time>
      </trkpt>
      <trkpt lat="47.13712" lon="-1.3588">
        <ele>10</ele>
        <time>2023-11-14T12:21:30Z</time>
      </trkpt>
      <trkpt lat="47.13718" lon="-1.35853">
        <ele>11</ele>
        <time>2023-11-14T12:21:56Z</time>
      </trkpt>
      <trkpt lat="47.13717" lon="-1.35826">
        <ele>12</ele>
        <time>2023-11-14T12:22:20Z</time>
      </trkpt>
      <trkpt lat="47.1372" lon="-1.35797">
        <ele>12</ele>
        <time>2023-11-14T12:22:47Z</time>
      </trkpt>
      <trkpt lat="47.13716" lon="-1.3577">
        <ele>12</ele>
        <time>2023-11-14T12:23:12Z</time>
      </trkpt>
      <trkpt lat="47.13684" lon="-1.35613">
        <ele>14</ele>
        <time>2023-11-14T12:25:41Z</time>
      </trkpt>
      <trkpt lat="47.13671" lon="-1.35563">
        <ele>15</ele>
        <time>2023-11-14T12:26:29Z</time>
      </trkpt>
      <trkpt lat="47.13663" lon="-1.35509">
        <ele>16</ele>
        <time>2023-11-14T12:27:20Z</time>
      </trkpt>
      <trkpt lat="47.13679" lon="-1.35496">
        <ele>15</ele>
        <time>2023-11-14T12:27:44Z</time>
      </trkpt>
      <trkpt lat="47.13715" lon="-1.35489">
        <ele>14</ele>
        <time>2023-11-14T12:28:32Z</time>
      </trkpt>
      <trkpt lat="47.13733" lon="-1.35482">
        <ele>13</ele>
        <time>2023-11-14T12:28:57Z</time>
      </trkpt>
      <trkpt lat="47.13782" lon="-1.35444">
        <ele>9</ele>
        <time>2023-11-14T12:30:11Z</time>
      </trkpt>
      <trkpt lat="47.13777" lon="-1.35419">
        <ele>9</ele>
        <time>2023-11-14T12:30:35Z</time>
      </trkpt>
      <trkpt lat="47.13757" lon="-1.35369">
        <ele>9</ele>
        <time>2023-11-14T12:31:28Z</time>
      </trkpt>
      <trkpt lat="47.13756" lon="-1.3534">
        <ele>8</ele>
        <time>2023-11-14T12:31:54Z</time>
      </trkpt>
      <trkpt lat="47.1374" lon="-1.35325">
        <ele>9</ele>
        <time>2023-11-14T12:32:19Z</time>
      </trkpt>
      <trkpt lat="47.13726" lon="-1.35307">
        <ele>9</ele>
        <time>2023-11-14T12:32:44Z</time>
      </trkpt>
      <trkpt lat="47.13724" lon="-1.3528">
        <ele>10</ele>
        <time>2023-11-14T12:33:09Z</time>
      </trkpt>
      <trkpt lat="47.13709" lon="-1.35264">
        <ele>11</ele>
        <time>2023-11-14T12:33:33Z</time>
      </trkpt>
      <trkpt lat="47.13699" lon="-1.35241">
        <ele>12</ele>
        <time>2023-11-14T12:33:58Z</time>
      </trkpt>
      <trkpt lat="47.1368" lon="-1.35239">
        <ele>14</ele>
        <time>2023-11-14T12:34:24Z</time>
      </trkpt>
      <trkpt lat="47.13663" lon="-1.35248">
        <ele>14</ele>
        <time>2023-11-14T12:34:48Z</time>
      </trkpt>
      <trkpt lat="47.13681" lon="-1.35236">
        <ele>14</ele>
        <time>2023-11-14T12:35:14Z</time>
      </trkpt>
      <trkpt lat="47.137" lon="-1.3523">
        <ele>13</ele>
        <time>2023-11-14T12:35:40Z</time>
      </trkpt>
      <trkpt lat="47.13733" lon="-1.35205">
        <ele>11</ele>
        <time>2023-11-14T12:36:30Z</time>
      </trkpt>
      <trkpt lat="47.13745" lon="-1.35183">
        <ele>11</ele>
        <time>2023-11-14T12:36:55Z</time>
      </trkpt>
      <trkpt lat="47.13769" lon="-1.35109">
        <ele>11</ele>
        <time>2023-11-14T12:38:10Z</time>
      </trkpt>
      <trkpt lat="47.1378" lon="-1.35086">
        <ele>11</ele>
        <time>2023-11-14T12:38:35Z</time>
      </trkpt>
      <trkpt lat="47.13785" lon="-1.35059">
        <ele>11</ele>
        <time>2023-11-14T12:39:01Z</time>
      </trkpt>
      <trkpt lat="47.1379" lon="-1.35006">
        <ele>11</ele>
        <time>2023-11-14T12:39:49Z</time>
      </trkpt>
      <trkpt lat="47.13798" lon="-1.34981">
        <ele>11</ele>
        <time>2023-11-14T12:40:14Z</time>
      </trkpt>
      <trkpt lat="47.13799" lon="-1.34927">
        <ele>11</ele>
        <time>2023-11-14T12:41:03Z</time>
      </trkpt>
      <trkpt lat="47.13799" lon="-1.34844">
        <ele>10</ele>
        <time>2023-11-14T12:42:19Z</time>
      </trkpt>
      <trkpt lat="47.13783" lon="-1.34829">
        <ele>12</ele>
        <time>2023-11-14T12:42:44Z</time>
      </trkpt>
      <trkpt lat="47.13747" lon="-1.34838">
        <ele>16</ele>
        <time>2023-11-14T12:43:33Z</time>
      </trkpt>
      <trkpt lat="47.13739" lon="-1.34813">
        <ele>17</ele>
        <time>2023-11-14T12:43:58Z</time>
      </trkpt>
      <trkpt lat="47.13736" lon="-1.34759">
        <ele>16</ele>
        <time>2023-11-14T12:44:47Z</time>
      </trkpt>
      <trkpt lat="47.13739" lon="-1.34731">
        <ele>15</ele>
        <time>2023-11-14T12:45:13Z</time>
      </trkpt>
      <trkpt lat="47.13735" lon="-1.34677">
        <ele>14</ele>
        <time>2023-11-14T12:46:02Z</time>
      </trkpt>
      <trkpt lat="47.13736" lon="-1.34621">
        <ele>12</ele>
        <time>2023-11-14T12:46:53Z</time>
      </trkpt>
      <trkpt lat="47.13744" lon="-1.34596">
        <ele>11</ele>
        <time>2023-11-14T12:47:18Z</time>
      </trkpt>
      <trkpt lat="47.13734" lon="-1.34572">
        <ele>12</ele>
        <time>2023-11-14T12:47:43Z</time>
      </trkpt>
      <trkpt lat="47.13721" lon="-1.34554">
        <ele>13</ele>
        <time>2023-11-14T12:48:07Z</time>
      </trkpt>
      <trkpt lat="47.13704" lon="-1.34545">
        <ele>15</ele>
        <time>2023-11-14T12:48:31Z</time>
      </trkpt>
      <trkpt lat="47.13685" lon="-1.3455">
        <ele>17</ele>
        <time>2023-11-14T12:48:57Z</time>
      </trkpt>
      <trkpt lat="47.13667" lon="-1.3456">
        <ele>19</ele>
        <time>2023-11-14T12:49:23Z</time>
      </trkpt>
      <trkpt lat="47.13651" lon="-1.34573">
        <ele>20</ele>
        <time>2023-11-14T12:49:47Z</time>
      </trkpt>
      <trkpt lat="47.13638" lon="-1.34555">
        <ele>21</ele>
        <time>2023-11-14T12:50:11Z</time>
      </trkpt>
      <trkpt lat="47.13635" lon="-1.34527">
        <ele>21</ele>
        <time>2023-11-14T12:50:37Z</time>
      </trkpt>
      <trkpt lat="47.13638" lon="-1.34473">
        <ele>18</ele>
        <time>2023-11-14T12:51:26Z</time>
      </trkpt>
      <trkpt lat="47.13636" lon="-1.34447">
        <ele>16</ele>
        <time>2023-11-14T12:51:50Z</time>
      </trkpt>
      <trkpt lat="47.13622" lon="-1.34429">
        <ele>16</ele>
        <time>2023-11-14T12:52:15Z</time>
      </trkpt>
      <trkpt lat="47.13567" lon="-1.34417">
        <ele>15</ele>
        <time>2023-11-14T12:53:29Z</time>
      </trkpt>
      <trkpt lat="47.13549" lon="-1.34414">
        <ele>15</ele>
        <time>2023-11-14T12:53:53Z</time>
      </trkpt>
      <trkpt lat="47.13539" lon="-1.34437">
        <ele>17</ele>
        <time>2023-11-14T12:54:18Z</time>
      </trkpt>
      <trkpt lat="47.13538" lon="-1.34465">
        <ele>19</ele>
        <time>2023-11-14T12:54:43Z</time>
      </trkpt>
      <trkpt lat="47.13527" lon="-1.34486">
        <ele>21</ele>
        <time>2023-11-14T12:55:07Z</time>
      </trkpt>
      <trkpt lat="47.13511" lon="-1.34498">
        <ele>23</ele>
        <time>2023-11-14T12:55:31Z</time>
      </trkpt>
      <trkpt lat="47.13494" lon="-1.34507">
        <ele>23</ele>
        <time>2023-11-14T12:55:55Z</time>
      </trkpt>
      <trkpt lat="47.13463" lon="-1.34539">
        <ele>25</ele>
        <time>2023-11-14T12:56:46Z</time>
      </trkpt>
      <trkpt lat="47.13452" lon="-1.34562">
        <ele>28</ele>
        <time>2023-11-14T12:57:11Z</time>
      </trkpt>
      <trkpt lat="47.13438" lon="-1.34581">
        <ele>29</ele>
        <time>2023-11-14T12:57:37Z</time>
      </trkpt>
      <trkpt lat="47.13423" lon="-1.34596">
        <ele>30</ele>
        <time>2023-11-14T12:58:01Z</time>
      </trkpt>
      <trkpt lat="47.13388" lon="-1.34611">
        <ele>31</ele>
        <time>2023-11-14T12:58:50Z</time>
      </trkpt>
      <trkpt lat="47.13352" lon="-1.34598">
        <ele>30</ele>
        <time>2023-11-14T12:59:39Z</time>
      </trkpt>
      <trkpt lat="47.13314" lon="-1.34602">
        <ele>30</ele>
        <time>2023-11-14T13:00:30Z</time>
      </trkpt>
      <trkpt lat="47.13276" lon="-1.34596">
        <ele>29</ele>
        <time>2023-11-14T13:01:21Z</time>
      </trkpt>
      <trkpt lat="47.13222" lon="-1.34575">
        <ele>28</ele>
        <time>2023-11-14T13:02:35Z</time>
      </trkpt>
      <trkpt lat="47.13189" lon="-1.34552">
        <ele>27</ele>
        <time>2023-11-14T13:03:24Z</time>
      </trkpt>
      <trkpt lat="47.13158" lon="-1.34523">
        <ele>25</ele>
        <time>2023-11-14T13:04:13Z</time>
      </trkpt>
      <trkpt lat="47.1313" lon="-1.34486">
        <ele>22</ele>
        <time>2023-11-14T13:05:04Z</time>
      </trkpt>
      <trkpt lat="47.1308" lon="-1.34452">
        <ele>19</ele>
        <time>2023-11-14T13:06:17Z</time>
      </trkpt>
      <trkpt lat="47.13065" lon="-1.34436">
        <ele>18</ele>
        <time>2023-11-14T13:06:42Z</time>
      </trkpt>
      <trkpt lat="47.13048" lon="-1.34444">
        <ele>19</ele>
        <time>2023-11-14T13:07:06Z</time>
      </trkpt>
      <trkpt lat="47.13037" lon="-1.34465">
        <ele>21</ele>
        <time>2023-11-14T13:07:30Z</time>
      </trkpt>
      <trkpt lat="47.13021" lon="-1.34514">
        <ele>24</ele>
        <time>2023-11-14T13:08:19Z</time>
      </trkpt>
      <trkpt lat="47.12958" lon="-1.34614">
        <ele>31</ele>
        <time>2023-11-14T13:10:23Z</time>
      </trkpt>
      <trkpt lat="47.12891" lon="-1.34709">
        <ele>38</ele>
        <time>2023-11-14T13:12:27Z</time>
      </trkpt>
      <trkpt lat="47.12874" lon="-1.34698">
        <ele>38</ele>
        <time>2023-11-14T13:12:52Z</time>
      </trkpt>
      <trkpt lat="47.12866" lon="-1.34673">
        <ele>38</ele>
        <time>2023-11-14T13:13:17Z</time>
      </trkpt>
      <trkpt lat="47.12834" lon="-1.34606">
        <ele>38</ele>
        <time>2023-11-14T13:14:31Z</time>
      </trkpt>
      <trkpt lat="47.12811" lon="-1.34563">
        <ele>36</ele>
        <time>2023-11-14T13:15:21Z</time>
      </trkpt>
      <trkpt lat="47.12796" lon="-1.34546">
        <ele>35</ele>
        <time>2023-11-14T13:15:46Z</time>
      </trkpt>
      <trkpt lat="47.12784" lon="-1.34524">
        <ele>34</ele>
        <time>2023-11-14T13:16:12Z</time>
      </trkpt>
      <trkpt lat="47.12779" lon="-1.34496">
        <ele>33</ele>
        <time>2023-11-14T13:16:38Z</time>
      </trkpt>
      <trkpt lat="47.12786" lon="-1.34442">
        <ele>30</ele>
        <time>2023-11-14T13:17:28Z</time>
      </trkpt>
      <trkpt lat="47.12783" lon="-1.34416">
        <ele>29</ele>
        <time>2023-11-14T13:17:52Z</time>
      </trkpt>
      <trkpt lat="47.12775" lon="-1.3439">
        <ele>28</ele>
        <time>2023-11-14T13:18:18Z</time>
      </trkpt>
      <trkpt lat="47.12738" lon="-1.3433">
        <ele>25</ele>
        <time>2023-11-14T13:19:31Z</time>
      </trkpt>
      <trkpt lat="47.1273" lon="-1.34306">
        <ele>24</ele>
        <time>2023-11-14T13:19:56Z</time>
      </trkpt>
      <trkpt lat="47.1273" lon="-1.34197">
        <ele>21</ele>
        <time>2023-11-14T13:21:34Z</time>
      </trkpt>
      <trkpt lat="47.12723" lon="-1.34142">
        <ele>20</ele>
        <time>2023-11-14T13:22:25Z</time>
      </trkpt>
      <trkpt lat="47.12727" lon="-1.34089">
        <ele>18</ele>
        <time>2023-11-14T13:23:14Z</time>
      </trkpt>
      <trkpt lat="47.12716" lon="-1.34067">
        <ele>18</ele>
        <time>2023-11-14T13:23:38Z</time>
      </trkpt>
      <trkpt lat="47.12707" lon="-1.34042">
        <ele>19</ele>
        <time>2023-11-14T13:24:04Z</time>
      </trkpt>
      <trkpt lat="47.1271" lon="-1.34016">
        <ele>19</ele>
        <time>2023-11-14T13:24:28Z</time>
      </trkpt>
      <trkpt lat="47.12706" lon="-1.3399">
        <ele>18</ele>
        <time>2023-11-14T13:24:52Z</time>
      </trkpt>
      <trkpt lat="47.12698" lon="-1.33966">
        <ele>18</ele>
        <time>2023-11-14T13:25:17Z</time>
      </trkpt>
      <trkpt lat="47.12696" lon="-1.33939">
        <ele>18</ele>
        <time>2023-11-14T13:25:41Z</time>
      </trkpt>
      <trkpt lat="47.12691" lon="-1.33913">
        <ele>18</ele>
        <time>2023-11-14T13:26:06Z</time>
      </trkpt>
      <trkpt lat="47.12675" lon="-1.33864">
        <ele>18</ele>
        <time>2023-11-14T13:26:55Z</time>
      </trkpt>
      <trkpt lat="47.1267" lon="-1.33838">
        <ele>18</ele>
        <time>2023-11-14T13:27:20Z</time>
      </trkpt>
      <trkpt lat="47.12654" lon="-1.33731">
        <ele>20</ele>
        <time>2023-11-14T13:28:59Z</time>
      </trkpt>
      <trkpt lat="47.12648" lon="-1.33705">
        <ele>21</ele>
        <time>2023-11-14T13:29:24Z</time>
      </trkpt>
      <trkpt lat="47.12626" lon="-1.33544">
        <ele>24</ele>
        <time>2023-11-14T13:31:53Z</time>
      </trkpt>
      <trkpt lat="47.1262" lon="-1.33518">
        <ele>24</ele>
        <time>2023-11-14T13:32:18Z</time>
      </trkpt>
      <trkpt lat="47.1261" lon="-1.33495">
        <ele>25</ele>
        <time>2023-11-14T13:32:43Z</time>
      </trkpt>
      <trkpt lat="47.12585" lon="-1.33455">
        <ele>26</ele>
        <time>2023-11-14T13:33:32Z</time>
      </trkpt>
      <trkpt lat="47.12571" lon="-1.33437">
        <ele>26</ele>
        <time>2023-11-14T13:33:57Z</time>
      </trkpt>
      <trkpt lat="47.12559" lon="-1.33415">
        <ele>27</ele>
        <time>2023-11-14T13:34:23Z</time>
      </trkpt>
      <trkpt lat="47.12531" lon="-1.33379">
        <ele>28</ele>
        <time>2023-11-14T13:35:12Z</time>
      </trkpt>
      <trkpt lat="47.12499" lon="-1.3335">
        <ele>30</ele>
        <time>2023-11-14T13:36:02Z</time>
      </trkpt>
      <trkpt lat="47.12486" lon="-1.33332">
        <ele>31</ele>
        <time>2023-11-14T13:36:26Z</time>
      </trkpt>
      <trkpt lat="47.1249" lon="-1.33306">
        <ele>30</ele>
        <time>2023-11-14T13:36:50Z</time>
      </trkpt>
      <trkpt lat="47.1251" lon="-1.33259">
        <ele>28</ele>
        <time>2023-11-14T13:37:41Z</time>
      </trkpt>
      <trkpt lat="47.12526" lon="-1.3321">
        <ele>26</ele>
        <time>2023-11-14T13:38:30Z</time>
      </trkpt>
      <trkpt lat="47.1251" lon="-1.33195">
        <ele>26</ele>
        <time>2023-11-14T13:38:55Z</time>
      </trkpt>
      <trkpt lat="47.12492" lon="-1.33188">
        <ele>27</ele>
        <time>2023-11-14T13:39:20Z</time>
      </trkpt>
      <trkpt lat="47.12475" lon="-1.33178">
        <ele>27</ele>
        <time>2023-11-14T13:39:45Z</time>
      </trkpt>
      <trkpt lat="47.12446" lon="-1.33145">
        <ele>26</ele>
        <time>2023-11-14T13:40:34Z</time>
      </trkpt>
      <trkpt lat="47.12397" lon="-1.33107">
        <ele>25</ele>
        <time>2023-11-14T13:41:48Z</time>
      </trkpt>
      <trkpt lat="47.12381" lon="-1.33091">
        <ele>25</ele>
        <time>2023-11-14T13:42:13Z</time>
      </trkpt>
      <trkpt lat="47.12369" lon="-1.3307">
        <ele>25</ele>
        <time>2023-11-14T13:42:38Z</time>
      </trkpt>
      <trkpt lat="47.12329" lon="-1.32978">
        <ele>26</ele>
        <time>2023-11-14T13:44:17Z</time>
      </trkpt>
      <trkpt lat="47.12312" lon="-1.32928">
        <ele>28</ele>
        <time>2023-11-14T13:45:08Z</time>
      </trkpt>
      <trkpt lat="47.12302" lon="-1.32906">
        <ele>29</ele>
        <time>2023-11-14T13:45:32Z</time>
      </trkpt>
      <trkpt lat="47.12281" lon="-1.32831">
        <ele>29</ele>
        <time>2023-11-14T13:46:46Z</time>
      </trkpt>
      <trkpt lat="47.12237" lon="-1.32778">
        <ele>29</ele>
        <time>2023-11-14T13:48:02Z</time>
      </trkpt>
      <trkpt lat="47.12195" lon="-1.32719">
        <ele>30</ele>
        <time>2023-11-14T13:49:19Z</time>
      </trkpt>
      <trkpt lat="47.12179" lon="-1.32706">
        <ele>30</ele>
        <time>2023-11-14T13:49:44Z</time>
      </trkpt>
      <trkpt lat="47.1216" lon="-1.32704">
        <ele>31</ele>
        <time>2023-11-14T13:50:09Z</time>
      </trkpt>
      <trkpt lat="47.12145" lon="-1.3272">
        <ele>32</ele>
        <time>2023-11-14T13:50:34Z</time>
      </trkpt>
      <trkpt lat="47.12107" lon="-1.32779">
        <ele>32</ele>
        <time>2023-11-14T13:51:48Z</time>
      </trkpt>
      <trkpt lat="47.12085" lon="-1.32824">
        <ele>32</ele>
        <time>2023-11-14T13:52:38Z</time>
      </trkpt>
      <trkpt lat="47.12076" lon="-1.32848">
        <ele>32</ele>
        <time>2023-11-14T13:53:03Z</time>
      </trkpt>
      <trkpt lat="47.12059" lon="-1.32861">
        <ele>33</ele>
        <time>2023-11-14T13:53:28Z</time>
      </trkpt>
      <trkpt lat="47.12016" lon="-1.32807">
        <ele>32</ele>
        <time>2023-11-14T13:54:44Z</time>
      </trkpt>
      <trkpt lat="47.12" lon="-1.32794">
        <ele>32</ele>
        <time>2023-11-14T13:55:08Z</time>
      </trkpt>
      <trkpt lat="47.11937" lon="-1.32732">
        <ele>31</ele>
        <time>2023-11-14T13:56:49Z</time>
      </trkpt>
      <trkpt lat="47.11921" lon="-1.32746">
        <ele>31</ele>
        <time>2023-11-14T13:57:14Z</time>
      </trkpt>
      <trkpt lat="47.11904" lon="-1.32755">
        <ele>31</ele>
        <time>2023-11-14T13:57:38Z</time>
      </trkpt>
      <trkpt lat="47.11867" lon="-1.32764">
        <ele>30</ele>
        <time>2023-11-14T13:58:28Z</time>
      </trkpt>
      <trkpt lat="47.11851" lon="-1.32777">
        <ele>30</ele>
        <time>2023-11-14T13:58:53Z</time>
      </trkpt>
      <trkpt lat="47.11783" lon="-1.32821">
        <ele>30</ele>
        <time>2023-11-14T14:00:32Z</time>
      </trkpt>
      <trkpt lat="47.11765" lon="-1.3282">
        <ele>30</ele>
        <time>2023-11-14T14:00:56Z</time>
      </trkpt>
      <trkpt lat="47.11739" lon="-1.32717">
        <ele>29</ele>
        <time>2023-11-14T14:02:36Z</time>
      </trkpt>
      <trkpt lat="47.11742" lon="-1.32691">
        <ele>29</ele>
        <time>2023-11-14T14:03:00Z</time>
      </trkpt>
      <trkpt lat="47.11774" lon="-1.32626">
        <ele>27</ele>
        <time>2023-11-14T14:04:13Z</time>
      </trkpt>
      <trkpt lat="47.11792" lon="-1.32577">
        <ele>26</ele>
        <time>2023-11-14T14:05:03Z</time>
      </trkpt>
      <trkpt lat="47.11784" lon="-1.32552">
        <ele>26</ele>
        <time>2023-11-14T14:05:28Z</time>
      </trkpt>
      <trkpt lat="47.11767" lon="-1.32541">
        <ele>27</ele>
        <time>2023-11-14T14:05:53Z</time>
      </trkpt>
      <trkpt lat="47.1175" lon="-1.32526">
        <ele>28</ele>
        <time>2023-11-14T14:06:20Z</time>
      </trkpt>
      <trkpt lat="47.11736" lon="-1.32509">
        <ele>29</ele>
        <time>2023-11-14T14:06:44Z</time>
      </trkpt>
      <trkpt lat="47.11719" lon="-1.32497">
        <ele>29</ele>
        <time>2023-11-14T14:07:09Z</time>
      </trkpt>
      <trkpt lat="47.11705" lon="-1.32477">
        <ele>29</ele>
        <time>2023-11-14T14:07:35Z</time>
      </trkpt>
      <trkpt lat="47.11641" lon="-1.32424">
        <ele>30</ele>
        <time>2023-11-14T14:09:13Z</time>
      </trkpt>
      <trkpt lat="47.11626" lon="-1.32409">
        <ele>30</ele>
        <time>2023-11-14T14:09:37Z</time>
      </trkpt>
      <trkpt lat="47.11612" lon="-1.32392">
        <ele>30</ele>
        <time>2023-11-14T14:10:01Z</time>
      </trkpt>
      <trkpt lat="47.116" lon="-1.3237">
        <ele>29</ele>
        <time>2023-11-14T14:10:27Z</time>
      </trkpt>
      <trkpt lat="47.11591" lon="-1.32346">
        <ele>28</ele>
        <time>2023-11-14T14:10:52Z</time>
      </trkpt>
      <trkpt lat="47.11597" lon="-1.3232">
        <ele>28</ele>
        <time>2023-11-14T14:11:17Z</time>
      </trkpt>
      <trkpt lat="47.11613" lon="-1.32305">
        <ele>27</ele>
        <time>2023-11-14T14:11:42Z</time>
      </trkpt>
      <trkpt lat="47.11639" lon="-1.32268">
        <ele>26</ele>
        <time>2023-11-14T14:12:31Z</time>
      </trkpt>
      <trkpt lat="47.11655" lon="-1.32218">
        <ele>23</ele>
        <time>2023-11-14T14:13:21Z</time>
      </trkpt>
      <trkpt lat="47.11655" lon="-1.32165">
        <ele>19</ele>
        <time>2023-11-14T14:14:09Z</time>
      </trkpt>
      <trkpt lat="47.11627" lon="-1.3213">
        <ele>18</ele>
        <time>2023-11-14T14:14:58Z</time>
      </trkpt>
      <trkpt lat="47.11619" lon="-1.32105">
        <ele>16</ele>
        <time>2023-11-14T14:15:23Z</time>
      </trkpt>
      <trkpt lat="47.11619" lon="-1.32078">
        <ele>14</ele>
        <time>2023-11-14T14:15:47Z</time>
      </trkpt>
      <trkpt lat="47.11634" lon="-1.32059">
        <ele>13</ele>
        <time>2023-11-14T14:16:14Z</time>
      </trkpt>
      <trkpt lat="47.11666" lon="-1.32033">
        <ele>9</ele>
        <time>2023-11-14T14:17:03Z</time>
      </trkpt>
      <trkpt lat="47.11671" lon="-1.32007">
        <ele>9</ele>
        <time>2023-11-14T14:17:27Z</time>
      </trkpt>
      <trkpt lat="47.11629" lon="-1.31918">
        <ele>10</ele>
        <time>2023-11-14T14:19:06Z</time>
      </trkpt>
      <trkpt lat="47.1161" lon="-1.31871">
        <ele>10</ele>
        <time>2023-11-14T14:19:55Z</time>
      </trkpt>
      <trkpt lat="47.11603" lon="-1.31845">
        <ele>10</ele>
        <time>2023-11-14T14:20:21Z</time>
      </trkpt>
      <trkpt lat="47.11568" lon="-1.31783">
        <ele>11</ele>
        <time>2023-11-14T14:21:34Z</time>
      </trkpt>
      <trkpt lat="47.11558" lon="-1.31759">
        <ele>11</ele>
        <time>2023-11-14T14:21:59Z</time>
      </trkpt>
      <trkpt lat="47.11501" lon="-1.31688">
        <ele>9</ele>
        <time>2023-11-14T14:23:39Z</time>
      </trkpt>
      <trkpt lat="47.11471" lon="-1.31656">
        <ele>9</ele>
        <time>2023-11-14T14:24:29Z</time>
      </trkpt>
      <trkpt lat="47.11444" lon="-1.3162">
        <ele>8</ele>
        <time>2023-11-14T14:25:17Z</time>
      </trkpt>
      <trkpt lat="47.11428" lon="-1.31607">
        <ele>8</ele>
        <time>2023-11-14T14:25:42Z</time>
      </trkpt>
      <trkpt lat="47.11376" lon="-1.31575">
        <ele>9</ele>
        <time>2023-11-14T14:26:57Z</time>
      </trkpt>
      <trkpt lat="47.1136" lon="-1.31561">
        <ele>9</ele>
        <time>2023-11-14T14:27:22Z</time>
      </trkpt>
      <trkpt lat="47.11341" lon="-1.31557">
        <ele>10</ele>
        <time>2023-11-14T14:27:47Z</time>
      </trkpt>
      <trkpt lat="47.11326" lon="-1.31572">
        <ele>10</ele>
        <time>2023-11-14T14:28:11Z</time>
      </trkpt>
      <trkpt lat="47.1129" lon="-1.31636">
        <ele>13</ele>
        <time>2023-11-14T14:29:27Z</time>
      </trkpt>
      <trkpt lat="47.11277" lon="-1.31655">
        <ele>14</ele>
        <time>2023-11-14T14:29:51Z</time>
      </trkpt>
      <trkpt lat="47.11244" lon="-1.31723">
        <ele>16</ele>
        <time>2023-11-14T14:31:07Z</time>
      </trkpt>
      <trkpt lat="47.11187" lon="-1.31831">
        <ele>24</ele>
        <time>2023-11-14T14:33:11Z</time>
      </trkpt>
      <trkpt lat="47.11167" lon="-1.31877">
        <ele>26</ele>
        <time>2023-11-14T14:34:01Z</time>
      </trkpt>
      <trkpt lat="47.11149" lon="-1.31874">
        <ele>27</ele>
        <time>2023-11-14T14:34:25Z</time>
      </trkpt>
      <trkpt lat="47.11133" lon="-1.31858">
        <ele>28</ele>
        <time>2023-11-14T14:34:51Z</time>
      </trkpt>
      <trkpt lat="47.11091" lon="-1.31801">
        <ele>29</ele>
        <time>2023-11-14T14:36:07Z</time>
      </trkpt>
      <trkpt lat="47.1108" lon="-1.3178">
        <ele>29</ele>
        <time>2023-11-14T14:36:31Z</time>
      </trkpt>
      <trkpt lat="47.11038" lon="-1.31725">
        <ele>29</ele>
        <time>2023-11-14T14:37:46Z</time>
      </trkpt>
      <trkpt lat="47.1101" lon="-1.31691">
        <ele>29</ele>
        <time>2023-11-14T14:38:35Z</time>
      </trkpt>
      <trkpt lat="47.10978" lon="-1.31663">
        <ele>29</ele>
        <time>2023-11-14T14:39:25Z</time>
      </trkpt>
      <trkpt lat="47.10972" lon="-1.31638">
        <ele>29</ele>
        <time>2023-11-14T14:39:49Z</time>
      </trkpt>
      <trkpt lat="47.10947" lon="-1.31598">
        <ele>29</ele>
        <time>2023-11-14T14:40:38Z</time>
      </trkpt>
      <trkpt lat="47.10807" lon="-1.31416">
        <ele>33</ele>
        <time>2023-11-14T14:44:47Z</time>
      </trkpt>
      <trkpt lat="47.1081" lon="-1.3139">
        <ele>33</ele>
        <time>2023-11-14T14:45:11Z</time>
      </trkpt>
      <trkpt lat="47.10822" lon="-1.31368">
        <ele>32</ele>
        <time>2023-11-14T14:45:37Z</time>
      </trkpt>
      <trkpt lat="47.10797" lon="-1.31296">
        <ele>31</ele>
        <time>2023-11-14T14:46:50Z</time>
      </trkpt>
      <trkpt lat="47.10777" lon="-1.31248">
        <ele>30</ele>
        <time>2023-11-14T14:47:41Z</time>
      </trkpt>
      <trkpt lat="47.10746" lon="-1.31149">
        <ele>29</ele>
        <time>2023-11-14T14:49:20Z</time>
      </trkpt>
      <trkpt lat="47.10724" lon="-1.31104">
        <ele>30</ele>
        <time>2023-11-14T14:50:11Z</time>
      </trkpt>
      <trkpt lat="47.10712" lon="-1.31052">
        <ele>29</ele>
        <time>2023-11-14T14:51:01Z</time>
      </trkpt>
      <trkpt lat="47.10702" lon="-1.31029">
        <ele>28</ele>
        <time>2023-11-14T14:51:25Z</time>
      </trkpt>
      <trkpt lat="47.10677" lon="-1.30955">
        <ele>26</ele>
        <time>2023-11-14T14:52:40Z</time>
      </trkpt>
      <trkpt lat="47.10666" lon="-1.30932">
        <ele>26</ele>
        <time>2023-11-14T14:53:06Z</time>
      </trkpt>
      <trkpt lat="47.10653" lon="-1.30912">
        <ele>26</ele>
        <time>2023-11-14T14:53:31Z</time>
      </trkpt>
      <trkpt lat="47.10625" lon="-1.30876">
        <ele>26</ele>
        <time>2023-11-14T14:54:21Z</time>
      </trkpt>
      <trkpt lat="47.1058" lon="-1.30827">
        <ele>26</ele>
        <time>2023-11-14T14:55:36Z</time>
      </trkpt>
      <trkpt lat="47.10509" lon="-1.30735">
        <ele>23</ele>
        <time>2023-11-14T14:57:42Z</time>
      </trkpt>
      <trkpt lat="47.10515" lon="-1.3071">
        <ele>22</ele>
        <time>2023-11-14T14:58:06Z</time>
      </trkpt>
      <trkpt lat="47.10554" lon="-1.30649">
        <ele>15</ele>
        <time>2023-11-14T14:59:22Z</time>
      </trkpt>
      <trkpt lat="47.10565" lon="-1.30627">
        <ele>13</ele>
        <time>2023-11-14T14:59:47Z</time>
      </trkpt>
      <trkpt lat="47.10573" lon="-1.30602">
        <ele>12</ele>
        <time>2023-11-14T15:00:12Z</time>
      </trkpt>
      <trkpt lat="47.10572" lon="-1.30575">
        <ele>11</ele>
        <time>2023-11-14T15:00:36Z</time>
      </trkpt>
      <trkpt lat="47.10558" lon="-1.30524">
        <ele>13</ele>
        <time>2023-11-14T15:01:26Z</time>
      </trkpt>
      <trkpt lat="47.10555" lon="-1.30497">
        <ele>13</ele>
        <time>2023-11-14T15:01:51Z</time>
      </trkpt>
      <trkpt lat="47.1057" lon="-1.3048">
        <ele>13</ele>
        <time>2023-11-14T15:02:16Z</time>
      </trkpt>
      <trkpt lat="47.10642" lon="-1.30456">
        <ele>10</ele>
        <time>2023-11-14T15:03:55Z</time>
      </trkpt>
      <trkpt lat="47.10696" lon="-1.30429">
        <ele>11</ele>
        <time>2023-11-14T15:05:11Z</time>
      </trkpt>
      <trkpt lat="47.10749" lon="-1.3041">
        <ele>14</ele>
        <time>2023-11-14T15:06:24Z</time>
      </trkpt>
      <trkpt lat="47.10762" lon="-1.30392">
        <ele>16</ele>
        <time>2023-11-14T15:06:48Z</time>
      </trkpt>
      <trkpt lat="47.10701" lon="-1.30254">
        <ele>17</ele>
        <time>2023-11-14T15:09:17Z</time>
      </trkpt>
      <trkpt lat="47.10693" lon="-1.30228">
        <ele>17</ele>
        <time>2023-11-14T15:09:43Z</time>
      </trkpt>
      <trkpt lat="47.1067" lon="-1.30125">
        <ele>15</ele>
        <time>2023-11-14T15:11:22Z</time>
      </trkpt>
      <trkpt lat="47.10653" lon="-1.29992">
        <ele>17</ele>
        <time>2023-11-14T15:13:25Z</time>
      </trkpt>
      <trkpt lat="47.10621" lon="-1.29893">
        <ele>17</ele>
        <time>2023-11-14T15:15:04Z</time>
      </trkpt>
      <trkpt lat="47.10616" lon="-1.29868">
        <ele>18</ele>
        <time>2023-11-14T15:15:28Z</time>
      </trkpt>
      <trkpt lat="47.10607" lon="-1.29845">
        <ele>17</ele>
        <time>2023-11-14T15:15:52Z</time>
      </trkpt>
      <trkpt lat="47.10584" lon="-1.29802">
        <ele>17</ele>
        <time>2023-11-14T15:16:41Z</time>
      </trkpt>
      <trkpt lat="47.10539" lon="-1.29647">
        <ele>23</ele>
        <time>2023-11-14T15:19:15Z</time>
      </trkpt>
      <trkpt lat="47.1048" lon="-1.29539">
        <ele>23</ele>
        <time>2023-11-14T15:21:20Z</time>
      </trkpt>
      <trkpt lat="47.10466" lon="-1.2952">
        <ele>23</ele>
        <time>2023-11-14T15:21:46Z</time>
      </trkpt>
      <trkpt lat="47.10434" lon="-1.29493">
        <ele>21</ele>
        <time>2023-11-14T15:22:35Z</time>
      </trkpt>
      <trkpt lat="47.10421" lon="-1.29473">
        <ele>21</ele>
        <time>2023-11-14T15:23:00Z</time>
      </trkpt>
      <trkpt lat="47.10402" lon="-1.29426">
        <ele>24</ele>
        <time>2023-11-14T15:23:50Z</time>
      </trkpt>
      <trkpt lat="47.10387" lon="-1.2941">
        <ele>23</ele>
        <time>2023-11-14T15:24:15Z</time>
      </trkpt>
      <trkpt lat="47.10355" lon="-1.29382">
        <ele>20</ele>
        <time>2023-11-14T15:25:04Z</time>
      </trkpt>
      <trkpt lat="47.10338" lon="-1.29371">
        <ele>19</ele>
        <time>2023-11-14T15:25:29Z</time>
      </trkpt>
      <trkpt lat="47.10323" lon="-1.29354">
        <ele>20</ele>
        <time>2023-11-14T15:25:54Z</time>
      </trkpt>
      <trkpt lat="47.1029" lon="-1.29326">
        <ele>18</ele>
        <time>2023-11-14T15:26:45Z</time>
      </trkpt>
      <trkpt lat="47.10262" lon="-1.29291">
        <ele>16</ele>
        <time>2023-11-14T15:27:34Z</time>
      </trkpt>
      <trkpt lat="47.10249" lon="-1.2924">
        <ele>16</ele>
        <time>2023-11-14T15:28:24Z</time>
      </trkpt>
      <trkpt lat="47.10247" lon="-1.29214">
        <ele>16</ele>
        <time>2023-11-14T15:28:47Z</time>
      </trkpt>
      <trkpt lat="47.10256" lon="-1.29161">
        <ele>18</ele>
        <time>2023-11-14T15:29:37Z</time>
      </trkpt>
      <trkpt lat="47.10253" lon="-1.29135">
        <ele>17</ele>
        <time>2023-11-14T15:30:01Z</time>
      </trkpt>
      <trkpt lat="47.10261" lon="-1.29026">
        <ele>17</ele>
        <time>2023-11-14T15:31:41Z</time>
      </trkpt>
      <trkpt lat="47.10257" lon="-1.29">
        <ele>17</ele>
        <time>2023-11-14T15:32:05Z</time>
      </trkpt>
      <trkpt lat="47.10242" lon="-1.2895">
        <ele>17</ele>
        <time>2023-11-14T15:32:54Z</time>
      </trkpt>
      <trkpt lat="47.10209" lon="-1.28926">
        <ele>19</ele>
        <time>2023-11-14T15:33:44Z</time>
      </trkpt>
      <trkpt lat="47.10157" lon="-1.28898">
        <ele>22</ele>
        <time>2023-11-14T15:34:57Z</time>
      </trkpt>
      <trkpt lat="47.1013" lon="-1.28861">
        <ele>24</ele>
        <time>2023-11-14T15:35:47Z</time>
      </trkpt>
      <trkpt lat="47.10093" lon="-1.28797">
        <ele>28</ele>
        <time>2023-11-14T15:37:03Z</time>
      </trkpt>
      <trkpt lat="47.10063" lon="-1.28765">
        <ele>29</ele>
        <time>2023-11-14T15:37:53Z</time>
      </trkpt>
      <trkpt lat="47.10046" lon="-1.28752">
        <ele>29</ele>
        <time>2023-11-14T15:38:18Z</time>
      </trkpt>
      <trkpt lat="47.10032" lon="-1.2877">
        <ele>29</ele>
        <time>2023-11-14T15:38:43Z</time>
      </trkpt>
      <trkpt lat="47.10012" lon="-1.28816">
        <ele>29</ele>
        <time>2023-11-14T15:39:32Z</time>
      </trkpt>
      <trkpt lat="47.09972" lon="-1.28876">
        <ele>26</ele>
        <time>2023-11-14T15:40:49Z</time>
      </trkpt>
      <trkpt lat="47.09958" lon="-1.28893">
        <ele>24</ele>
        <time>2023-11-14T15:41:13Z</time>
      </trkpt>
      <trkpt lat="47.09949" lon="-1.28916">
        <ele>23</ele>
        <time>2023-11-14T15:41:37Z</time>
      </trkpt>
      <trkpt lat="47.0993" lon="-1.28919">
        <ele>22</ele>
        <time>2023-11-14T15:42:03Z</time>
      </trkpt>
      <trkpt lat="47.09917" lon="-1.28937">
        <ele>20</ele>
        <time>2023-11-14T15:42:26Z</time>
      </trkpt>
      <trkpt lat="47.099" lon="-1.28945">
        <ele>17</ele>
        <time>2023-11-14T15:42:50Z</time>
      </trkpt>
      <trkpt lat="47.09849" lon="-1.28982">
        <ele>10</ele>
        <time>2023-11-14T15:44:06Z</time>
      </trkpt>
      <trkpt lat="47.09832" lon="-1.28991">
        <ele>8</ele>
        <time>2023-11-14T15:44:30Z</time>
      </trkpt>
      <trkpt lat="47.09816" lon="-1.28976">
        <ele>11</ele>
        <time>2023-11-14T15:44:56Z</time>
      </trkpt>
      <trkpt lat="47.098" lon="-1.28898">
        <ele>13</ele>
        <time>2023-11-14T15:46:10Z</time>
      </trkpt>
      <trkpt lat="47.098" lon="-1.28872">
        <ele>13</ele>
        <time>2023-11-14T15:46:33Z</time>
      </trkpt>
      <trkpt lat="47.09804" lon="-1.28845">
        <ele>12</ele>
        <time>2023-11-14T15:46:58Z</time>
      </trkpt>
      <trkpt lat="47.09814" lon="-1.28823">
        <ele>12</ele>
        <time>2023-11-14T15:47:22Z</time>
      </trkpt>
      <trkpt lat="47.0982" lon="-1.28796">
        <ele>12</ele>
        <time>2023-11-14T15:47:48Z</time>
      </trkpt>
      <trkpt lat="47.09822" lon="-1.28768">
        <ele>11</ele>
        <time>2023-11-14T15:48:14Z</time>
      </trkpt>
      <trkpt lat="47.09805" lon="-1.2872">
        <ele>11</ele>
        <time>2023-11-14T15:49:03Z</time>
      </trkpt>
      <trkpt lat="47.09795" lon="-1.28698">
        <ele>11</ele>
        <time>2023-11-14T15:49:27Z</time>
      </trkpt>
      <trkpt lat="47.09782" lon="-1.28678">
        <ele>11</ele>
        <time>2023-11-14T15:49:52Z</time>
      </trkpt>
      <trkpt lat="47.09766" lon="-1.28664">
        <ele>11</ele>
        <time>2023-11-14T15:50:17Z</time>
      </trkpt>
      <trkpt lat="47.09697" lon="-1.28623">
        <ele>12</ele>
        <time>2023-11-14T15:51:56Z</time>
      </trkpt>
      <trkpt lat="47.09682" lon="-1.28606">
        <ele>13</ele>
        <time>2023-11-14T15:52:22Z</time>
      </trkpt>
      <trkpt lat="47.09665" lon="-1.28601">
        <ele>13</ele>
        <time>2023-11-14T15:52:45Z</time>
      </trkpt>
      <trkpt lat="47.09649" lon="-1.28588">
        <ele>13</ele>
        <time>2023-11-14T15:53:09Z</time>
      </trkpt>
      <trkpt lat="47.09631" lon="-1.28579">
        <ele>13</ele>
        <time>2023-11-14T15:53:34Z</time>
      </trkpt>
      <trkpt lat="47.09598" lon="-1.28555">
        <ele>15</ele>
        <time>2023-11-14T15:54:24Z</time>
      </trkpt>
      <trkpt lat="47.09584" lon="-1.28535">
        <ele>17</ele>
        <time>2023-11-14T15:54:50Z</time>
      </trkpt>
      <trkpt lat="47.09539" lon="-1.28486">
        <ele>20</ele>
        <time>2023-11-14T15:56:04Z</time>
      </trkpt>
      <trkpt lat="47.09501" lon="-1.28482">
        <ele>18</ele>
        <time>2023-11-14T15:56:55Z</time>
      </trkpt>
      <trkpt lat="47.09483" lon="-1.28474">
        <ele>18</ele>
        <time>2023-11-14T15:57:20Z</time>
      </trkpt>
      <trkpt lat="47.09426" lon="-1.28466">
        <ele>16</ele>
        <time>2023-11-14T15:58:37Z</time>
      </trkpt>
      <trkpt lat="47.09339" lon="-1.28411">
        <ele>15</ele>
        <time>2023-11-14T16:00:43Z</time>
      </trkpt>
      <trkpt lat="47.09325" lon="-1.28392">
        <ele>16</ele>
        <time>2023-11-14T16:01:09Z</time>
      </trkpt>
      <trkpt lat="47.09315" lon="-1.28369">
        <ele>17</ele>
        <time>2023-11-14T16:01:33Z</time>
      </trkpt>
      <trkpt lat="47.09286" lon="-1.28335">
        <ele>18</ele>
        <time>2023-11-14T16:02:23Z</time>
      </trkpt>
      <trkpt lat="47.09255" lon="-1.28304">
        <ele>19</ele>
        <time>2023-11-14T16:03:13Z</time>
      </trkpt>
      <trkpt lat="47.09223" lon="-1.28277">
        <ele>19</ele>
        <time>2023-11-14T16:04:02Z</time>
      </trkpt>
      <trkpt lat="47.0921" lon="-1.28257">
        <ele>19</ele>
        <time>2023-11-14T16:04:27Z</time>
      </trkpt>
      <trkpt lat="47.09204" lon="-1.28231">
        <ele>20</ele>
        <time>2023-11-14T16:04:52Z</time>
      </trkpt>
      <trkpt lat="47.09205" lon="-1.28204">
        <ele>21</ele>
        <time>2023-11-14T16:05:17Z</time>
      </trkpt>
      <trkpt lat="47.09215" lon="-1.28181">
        <ele>23</ele>
        <time>2023-11-14T16:05:42Z</time>
      </trkpt>
      <trkpt lat="47.09218" lon="-1.28155">
        <ele>24</ele>
        <time>2023-11-14T16:06:06Z</time>
      </trkpt>
      <trkpt lat="47.09182" lon="-1.28162">
        <ele>22</ele>
        <time>2023-11-14T16:06:54Z</time>
      </trkpt>
      <trkpt lat="47.09163" lon="-1.28156">
        <ele>21</ele>
        <time>2023-11-14T16:07:20Z</time>
      </trkpt>
      <trkpt lat="47.09146" lon="-1.28147">
        <ele>20</ele>
        <time>2023-11-14T16:07:44Z</time>
      </trkpt>
      <trkpt lat="47.09133" lon="-1.28125">
        <ele>22</ele>
        <time>2023-11-14T16:08:11Z</time>
      </trkpt>
      <trkpt lat="47.09118" lon="-1.28109">
        <ele>22</ele>
        <time>2023-11-14T16:08:35Z</time>
      </trkpt>
      <trkpt lat="47.09102" lon="-1.28098">
        <ele>22</ele>
        <time>2023-11-14T16:08:59Z</time>
      </trkpt>
      <trkpt lat="47.09084" lon="-1.28101">
        <ele>21</ele>
        <time>2023-11-14T16:09:23Z</time>
      </trkpt>
      <trkpt lat="47.0907" lon="-1.28117">
        <ele>19</ele>
        <time>2023-11-14T16:09:47Z</time>
      </trkpt>
      <trkpt lat="47.09042" lon="-1.28188">
        <ele>15</ele>
        <time>2023-11-14T16:11:01Z</time>
      </trkpt>
      <trkpt lat="47.09026" lon="-1.28239">
        <ele>18</ele>
        <time>2023-11-14T16:11:52Z</time>
      </trkpt>
      <trkpt lat="47.09021" lon="-1.28264">
        <ele>19</ele>
        <time>2023-11-14T16:12:16Z</time>
      </trkpt>
      <trkpt lat="47.08982" lon="-1.28258">
        <ele>24</ele>
        <time>2023-11-14T16:13:08Z</time>
      </trkpt>
      <trkpt lat="47.08969" lon="-1.28275">
        <ele>26</ele>
        <time>2023-11-14T16:13:31Z</time>
      </trkpt>
      <trkpt lat="47.08953" lon="-1.2829">
        <ele>29</ele>
        <time>2023-11-14T16:13:57Z</time>
      </trkpt>
      <trkpt lat="47.08936" lon="-1.28278">
        <ele>31</ele>
        <time>2023-11-14T16:14:22Z</time>
      </trkpt>
      <trkpt lat="47.089" lon="-1.28279">
        <ele>34</ele>
        <time>2023-11-14T16:15:10Z</time>
      </trkpt>
      <trkpt lat="47.08886" lon="-1.28297">
        <ele>35</ele>
        <time>2023-11-14T16:15:35Z</time>
      </trkpt>
      <trkpt lat="47.08877" lon="-1.2832">
        <ele>36</ele>
        <time>2023-11-14T16:15:59Z</time>
      </trkpt>
      <trkpt lat="47.08858" lon="-1.28315">
        <ele>37</ele>
        <time>2023-11-14T16:16:25Z</time>
      </trkpt>
      <trkpt lat="47.08821" lon="-1.28318">
        <ele>37</ele>
        <time>2023-11-14T16:17:14Z</time>
      </trkpt>
      <trkpt lat="47.08804" lon="-1.28323">
        <ele>38</ele>
        <time>2023-11-14T16:17:37Z</time>
      </trkpt>
      <trkpt lat="47.08768" lon="-1.28341">
        <ele>39</ele>
        <time>2023-11-14T16:18:28Z</time>
      </trkpt>
      <trkpt lat="47.08768" lon="-1.28368">
        <ele>39</ele>
        <time>2023-11-14T16:18:53Z</time>
      </trkpt>
      <trkpt lat="47.08764" lon="-1.28395">
        <ele>39</ele>
        <time>2023-11-14T16:19:18Z</time>
      </trkpt>
      <trkpt lat="47.08736" lon="-1.28432">
        <ele>39</ele>
        <time>2023-11-14T16:20:08Z</time>
      </trkpt>
      <trkpt lat="47.08718" lon="-1.28434">
        <ele>40</ele>
        <time>2023-11-14T16:20:32Z</time>
      </trkpt>
      <trkpt lat="47.08701" lon="-1.28484">
        <ele>40</ele>
        <time>2023-11-14T16:21:23Z</time>
      </trkpt>
      <trkpt lat="47.08662" lon="-1.28539">
        <ele>41</ele>
        <time>2023-11-14T16:22:35Z</time>
      </trkpt>
      <trkpt lat="47.08644" lon="-1.28546">
        <ele>41</ele>
        <time>2023-11-14T16:23:00Z</time>
      </trkpt>
      <trkpt lat="47.08634" lon="-1.2857">
        <ele>41</ele>
        <time>2023-11-14T16:23:25Z</time>
      </trkpt>
      <trkpt lat="47.08631" lon="-1.28597">
        <ele>41</ele>
        <time>2023-11-14T16:23:50Z</time>
      </trkpt>
      <trkpt lat="47.08617" lon="-1.28616">
        <ele>41</ele>
        <time>2023-11-14T16:24:16Z</time>
      </trkpt>
    </trkseg>
  </trk>
  <trk>
    <name><![CDATA[Vertou_CheneChateauThebaud_21.3km-15824577]]></name>
    <extensions>
      <line xmlns="http://www.topografix.com/GPX/gpx_style/0/2">
        <color>FF0000</color>
        <width>4</width>
      </line>
    </extensions>
    <trkseg>
      <trkpt lat="47.16584" lon="-1.47958">
        <ele>6</ele>
        <time>2023-11-14T06:25:48Z</time>
      </trkpt>
      <trkpt lat="47.16575" lon="-1.47984">
        <ele>5</ele>
        <time>2023-11-14T06:26:14Z</time>
      </trkpt>
      <trkpt lat="47.16556" lon="-1.48">
        <ele>5</ele>
        <time>2023-11-14T06:26:44Z</time>
      </trkpt>
      <trkpt lat="47.16535" lon="-1.4801">
        <ele>5</ele>
        <time>2023-11-14T06:27:13Z</time>
      </trkpt>
      <trkpt lat="47.1652" lon="-1.48033">
        <ele>5</ele>
        <time>2023-11-14T06:27:42Z</time>
      </trkpt>
      <trkpt lat="47.16509" lon="-1.48061">
        <ele>5</ele>
        <time>2023-11-14T06:28:11Z</time>
      </trkpt>
      <trkpt lat="47.16506" lon="-1.48119">
        <ele>5</ele>
        <time>2023-11-14T06:29:04Z</time>
      </trkpt>
      <trkpt lat="47.16511" lon="-1.48146">
        <ele>4</ele>
        <time>2023-11-14T06:29:30Z</time>
      </trkpt>
      <trkpt lat="47.16499" lon="-1.48168">
        <ele>4</ele>
        <time>2023-11-14T06:29:55Z</time>
      </trkpt>
      <trkpt lat="47.1648" lon="-1.48181">
        <ele>5</ele>
        <time>2023-11-14T06:30:23Z</time>
      </trkpt>
      <trkpt lat="47.16461" lon="-1.48198">
        <ele>5</ele>
        <time>2023-11-14T06:30:53Z</time>
      </trkpt>
      <trkpt lat="47.16439" lon="-1.48201">
        <ele>5</ele>
        <time>2023-11-14T06:31:22Z</time>
      </trkpt>
      <trkpt lat="47.1642" lon="-1.48201">
        <ele>5</ele>
        <time>2023-11-14T06:31:48Z</time>
      </trkpt>
      <trkpt lat="47.16355" lon="-1.48193">
        <ele>8</ele>
        <time>2023-11-14T06:33:15Z</time>
      </trkpt>
      <trkpt lat="47.16333" lon="-1.48184">
        <ele>9</ele>
        <time>2023-11-14T06:33:45Z</time>
      </trkpt>
      <trkpt lat="47.16315" lon="-1.48165">
        <ele>9</ele>
        <time>2023-11-14T06:34:15Z</time>
      </trkpt>
      <trkpt lat="47.16268" lon="-1.48106">
        <ele>9</ele>
        <time>2023-11-14T06:35:37Z</time>
      </trkpt>
      <trkpt lat="47.1625" lon="-1.48089">
        <ele>8</ele>
        <time>2023-11-14T06:36:06Z</time>
      </trkpt>
      <trkpt lat="47.16239" lon="-1.48065">
        <ele>8</ele>
        <time>2023-11-14T06:36:32Z</time>
      </trkpt>
      <trkpt lat="47.16205" lon="-1.48029">
        <ele>7</ele>
        <time>2023-11-14T06:37:28Z</time>
      </trkpt>
      <trkpt lat="47.16193" lon="-1.48">
        <ele>6</ele>
        <time>2023-11-14T06:37:59Z</time>
      </trkpt>
      <trkpt lat="47.16196" lon="-1.47972">
        <ele>5</ele>
        <time>2023-11-14T06:38:24Z</time>
      </trkpt>
      <trkpt lat="47.16187" lon="-1.47943">
        <ele>5</ele>
        <time>2023-11-14T06:38:53Z</time>
      </trkpt>
      <trkpt lat="47.16172" lon="-1.47923">
        <ele>5</ele>
        <time>2023-11-14T06:39:20Z</time>
      </trkpt>
      <trkpt lat="47.1616" lon="-1.47894">
        <ele>5</ele>
        <time>2023-11-14T06:39:51Z</time>
      </trkpt>
      <trkpt lat="47.16157" lon="-1.47863">
        <ele>5</ele>
        <time>2023-11-14T06:40:20Z</time>
      </trkpt>
      <trkpt lat="47.16146" lon="-1.47804">
        <ele>5</ele>
        <time>2023-11-14T06:41:15Z</time>
      </trkpt>
      <trkpt lat="47.1613" lon="-1.47786">
        <ele>5</ele>
        <time>2023-11-14T06:41:42Z</time>
      </trkpt>
      <trkpt lat="47.16089" lon="-1.47675">
        <ele>5</ele>
        <time>2023-11-14T06:43:37Z</time>
      </trkpt>
      <trkpt lat="47.16063" lon="-1.47631">
        <ele>5</ele>
        <time>2023-11-14T06:44:29Z</time>
      </trkpt>
      <trkpt lat="47.16053" lon="-1.47606">
        <ele>5</ele>
        <time>2023-11-14T06:44:56Z</time>
      </trkpt>
      <trkpt lat="47.16038" lon="-1.4758">
        <ele>6</ele>
        <time>2023-11-14T06:45:27Z</time>
      </trkpt>
      <trkpt lat="47.16022" lon="-1.47561">
        <ele>6</ele>
        <time>2023-11-14T06:45:54Z</time>
      </trkpt>
      <trkpt lat="47.15993" lon="-1.47514">
        <ele>8</ele>
        <time>2023-11-14T06:46:52Z</time>
      </trkpt>
      <trkpt lat="47.15945" lon="-1.47463">
        <ele>8</ele>
        <time>2023-11-14T06:48:11Z</time>
      </trkpt>
      <trkpt lat="47.15926" lon="-1.47452">
        <ele>8</ele>
        <time>2023-11-14T06:48:38Z</time>
      </trkpt>
      <trkpt lat="47.15911" lon="-1.47435">
        <ele>9</ele>
        <time>2023-11-14T06:49:03Z</time>
      </trkpt>
      <trkpt lat="47.15886" lon="-1.47387">
        <ele>10</ele>
        <time>2023-11-14T06:49:58Z</time>
      </trkpt>
      <trkpt lat="47.15872" lon="-1.47366">
        <ele>10</ele>
        <time>2023-11-14T06:50:25Z</time>
      </trkpt>
      <trkpt lat="47.15863" lon="-1.47341">
        <ele>10</ele>
        <time>2023-11-14T06:50:51Z</time>
      </trkpt>
      <trkpt lat="47.15837" lon="-1.47302">
        <ele>9</ele>
        <time>2023-11-14T06:51:40Z</time>
      </trkpt>
      <trkpt lat="47.15818" lon="-1.47283">
        <ele>9</ele>
        <time>2023-11-14T06:52:11Z</time>
      </trkpt>
      <trkpt lat="47.15791" lon="-1.47285">
        <ele>7</ele>
        <time>2023-11-14T06:52:47Z</time>
      </trkpt>
      <trkpt lat="47.15751" lon="-1.47278">
        <ele>5</ele>
        <time>2023-11-14T06:53:41Z</time>
      </trkpt>
      <trkpt lat="47.1573" lon="-1.47271">
        <ele>5</ele>
        <time>2023-11-14T06:54:09Z</time>
      </trkpt>
      <trkpt lat="47.15672" lon="-1.47264">
        <ele>4</ele>
        <time>2023-11-14T06:55:27Z</time>
      </trkpt>
      <trkpt lat="47.15653" lon="-1.4725">
        <ele>4</ele>
        <time>2023-11-14T06:55:55Z</time>
      </trkpt>
      <trkpt lat="47.15629" lon="-1.47237">
        <ele>5</ele>
        <time>2023-11-14T06:56:29Z</time>
      </trkpt>
      <trkpt lat="47.15608" lon="-1.47233">
        <ele>6</ele>
        <time>2023-11-14T06:56:58Z</time>
      </trkpt>
      <trkpt lat="47.15589" lon="-1.47235">
        <ele>6</ele>
        <time>2023-11-14T06:57:23Z</time>
      </trkpt>
      <trkpt lat="47.1557" lon="-1.4723">
        <ele>7</ele>
        <time>2023-11-14T06:57:49Z</time>
      </trkpt>
      <trkpt lat="47.15551" lon="-1.47221">
        <ele>7</ele>
        <time>2023-11-14T06:58:16Z</time>
      </trkpt>
      <trkpt lat="47.15491" lon="-1.47201">
        <ele>7</ele>
        <time>2023-11-14T06:59:38Z</time>
      </trkpt>
      <trkpt lat="47.15453" lon="-1.47183">
        <ele>7</ele>
        <time>2023-11-14T07:00:31Z</time>
      </trkpt>
      <trkpt lat="47.15435" lon="-1.47183">
        <ele>7</ele>
        <time>2023-11-14T07:00:55Z</time>
      </trkpt>
      <trkpt lat="47.15356" lon="-1.47141">
        <ele>5</ele>
        <time>2023-11-14T07:02:47Z</time>
      </trkpt>
      <trkpt lat="47.15277" lon="-1.47107">
        <ele>6</ele>
        <time>2023-11-14T07:04:37Z</time>
      </trkpt>
      <trkpt lat="47.15215" lon="-1.47076">
        <ele>6</ele>
        <time>2023-11-14T07:06:04Z</time>
      </trkpt>
      <trkpt lat="47.15179" lon="-1.47051">
        <ele>7</ele>
        <time>2023-11-14T07:06:57Z</time>
      </trkpt>
      <trkpt lat="47.15165" lon="-1.47033">
        <ele>7</ele>
        <time>2023-11-14T07:07:22Z</time>
      </trkpt>
      <trkpt lat="47.15146" lon="-1.46978">
        <ele>7</ele>
        <time>2023-11-14T07:08:18Z</time>
      </trkpt>
      <trkpt lat="47.15125" lon="-1.46928">
        <ele>6</ele>
        <time>2023-11-14T07:09:12Z</time>
      </trkpt>
      <trkpt lat="47.15124" lon="-1.469">
        <ele>4</ele>
        <time>2023-11-14T07:09:37Z</time>
      </trkpt>
      <trkpt lat="47.15119" lon="-1.46873">
        <ele>3</ele>
        <time>2023-11-14T07:10:02Z</time>
      </trkpt>
      <trkpt lat="47.15102" lon="-1.46859">
        <ele>3</ele>
        <time>2023-11-14T07:10:28Z</time>
      </trkpt>
      <trkpt lat="47.15082" lon="-1.46855">
        <ele>3</ele>
        <time>2023-11-14T07:10:55Z</time>
      </trkpt>
      <trkpt lat="47.15041" lon="-1.46864">
        <ele>7</ele>
        <time>2023-11-14T07:11:51Z</time>
      </trkpt>
      <trkpt lat="47.15021" lon="-1.46863">
        <ele>9</ele>
        <time>2023-11-14T07:12:17Z</time>
      </trkpt>
      <trkpt lat="47.15005" lon="-1.46876">
        <ele>11</ele>
        <time>2023-11-14T07:12:42Z</time>
      </trkpt>
      <trkpt lat="47.15009" lon="-1.46903">
        <ele>12</ele>
        <time>2023-11-14T07:13:07Z</time>
      </trkpt>
      <trkpt lat="47.1503" lon="-1.46912">
        <ele>10</ele>
        <time>2023-11-14T07:13:36Z</time>
      </trkpt>
      <trkpt lat="47.15045" lon="-1.46897">
        <ele>8</ele>
        <time>2023-11-14T07:14:00Z</time>
      </trkpt>
      <trkpt lat="47.15052" lon="-1.46872">
        <ele>6</ele>
        <time>2023-11-14T07:14:25Z</time>
      </trkpt>
      <trkpt lat="47.15048" lon="-1.46846">
        <ele>6</ele>
        <time>2023-11-14T07:14:49Z</time>
      </trkpt>
      <trkpt lat="47.15033" lon="-1.46819">
        <ele>6</ele>
        <time>2023-11-14T07:15:21Z</time>
      </trkpt>
      <trkpt lat="47.15025" lon="-1.46792">
        <ele>7</ele>
        <time>2023-11-14T07:15:47Z</time>
      </trkpt>
      <trkpt lat="47.15019" lon="-1.46755">
        <ele>7</ele>
        <time>2023-11-14T07:16:22Z</time>
      </trkpt>
      <trkpt lat="47.15017" lon="-1.46725">
        <ele>8</ele>
        <time>2023-11-14T07:16:49Z</time>
      </trkpt>
      <trkpt lat="47.15002" lon="-1.46707">
        <ele>9</ele>
        <time>2023-11-14T07:17:15Z</time>
      </trkpt>
      <trkpt lat="47.1499" lon="-1.46684">
        <ele>11</ele>
        <time>2023-11-14T07:17:41Z</time>
      </trkpt>
      <trkpt lat="47.14986" lon="-1.46656">
        <ele>12</ele>
        <time>2023-11-14T07:18:07Z</time>
      </trkpt>
      <trkpt lat="47.14986" lon="-1.46626">
        <ele>11</ele>
        <time>2023-11-14T07:18:34Z</time>
      </trkpt>
      <trkpt lat="47.1498" lon="-1.46591">
        <ele>12</ele>
        <time>2023-11-14T07:19:07Z</time>
      </trkpt>
      <trkpt lat="47.14979" lon="-1.46561">
        <ele>11</ele>
        <time>2023-11-14T07:19:35Z</time>
      </trkpt>
      <trkpt lat="47.14972" lon="-1.46535">
        <ele>12</ele>
        <time>2023-11-14T07:20:00Z</time>
      </trkpt>
      <trkpt lat="47.14973" lon="-1.46473">
        <ele>13</ele>
        <time>2023-11-14T07:20:56Z</time>
      </trkpt>
      <trkpt lat="47.14982" lon="-1.46443">
        <ele>12</ele>
        <time>2023-11-14T07:21:26Z</time>
      </trkpt>
      <trkpt lat="47.14983" lon="-1.46417">
        <ele>12</ele>
        <time>2023-11-14T07:21:50Z</time>
      </trkpt>
      <trkpt lat="47.14991" lon="-1.4639">
        <ele>11</ele>
        <time>2023-11-14T07:22:16Z</time>
      </trkpt>
      <trkpt lat="47.14993" lon="-1.46361">
        <ele>10</ele>
        <time>2023-11-14T07:22:43Z</time>
      </trkpt>
      <trkpt lat="47.14989" lon="-1.46334">
        <ele>11</ele>
        <time>2023-11-14T07:23:08Z</time>
      </trkpt>
      <trkpt lat="47.14991" lon="-1.463">
        <ele>11</ele>
        <time>2023-11-14T07:23:39Z</time>
      </trkpt>
      <trkpt lat="47.14979" lon="-1.4624">
        <ele>16</ele>
        <time>2023-11-14T07:24:36Z</time>
      </trkpt>
      <trkpt lat="47.1501" lon="-1.46211">
        <ele>11</ele>
        <time>2023-11-14T07:25:25Z</time>
      </trkpt>
      <trkpt lat="47.1502" lon="-1.4618">
        <ele>11</ele>
        <time>2023-11-14T07:25:56Z</time>
      </trkpt>
      <trkpt lat="47.15021" lon="-1.46153">
        <ele>11</ele>
        <time>2023-11-14T07:26:20Z</time>
      </trkpt>
      <trkpt lat="47.15032" lon="-1.46128">
        <ele>9</ele>
        <time>2023-11-14T07:26:47Z</time>
      </trkpt>
      <trkpt lat="47.15031" lon="-1.46089">
        <ele>9</ele>
        <time>2023-11-14T07:27:23Z</time>
      </trkpt>
      <trkpt lat="47.15022" lon="-1.4606">
        <ele>10</ele>
        <time>2023-11-14T07:27:52Z</time>
      </trkpt>
      <trkpt lat="47.15018" lon="-1.46026">
        <ele>9</ele>
        <time>2023-11-14T07:28:23Z</time>
      </trkpt>
      <trkpt lat="47.15009" lon="-1.45999">
        <ele>9</ele>
        <time>2023-11-14T07:28:50Z</time>
      </trkpt>
      <trkpt lat="47.15004" lon="-1.45971">
        <ele>10</ele>
        <time>2023-11-14T07:29:17Z</time>
      </trkpt>
      <trkpt lat="47.15029" lon="-1.45888">
        <ele>8</ele>
        <time>2023-11-14T07:30:39Z</time>
      </trkpt>
      <trkpt lat="47.15028" lon="-1.45855">
        <ele>8</ele>
        <time>2023-11-14T07:31:09Z</time>
      </trkpt>
      <trkpt lat="47.15024" lon="-1.45823">
        <ele>8</ele>
        <time>2023-11-14T07:31:38Z</time>
      </trkpt>
      <trkpt lat="47.15031" lon="-1.45761">
        <ele>8</ele>
        <time>2023-11-14T07:32:35Z</time>
      </trkpt>
      <trkpt lat="47.15029" lon="-1.45673">
        <ele>9</ele>
        <time>2023-11-14T07:33:55Z</time>
      </trkpt>
      <trkpt lat="47.15032" lon="-1.45615">
        <ele>9</ele>
        <time>2023-11-14T07:34:48Z</time>
      </trkpt>
      <trkpt lat="47.15051" lon="-1.45527">
        <ele>9</ele>
        <time>2023-11-14T07:36:12Z</time>
      </trkpt>
      <trkpt lat="47.1507" lon="-1.45468">
        <ele>8</ele>
        <time>2023-11-14T07:37:11Z</time>
      </trkpt>
      <trkpt lat="47.1507" lon="-1.45438">
        <ele>9</ele>
        <time>2023-11-14T07:37:38Z</time>
      </trkpt>
      <trkpt lat="47.15102" lon="-1.45404">
        <ele>8</ele>
        <time>2023-11-14T07:38:31Z</time>
      </trkpt>
      <trkpt lat="47.15114" lon="-1.4538">
        <ele>7</ele>
        <time>2023-11-14T07:38:58Z</time>
      </trkpt>
      <trkpt lat="47.15117" lon="-1.4535">
        <ele>7</ele>
        <time>2023-11-14T07:39:26Z</time>
      </trkpt>
      <trkpt lat="47.15127" lon="-1.45327">
        <ele>7</ele>
        <time>2023-11-14T07:39:50Z</time>
      </trkpt>
      <trkpt lat="47.15118" lon="-1.45302">
        <ele>8</ele>
        <time>2023-11-14T07:40:16Z</time>
      </trkpt>
      <trkpt lat="47.15098" lon="-1.45288">
        <ele>10</ele>
        <time>2023-11-14T07:40:46Z</time>
      </trkpt>
      <trkpt lat="47.15075" lon="-1.45291">
        <ele>13</ele>
        <time>2023-11-14T07:41:16Z</time>
      </trkpt>
      <trkpt lat="47.15059" lon="-1.45279">
        <ele>15</ele>
        <time>2023-11-14T07:41:40Z</time>
      </trkpt>
      <trkpt lat="47.1507" lon="-1.45254">
        <ele>14</ele>
        <time>2023-11-14T07:42:07Z</time>
      </trkpt>
      <trkpt lat="47.1506" lon="-1.4523">
        <ele>15</ele>
        <time>2023-11-14T07:42:33Z</time>
      </trkpt>
      <trkpt lat="47.15072" lon="-1.45209">
        <ele>14</ele>
        <time>2023-11-14T07:42:58Z</time>
      </trkpt>
      <trkpt lat="47.1507" lon="-1.4518">
        <ele>14</ele>
        <time>2023-11-14T07:43:24Z</time>
      </trkpt>
      <trkpt lat="47.15076" lon="-1.45148">
        <ele>13</ele>
        <time>2023-11-14T07:43:54Z</time>
      </trkpt>
      <trkpt lat="47.15071" lon="-1.45091">
        <ele>14</ele>
        <time>2023-11-14T07:44:47Z</time>
      </trkpt>
      <trkpt lat="47.15074" lon="-1.45063">
        <ele>13</ele>
        <time>2023-11-14T07:45:12Z</time>
      </trkpt>
      <trkpt lat="47.15065" lon="-1.45038">
        <ele>13</ele>
        <time>2023-11-14T07:45:38Z</time>
      </trkpt>
      <trkpt lat="47.15061" lon="-1.45008">
        <ele>13</ele>
        <time>2023-11-14T07:46:06Z</time>
      </trkpt>
      <trkpt lat="47.15072" lon="-1.44951">
        <ele>12</ele>
        <time>2023-11-14T07:47:00Z</time>
      </trkpt>
      <trkpt lat="47.15043" lon="-1.44947">
        <ele>13</ele>
        <time>2023-11-14T07:47:38Z</time>
      </trkpt>
      <trkpt lat="47.15026" lon="-1.44956">
        <ele>14</ele>
        <time>2023-11-14T07:48:03Z</time>
      </trkpt>
      <trkpt lat="47.15003" lon="-1.44955">
        <ele>15</ele>
        <time>2023-11-14T07:48:33Z</time>
      </trkpt>
      <trkpt lat="47.14983" lon="-1.44958">
        <ele>17</ele>
        <time>2023-11-14T07:49:00Z</time>
      </trkpt>
      <trkpt lat="47.14964" lon="-1.44955">
        <ele>18</ele>
        <time>2023-11-14T07:49:26Z</time>
      </trkpt>
      <trkpt lat="47.14943" lon="-1.44957">
        <ele>19</ele>
        <time>2023-11-14T07:49:54Z</time>
      </trkpt>
      <trkpt lat="47.14886" lon="-1.44992">
        <ele>22</ele>
        <time>2023-11-14T07:51:16Z</time>
      </trkpt>
      <trkpt lat="47.14867" lon="-1.44993">
        <ele>23</ele>
        <time>2023-11-14T07:51:41Z</time>
      </trkpt>
      <trkpt lat="47.14846" lon="-1.4499">
        <ele>23</ele>
        <time>2023-11-14T07:52:10Z</time>
      </trkpt>
      <trkpt lat="47.14827" lon="-1.44982">
        <ele>24</ele>
        <time>2023-11-14T07:52:36Z</time>
      </trkpt>
      <trkpt lat="47.14786" lon="-1.44975">
        <ele>24</ele>
        <time>2023-11-14T07:53:31Z</time>
      </trkpt>
      <trkpt lat="47.14767" lon="-1.44968">
        <ele>24</ele>
        <time>2023-11-14T07:53:57Z</time>
      </trkpt>
      <trkpt lat="47.14749" lon="-1.44965">
        <ele>24</ele>
        <time>2023-11-14T07:54:21Z</time>
      </trkpt>
      <trkpt lat="47.14729" lon="-1.44975">
        <ele>24</ele>
        <time>2023-11-14T07:54:50Z</time>
      </trkpt>
      <trkpt lat="47.1471" lon="-1.44972">
        <ele>24</ele>
        <time>2023-11-14T07:55:15Z</time>
      </trkpt>
      <trkpt lat="47.1469" lon="-1.44965">
        <ele>24</ele>
        <time>2023-11-14T07:55:42Z</time>
      </trkpt>
      <trkpt lat="47.1467" lon="-1.44944">
        <ele>23</ele>
        <time>2023-11-14T07:56:15Z</time>
      </trkpt>
      <trkpt lat="47.14619" lon="-1.44909">
        <ele>24</ele>
        <time>2023-11-14T07:57:30Z</time>
      </trkpt>
      <trkpt lat="47.14602" lon="-1.44893">
        <ele>25</ele>
        <time>2023-11-14T07:57:57Z</time>
      </trkpt>
      <trkpt lat="47.14588" lon="-1.44873">
        <ele>25</ele>
        <time>2023-11-14T07:58:23Z</time>
      </trkpt>
      <trkpt lat="47.14579" lon="-1.44847">
        <ele>26</ele>
        <time>2023-11-14T07:58:50Z</time>
      </trkpt>
      <trkpt lat="47.14567" lon="-1.44823">
        <ele>26</ele>
        <time>2023-11-14T07:59:17Z</time>
      </trkpt>
      <trkpt lat="47.1455" lon="-1.44804">
        <ele>26</ele>
        <time>2023-11-14T07:59:45Z</time>
      </trkpt>
      <trkpt lat="47.14537" lon="-1.44784">
        <ele>27</ele>
        <time>2023-11-14T08:00:10Z</time>
      </trkpt>
      <trkpt lat="47.14514" lon="-1.44736">
        <ele>28</ele>
        <time>2023-11-14T08:01:04Z</time>
      </trkpt>
      <trkpt lat="47.14498" lon="-1.44723">
        <ele>28</ele>
        <time>2023-11-14T08:01:28Z</time>
      </trkpt>
      <trkpt lat="47.14458" lon="-1.44726">
        <ele>29</ele>
        <time>2023-11-14T08:02:22Z</time>
      </trkpt>
      <trkpt lat="47.14438" lon="-1.44714">
        <ele>29</ele>
        <time>2023-11-14T08:02:50Z</time>
      </trkpt>
      <trkpt lat="47.14427" lon="-1.44689">
        <ele>29</ele>
        <time>2023-11-14T08:03:17Z</time>
      </trkpt>
      <trkpt lat="47.14379" lon="-1.44533">
        <ele>27</ele>
        <time>2023-11-14T08:05:53Z</time>
      </trkpt>
      <trkpt lat="47.14369" lon="-1.44508">
        <ele>27</ele>
        <time>2023-11-14T08:06:19Z</time>
      </trkpt>
      <trkpt lat="47.14349" lon="-1.44519">
        <ele>28</ele>
        <time>2023-11-14T08:06:48Z</time>
      </trkpt>
      <trkpt lat="47.14336" lon="-1.4454">
        <ele>28</ele>
        <time>2023-11-14T08:07:13Z</time>
      </trkpt>
      <trkpt lat="47.14318" lon="-1.4455">
        <ele>29</ele>
        <time>2023-11-14T08:07:39Z</time>
      </trkpt>
      <trkpt lat="47.14262" lon="-1.44566">
        <ele>31</ele>
        <time>2023-11-14T08:08:55Z</time>
      </trkpt>
      <trkpt lat="47.14242" lon="-1.44575">
        <ele>31</ele>
        <time>2023-11-14T08:09:23Z</time>
      </trkpt>
      <trkpt lat="47.14224" lon="-1.44578">
        <ele>32</ele>
        <time>2023-11-14T08:09:47Z</time>
      </trkpt>
      <trkpt lat="47.14146" lon="-1.44609">
        <ele>37</ele>
        <time>2023-11-14T08:11:35Z</time>
      </trkpt>
      <trkpt lat="47.14132" lon="-1.44585">
        <ele>40</ele>
        <time>2023-11-14T08:12:04Z</time>
      </trkpt>
      <trkpt lat="47.14128" lon="-1.44558">
        <ele>40</ele>
        <time>2023-11-14T08:12:29Z</time>
      </trkpt>
      <trkpt lat="47.14121" lon="-1.44533">
        <ele>40</ele>
        <time>2023-11-14T08:12:54Z</time>
      </trkpt>
      <trkpt lat="47.14119" lon="-1.44506">
        <ele>39</ele>
        <time>2023-11-14T08:13:18Z</time>
      </trkpt>
      <trkpt lat="47.14108" lon="-1.44483">
        <ele>39</ele>
        <time>2023-11-14T08:13:44Z</time>
      </trkpt>
      <trkpt lat="47.14083" lon="-1.44396">
        <ele>38</ele>
        <time>2023-11-14T08:15:09Z</time>
      </trkpt>
      <trkpt lat="47.14079" lon="-1.44339">
        <ele>34</ele>
        <time>2023-11-14T08:16:01Z</time>
      </trkpt>
      <trkpt lat="47.14084" lon="-1.44367">
        <ele>36</ele>
        <time>2023-11-14T08:16:28Z</time>
      </trkpt>
      <trkpt lat="47.14085" lon="-1.44339">
        <ele>34</ele>
        <time>2023-11-14T08:16:53Z</time>
      </trkpt>
      <trkpt lat="47.14068" lon="-1.44286">
        <ele>31</ele>
        <time>2023-11-14T08:17:46Z</time>
      </trkpt>
      <trkpt lat="47.14053" lon="-1.44263">
        <ele>30</ele>
        <time>2023-11-14T08:18:15Z</time>
      </trkpt>
      <trkpt lat="47.14041" lon="-1.44239">
        <ele>28</ele>
        <time>2023-11-14T08:18:42Z</time>
      </trkpt>
      <trkpt lat="47.14057" lon="-1.44152">
        <ele>23</ele>
        <time>2023-11-14T08:20:04Z</time>
      </trkpt>
      <trkpt lat="47.14059" lon="-1.44124">
        <ele>22</ele>
        <time>2023-11-14T08:20:30Z</time>
      </trkpt>
      <trkpt lat="47.14066" lon="-1.44097">
        <ele>20</ele>
        <time>2023-11-14T08:20:56Z</time>
      </trkpt>
      <trkpt lat="47.14074" lon="-1.44073">
        <ele>19</ele>
        <time>2023-11-14T08:21:20Z</time>
      </trkpt>
      <trkpt lat="47.14094" lon="-1.44059">
        <ele>19</ele>
        <time>2023-11-14T08:21:50Z</time>
      </trkpt>
      <trkpt lat="47.14096" lon="-1.44031">
        <ele>19</ele>
        <time>2023-11-14T08:22:15Z</time>
      </trkpt>
      <trkpt lat="47.14094" lon="-1.43997">
        <ele>20</ele>
        <time>2023-11-14T08:22:46Z</time>
      </trkpt>
      <trkpt lat="47.14078" lon="-1.43981">
        <ele>21</ele>
        <time>2023-11-14T08:23:12Z</time>
      </trkpt>
      <trkpt lat="47.14039" lon="-1.43973">
        <ele>23</ele>
        <time>2023-11-14T08:24:05Z</time>
      </trkpt>
      <trkpt lat="47.14021" lon="-1.43972">
        <ele>24</ele>
        <time>2023-11-14T08:24:29Z</time>
      </trkpt>
      <trkpt lat="47.13985" lon="-1.43976">
        <ele>25</ele>
        <time>2023-11-14T08:25:17Z</time>
      </trkpt>
      <trkpt lat="47.13965" lon="-1.43971">
        <ele>26</ele>
        <time>2023-11-14T08:25:44Z</time>
      </trkpt>
      <trkpt lat="47.13944" lon="-1.43969">
        <ele>27</ele>
        <time>2023-11-14T08:26:12Z</time>
      </trkpt>
      <trkpt lat="47.13925" lon="-1.43974">
        <ele>27</ele>
        <time>2023-11-14T08:26:38Z</time>
      </trkpt>
      <trkpt lat="47.13886" lon="-1.43967">
        <ele>29</ele>
        <time>2023-11-14T08:27:30Z</time>
      </trkpt>
      <trkpt lat="47.1387" lon="-1.43955">
        <ele>29</ele>
        <time>2023-11-14T08:27:54Z</time>
      </trkpt>
      <trkpt lat="47.1385" lon="-1.43958">
        <ele>30</ele>
        <time>2023-11-14T08:28:21Z</time>
      </trkpt>
      <trkpt lat="47.13832" lon="-1.43969">
        <ele>30</ele>
        <time>2023-11-14T08:28:47Z</time>
      </trkpt>
      <trkpt lat="47.13812" lon="-1.43986">
        <ele>31</ele>
        <time>2023-11-14T08:29:18Z</time>
      </trkpt>
      <trkpt lat="47.13781" lon="-1.44019">
        <ele>33</ele>
        <time>2023-11-14T08:30:09Z</time>
      </trkpt>
      <trkpt lat="47.13743" lon="-1.44088">
        <ele>35</ele>
        <time>2023-11-14T08:31:29Z</time>
      </trkpt>
      <trkpt lat="47.13728" lon="-1.44102">
        <ele>36</ele>
        <time>2023-11-14T08:31:53Z</time>
      </trkpt>
      <trkpt lat="47.13698" lon="-1.4414">
        <ele>37</ele>
        <time>2023-11-14T08:32:46Z</time>
      </trkpt>
      <trkpt lat="47.13681" lon="-1.44156">
        <ele>37</ele>
        <time>2023-11-14T08:33:13Z</time>
      </trkpt>
      <trkpt lat="47.13625" lon="-1.44233">
        <ele>37</ele>
        <time>2023-11-14T08:34:55Z</time>
      </trkpt>
      <trkpt lat="47.13537" lon="-1.44181">
        <ele>40</ele>
        <time>2023-11-14T08:37:02Z</time>
      </trkpt>
      <trkpt lat="47.13519" lon="-1.4416">
        <ele>41</ele>
        <time>2023-11-14T08:37:33Z</time>
      </trkpt>
      <trkpt lat="47.13502" lon="-1.44145">
        <ele>42</ele>
        <time>2023-11-14T08:37:59Z</time>
      </trkpt>
      <trkpt lat="47.13461" lon="-1.44143">
        <ele>43</ele>
        <time>2023-11-14T08:38:54Z</time>
      </trkpt>
      <trkpt lat="47.1344" lon="-1.44138">
        <ele>44</ele>
        <time>2023-11-14T08:39:22Z</time>
      </trkpt>
      <trkpt lat="47.13422" lon="-1.44137">
        <ele>44</ele>
        <time>2023-11-14T08:39:46Z</time>
      </trkpt>
      <trkpt lat="47.13403" lon="-1.44141">
        <ele>45</ele>
        <time>2023-11-14T08:40:12Z</time>
      </trkpt>
      <trkpt lat="47.13385" lon="-1.44153">
        <ele>45</ele>
        <time>2023-11-14T08:40:38Z</time>
      </trkpt>
      <trkpt lat="47.13353" lon="-1.44184">
        <ele>45</ele>
        <time>2023-11-14T08:41:29Z</time>
      </trkpt>
      <trkpt lat="47.13318" lon="-1.44207">
        <ele>46</ele>
        <time>2023-11-14T08:42:20Z</time>
      </trkpt>
      <trkpt lat="47.13299" lon="-1.44217">
        <ele>46</ele>
        <time>2023-11-14T08:42:47Z</time>
      </trkpt>
      <trkpt lat="47.1328" lon="-1.44221">
        <ele>47</ele>
        <time>2023-11-14T08:43:13Z</time>
      </trkpt>
      <trkpt lat="47.1321" lon="-1.44175">
        <ele>49</ele>
        <time>2023-11-14T08:44:55Z</time>
      </trkpt>
      <trkpt lat="47.13152" lon="-1.44148">
        <ele>50</ele>
        <time>2023-11-14T08:46:17Z</time>
      </trkpt>
      <trkpt lat="47.13117" lon="-1.44124">
        <ele>51</ele>
        <time>2023-11-14T08:47:08Z</time>
      </trkpt>
      <trkpt lat="47.13095" lon="-1.44114">
        <ele>51</ele>
        <time>2023-11-14T08:47:39Z</time>
      </trkpt>
      <trkpt lat="47.13078" lon="-1.441">
        <ele>52</ele>
        <time>2023-11-14T08:48:05Z</time>
      </trkpt>
      <trkpt lat="47.13098" lon="-1.44014">
        <ele>52</ele>
        <time>2023-11-14T08:49:27Z</time>
      </trkpt>
      <trkpt lat="47.13113" lon="-1.43961">
        <ele>51</ele>
        <time>2023-11-14T08:50:19Z</time>
      </trkpt>
      <trkpt lat="47.13089" lon="-1.43911">
        <ele>51</ele>
        <time>2023-11-14T08:51:15Z</time>
      </trkpt>
      <trkpt lat="47.1304" lon="-1.43741">
        <ele>52</ele>
        <time>2023-11-14T08:54:03Z</time>
      </trkpt>
      <trkpt lat="47.13022" lon="-1.43688">
        <ele>53</ele>
        <time>2023-11-14T08:54:56Z</time>
      </trkpt>
      <trkpt lat="47.12986" lon="-1.43688">
        <ele>54</ele>
        <time>2023-11-14T08:55:44Z</time>
      </trkpt>
      <trkpt lat="47.12929" lon="-1.43703">
        <ele>55</ele>
        <time>2023-11-14T08:57:02Z</time>
      </trkpt>
      <trkpt lat="47.12891" lon="-1.43722">
        <ele>55</ele>
        <time>2023-11-14T08:57:55Z</time>
      </trkpt>
      <trkpt lat="47.12854" lon="-1.4375">
        <ele>54</ele>
        <time>2023-11-14T08:58:51Z</time>
      </trkpt>
      <trkpt lat="47.12836" lon="-1.43755">
        <ele>54</ele>
        <time>2023-11-14T08:59:15Z</time>
      </trkpt>
      <trkpt lat="47.12782" lon="-1.43792">
        <ele>53</ele>
        <time>2023-11-14T09:00:35Z</time>
      </trkpt>
      <trkpt lat="47.12738" lon="-1.43809">
        <ele>54</ele>
        <time>2023-11-14T09:01:35Z</time>
      </trkpt>
      <trkpt lat="47.12719" lon="-1.43814">
        <ele>54</ele>
        <time>2023-11-14T09:02:01Z</time>
      </trkpt>
      <trkpt lat="47.12639" lon="-1.43848">
        <ele>54</ele>
        <time>2023-11-14T09:03:52Z</time>
      </trkpt>
      <trkpt lat="47.1262" lon="-1.43851">
        <ele>54</ele>
        <time>2023-11-14T09:04:18Z</time>
      </trkpt>
      <trkpt lat="47.12601" lon="-1.43845">
        <ele>54</ele>
        <time>2023-11-14T09:04:44Z</time>
      </trkpt>
      <trkpt lat="47.12586" lon="-1.4383">
        <ele>55</ele>
        <time>2023-11-14T09:05:08Z</time>
      </trkpt>
      <trkpt lat="47.12534" lon="-1.43793">
        <ele>54</ele>
        <time>2023-11-14T09:06:25Z</time>
      </trkpt>
      <trkpt lat="47.12504" lon="-1.43758">
        <ele>55</ele>
        <time>2023-11-14T09:07:16Z</time>
      </trkpt>
      <trkpt lat="47.12454" lon="-1.43709">
        <ele>53</ele>
        <time>2023-11-14T09:08:36Z</time>
      </trkpt>
      <trkpt lat="47.12438" lon="-1.43689">
        <ele>52</ele>
        <time>2023-11-14T09:09:04Z</time>
      </trkpt>
      <trkpt lat="47.124" lon="-1.43622">
        <ele>51</ele>
        <time>2023-11-14T09:10:24Z</time>
      </trkpt>
      <trkpt lat="47.12273" lon="-1.43429">
        <ele>52</ele>
        <time>2023-11-14T09:14:27Z</time>
      </trkpt>
      <trkpt lat="47.12212" lon="-1.43308">
        <ele>52</ele>
        <time>2023-11-14T09:16:44Z</time>
      </trkpt>
      <trkpt lat="47.12161" lon="-1.43184">
        <ele>51</ele>
        <time>2023-11-14T09:18:56Z</time>
      </trkpt>
      <trkpt lat="47.12114" lon="-1.43097">
        <ele>52</ele>
        <time>2023-11-14T09:20:37Z</time>
      </trkpt>
      <trkpt lat="47.12088" lon="-1.43055">
        <ele>52</ele>
        <time>2023-11-14T09:21:28Z</time>
      </trkpt>
      <trkpt lat="47.12039" lon="-1.43014">
        <ele>51</ele>
        <time>2023-11-14T09:22:43Z</time>
      </trkpt>
      <trkpt lat="47.11985" lon="-1.42957">
        <ele>50</ele>
        <time>2023-11-14T09:24:12Z</time>
      </trkpt>
      <trkpt lat="47.11943" lon="-1.42887">
        <ele>50</ele>
        <time>2023-11-14T09:25:37Z</time>
      </trkpt>
      <trkpt lat="47.11914" lon="-1.42846">
        <ele>50</ele>
        <time>2023-11-14T09:26:31Z</time>
      </trkpt>
      <trkpt lat="47.11891" lon="-1.42802">
        <ele>49</ele>
        <time>2023-11-14T09:27:21Z</time>
      </trkpt>
      <trkpt lat="47.11876" lon="-1.42746">
        <ele>48</ele>
        <time>2023-11-14T09:28:16Z</time>
      </trkpt>
      <trkpt lat="47.11857" lon="-1.42692">
        <ele>47</ele>
        <time>2023-11-14T09:29:11Z</time>
      </trkpt>
      <trkpt lat="47.11821" lon="-1.42622">
        <ele>45</ele>
        <time>2023-11-14T09:30:30Z</time>
      </trkpt>
      <trkpt lat="47.11809" lon="-1.42567">
        <ele>45</ele>
        <time>2023-11-14T09:31:23Z</time>
      </trkpt>
      <trkpt lat="47.11783" lon="-1.42479">
        <ele>45</ele>
        <time>2023-11-14T09:32:50Z</time>
      </trkpt>
      <trkpt lat="47.11769" lon="-1.4242">
        <ele>45</ele>
        <time>2023-11-14T09:33:47Z</time>
      </trkpt>
      <trkpt lat="47.1176" lon="-1.42394">
        <ele>45</ele>
        <time>2023-11-14T09:34:13Z</time>
      </trkpt>
      <trkpt lat="47.11752" lon="-1.42338">
        <ele>43</ele>
        <time>2023-11-14T09:35:05Z</time>
      </trkpt>
      <trkpt lat="47.11745" lon="-1.42311">
        <ele>43</ele>
        <time>2023-11-14T09:35:31Z</time>
      </trkpt>
      <trkpt lat="47.11734" lon="-1.42287">
        <ele>42</ele>
        <time>2023-11-14T09:35:58Z</time>
      </trkpt>
      <trkpt lat="47.11703" lon="-1.42247">
        <ele>40</ele>
        <time>2023-11-14T09:36:53Z</time>
      </trkpt>
      <trkpt lat="47.11694" lon="-1.4222">
        <ele>38</ele>
        <time>2023-11-14T09:37:20Z</time>
      </trkpt>
      <trkpt lat="47.11709" lon="-1.42205">
        <ele>39</ele>
        <time>2023-11-14T09:37:44Z</time>
      </trkpt>
      <trkpt lat="47.11746" lon="-1.42185">
        <ele>43</ele>
        <time>2023-11-14T09:38:37Z</time>
      </trkpt>
      <trkpt lat="47.11783" lon="-1.42161">
        <ele>44</ele>
        <time>2023-11-14T09:39:31Z</time>
      </trkpt>
      <trkpt lat="47.11798" lon="-1.42145">
        <ele>45</ele>
        <time>2023-11-14T09:39:56Z</time>
      </trkpt>
      <trkpt lat="47.11857" lon="-1.42106">
        <ele>46</ele>
        <time>2023-11-14T09:41:22Z</time>
      </trkpt>
      <trkpt lat="47.11913" lon="-1.42072">
        <ele>46</ele>
        <time>2023-11-14T09:42:43Z</time>
      </trkpt>
      <trkpt lat="47.11932" lon="-1.42068">
        <ele>46</ele>
        <time>2023-11-14T09:43:08Z</time>
      </trkpt>
      <trkpt lat="47.11953" lon="-1.4206">
        <ele>46</ele>
        <time>2023-11-14T09:43:37Z</time>
      </trkpt>
      <trkpt lat="47.11972" lon="-1.42047">
        <ele>46</ele>
        <time>2023-11-14T09:44:05Z</time>
      </trkpt>
      <trkpt lat="47.12031" lon="-1.42027">
        <ele>47</ele>
        <time>2023-11-14T09:45:26Z</time>
      </trkpt>
      <trkpt lat="47.12049" lon="-1.42025">
        <ele>47</ele>
        <time>2023-11-14T09:45:50Z</time>
      </trkpt>
      <trkpt lat="47.12091" lon="-1.42013">
        <ele>47</ele>
        <time>2023-11-14T09:46:47Z</time>
      </trkpt>
      <trkpt lat="47.1211" lon="-1.42011">
        <ele>46</ele>
        <time>2023-11-14T09:47:13Z</time>
      </trkpt>
      <trkpt lat="47.12131" lon="-1.42017">
        <ele>46</ele>
        <time>2023-11-14T09:47:41Z</time>
      </trkpt>
      <trkpt lat="47.12167" lon="-1.42005">
        <ele>45</ele>
        <time>2023-11-14T09:48:31Z</time>
      </trkpt>
      <trkpt lat="47.12186" lon="-1.42007">
        <ele>46</ele>
        <time>2023-11-14T09:48:56Z</time>
      </trkpt>
      <trkpt lat="47.12227" lon="-1.42018">
        <ele>48</ele>
        <time>2023-11-14T09:49:52Z</time>
      </trkpt>
      <trkpt lat="47.12287" lon="-1.42012">
        <ele>49</ele>
        <time>2023-11-14T09:51:12Z</time>
      </trkpt>
      <trkpt lat="47.12307" lon="-1.42019">
        <ele>50</ele>
        <time>2023-11-14T09:51:39Z</time>
      </trkpt>
      <trkpt lat="47.12327" lon="-1.42019">
        <ele>51</ele>
        <time>2023-11-14T09:52:06Z</time>
      </trkpt>
      <trkpt lat="47.1238" lon="-1.41976">
        <ele>49</ele>
        <time>2023-11-14T09:53:27Z</time>
      </trkpt>
      <trkpt lat="47.12395" lon="-1.41956">
        <ele>48</ele>
        <time>2023-11-14T09:53:54Z</time>
      </trkpt>
      <trkpt lat="47.12417" lon="-1.41953">
        <ele>50</ele>
        <time>2023-11-14T09:54:23Z</time>
      </trkpt>
      <trkpt lat="47.12436" lon="-1.41936">
        <ele>49</ele>
        <time>2023-11-14T09:54:53Z</time>
      </trkpt>
      <trkpt lat="47.1245" lon="-1.41919">
        <ele>49</ele>
        <time>2023-11-14T09:55:17Z</time>
      </trkpt>
      <trkpt lat="47.12453" lon="-1.41892">
        <ele>46</ele>
        <time>2023-11-14T09:55:42Z</time>
      </trkpt>
      <trkpt lat="47.12438" lon="-1.41867">
        <ele>41</ele>
        <time>2023-11-14T09:56:12Z</time>
      </trkpt>
      <trkpt lat="47.12429" lon="-1.41842">
        <ele>36</ele>
        <time>2023-11-14T09:56:38Z</time>
      </trkpt>
      <trkpt lat="47.12418" lon="-1.41821">
        <ele>31</ele>
        <time>2023-11-14T09:57:02Z</time>
      </trkpt>
      <trkpt lat="47.12443" lon="-1.41872">
        <ele>42</ele>
        <time>2023-11-14T09:57:59Z</time>
      </trkpt>
      <trkpt lat="47.12461" lon="-1.4189">
        <ele>46</ele>
        <time>2023-11-14T09:58:28Z</time>
      </trkpt>
      <trkpt lat="47.1248" lon="-1.41892">
        <ele>47</ele>
        <time>2023-11-14T09:58:54Z</time>
      </trkpt>
      <trkpt lat="47.12514" lon="-1.4186">
        <ele>47</ele>
        <time>2023-11-14T09:59:47Z</time>
      </trkpt>
      <trkpt lat="47.12538" lon="-1.41816">
        <ele>44</ele>
        <time>2023-11-14T10:00:39Z</time>
      </trkpt>
      <trkpt lat="47.12547" lon="-1.4179">
        <ele>41</ele>
        <time>2023-11-14T10:01:05Z</time>
      </trkpt>
      <trkpt lat="47.12556" lon="-1.41736">
        <ele>35</ele>
        <time>2023-11-14T10:01:56Z</time>
      </trkpt>
      <trkpt lat="47.12557" lon="-1.41681">
        <ele>27</ele>
        <time>2023-11-14T10:02:46Z</time>
      </trkpt>
      <trkpt lat="47.12567" lon="-1.41655">
        <ele>24</ele>
        <time>2023-11-14T10:03:13Z</time>
      </trkpt>
      <trkpt lat="47.12582" lon="-1.41639">
        <ele>23</ele>
        <time>2023-11-14T10:03:37Z</time>
      </trkpt>
      <trkpt lat="47.12619" lon="-1.4161">
        <ele>21</ele>
        <time>2023-11-14T10:04:33Z</time>
      </trkpt>
      <trkpt lat="47.12611" lon="-1.41584">
        <ele>16</ele>
        <time>2023-11-14T10:04:59Z</time>
      </trkpt>
      <trkpt lat="47.12581" lon="-1.41539">
        <ele>11</ele>
        <time>2023-11-14T10:05:56Z</time>
      </trkpt>
      <trkpt lat="47.1256" lon="-1.4149">
        <ele>9</ele>
        <time>2023-11-14T10:06:49Z</time>
      </trkpt>
      <trkpt lat="47.12533" lon="-1.41446">
        <ele>12</ele>
        <time>2023-11-14T10:07:43Z</time>
      </trkpt>
      <trkpt lat="47.12528" lon="-1.41421">
        <ele>14</ele>
        <time>2023-11-14T10:08:07Z</time>
      </trkpt>
      <trkpt lat="47.12547" lon="-1.41407">
        <ele>14</ele>
        <time>2023-11-14T10:08:35Z</time>
      </trkpt>
      <trkpt lat="47.12568" lon="-1.41396">
        <ele>13</ele>
        <time>2023-11-14T10:09:05Z</time>
      </trkpt>
      <trkpt lat="47.12585" lon="-1.41381">
        <ele>14</ele>
        <time>2023-11-14T10:09:31Z</time>
      </trkpt>
      <trkpt lat="47.12616" lon="-1.41337">
        <ele>17</ele>
        <time>2023-11-14T10:10:29Z</time>
      </trkpt>
      <trkpt lat="47.12635" lon="-1.4134">
        <ele>15</ele>
        <time>2023-11-14T10:10:54Z</time>
      </trkpt>
      <trkpt lat="47.12651" lon="-1.41323">
        <ele>16</ele>
        <time>2023-11-14T10:11:20Z</time>
      </trkpt>
      <trkpt lat="47.12685" lon="-1.41297">
        <ele>18</ele>
        <time>2023-11-14T10:12:12Z</time>
      </trkpt>
      <trkpt lat="47.12723" lon="-1.41279">
        <ele>17</ele>
        <time>2023-11-14T10:13:05Z</time>
      </trkpt>
      <trkpt lat="47.12741" lon="-1.41266">
        <ele>17</ele>
        <time>2023-11-14T10:13:32Z</time>
      </trkpt>
      <trkpt lat="47.12759" lon="-1.4126">
        <ele>16</ele>
        <time>2023-11-14T10:13:56Z</time>
      </trkpt>
      <trkpt lat="47.12797" lon="-1.41234">
        <ele>18</ele>
        <time>2023-11-14T10:14:52Z</time>
      </trkpt>
      <trkpt lat="47.12854" lon="-1.41223">
        <ele>16</ele>
        <time>2023-11-14T10:16:09Z</time>
      </trkpt>
      <trkpt lat="47.12892" lon="-1.41227">
        <ele>13</ele>
        <time>2023-11-14T10:17:00Z</time>
      </trkpt>
      <trkpt lat="47.12912" lon="-1.41225">
        <ele>12</ele>
        <time>2023-11-14T10:17:27Z</time>
      </trkpt>
      <trkpt lat="47.12934" lon="-1.41226">
        <ele>12</ele>
        <time>2023-11-14T10:17:56Z</time>
      </trkpt>
      <trkpt lat="47.12953" lon="-1.41222">
        <ele>13</ele>
        <time>2023-11-14T10:18:22Z</time>
      </trkpt>
      <trkpt lat="47.12972" lon="-1.4123">
        <ele>12</ele>
        <time>2023-11-14T10:18:48Z</time>
      </trkpt>
      <trkpt lat="47.12988" lon="-1.41244">
        <ele>10</ele>
        <time>2023-11-14T10:19:13Z</time>
      </trkpt>
      <trkpt lat="47.13047" lon="-1.41262">
        <ele>10</ele>
        <time>2023-11-14T10:20:33Z</time>
      </trkpt>
      <trkpt lat="47.13087" lon="-1.4127">
        <ele>10</ele>
        <time>2023-11-14T10:21:27Z</time>
      </trkpt>
      <trkpt lat="47.13108" lon="-1.41268">
        <ele>11</ele>
        <time>2023-11-14T10:21:55Z</time>
      </trkpt>
      <trkpt lat="47.1313" lon="-1.41273">
        <ele>11</ele>
        <time>2023-11-14T10:22:25Z</time>
      </trkpt>
      <trkpt lat="47.13188" lon="-1.41276">
        <ele>12</ele>
        <time>2023-11-14T10:23:42Z</time>
      </trkpt>
      <trkpt lat="47.13208" lon="-1.4128">
        <ele>13</ele>
        <time>2023-11-14T10:24:09Z</time>
      </trkpt>
      <trkpt lat="47.13229" lon="-1.41288">
        <ele>13</ele>
        <time>2023-11-14T10:24:38Z</time>
      </trkpt>
      <trkpt lat="47.13249" lon="-1.41291">
        <ele>14</ele>
        <time>2023-11-14T10:25:05Z</time>
      </trkpt>
      <trkpt lat="47.13265" lon="-1.41307">
        <ele>14</ele>
        <time>2023-11-14T10:25:31Z</time>
      </trkpt>
      <trkpt lat="47.13284" lon="-1.41317">
        <ele>15</ele>
        <time>2023-11-14T10:25:58Z</time>
      </trkpt>
      <trkpt lat="47.133" lon="-1.41331">
        <ele>16</ele>
        <time>2023-11-14T10:26:23Z</time>
      </trkpt>
      <trkpt lat="47.1332" lon="-1.41342">
        <ele>17</ele>
        <time>2023-11-14T10:26:51Z</time>
      </trkpt>
      <trkpt lat="47.13394" lon="-1.41406">
        <ele>13</ele>
        <time>2023-11-14T10:28:46Z</time>
      </trkpt>
      <trkpt lat="47.1345" lon="-1.41442">
        <ele>12</ele>
        <time>2023-11-14T10:30:07Z</time>
      </trkpt>
      <trkpt lat="47.13468" lon="-1.41446">
        <ele>13</ele>
        <time>2023-11-14T10:30:31Z</time>
      </trkpt>
      <trkpt lat="47.13527" lon="-1.41468">
        <ele>14</ele>
        <time>2023-11-14T10:31:53Z</time>
      </trkpt>
      <trkpt lat="47.13546" lon="-1.41478">
        <ele>14</ele>
        <time>2023-11-14T10:32:20Z</time>
      </trkpt>
      <trkpt lat="47.13584" lon="-1.41506">
        <ele>15</ele>
        <time>2023-11-14T10:33:16Z</time>
      </trkpt>
      <trkpt lat="47.13602" lon="-1.41504">
        <ele>16</ele>
        <time>2023-11-14T10:33:40Z</time>
      </trkpt>
      <trkpt lat="47.1362" lon="-1.4151">
        <ele>17</ele>
        <time>2023-11-14T10:34:05Z</time>
      </trkpt>
      <trkpt lat="47.13638" lon="-1.4152">
        <ele>18</ele>
        <time>2023-11-14T10:34:31Z</time>
      </trkpt>
      <trkpt lat="47.13668" lon="-1.41555">
        <ele>17</ele>
        <time>2023-11-14T10:35:22Z</time>
      </trkpt>
      <trkpt lat="47.13706" lon="-1.41627">
        <ele>14</ele>
        <time>2023-11-14T10:36:45Z</time>
      </trkpt>
      <trkpt lat="47.13735" lon="-1.4167">
        <ele>11</ele>
        <time>2023-11-14T10:37:40Z</time>
      </trkpt>
      <trkpt lat="47.13754" lon="-1.41684">
        <ele>11</ele>
        <time>2023-11-14T10:38:08Z</time>
      </trkpt>
      <trkpt lat="47.13784" lon="-1.41723">
        <ele>10</ele>
        <time>2023-11-14T10:39:01Z</time>
      </trkpt>
      <trkpt lat="47.13859" lon="-1.41778">
        <ele>9</ele>
        <time>2023-11-14T10:40:53Z</time>
      </trkpt>
      <trkpt lat="47.13878" lon="-1.41785">
        <ele>9</ele>
        <time>2023-11-14T10:41:19Z</time>
      </trkpt>
      <trkpt lat="47.13918" lon="-1.41794">
        <ele>10</ele>
        <time>2023-11-14T10:42:13Z</time>
      </trkpt>
      <trkpt lat="47.13939" lon="-1.41795">
        <ele>11</ele>
        <time>2023-11-14T10:42:41Z</time>
      </trkpt>
      <trkpt lat="47.13957" lon="-1.41805">
        <ele>11</ele>
        <time>2023-11-14T10:43:07Z</time>
      </trkpt>
      <trkpt lat="47.13975" lon="-1.41822">
        <ele>11</ele>
        <time>2023-11-14T10:43:36Z</time>
      </trkpt>
      <trkpt lat="47.13992" lon="-1.41834">
        <ele>11</ele>
        <time>2023-11-14T10:44:01Z</time>
      </trkpt>
      <trkpt lat="47.14034" lon="-1.41846">
        <ele>12</ele>
        <time>2023-11-14T10:44:58Z</time>
      </trkpt>
      <trkpt lat="47.14051" lon="-1.41867">
        <ele>12</ele>
        <time>2023-11-14T10:45:28Z</time>
      </trkpt>
      <trkpt lat="47.14056" lon="-1.41893">
        <ele>10</ele>
        <time>2023-11-14T10:45:52Z</time>
      </trkpt>
      <trkpt lat="47.14082" lon="-1.41936">
        <ele>8</ele>
        <time>2023-11-14T10:46:44Z</time>
      </trkpt>
      <trkpt lat="47.14162" lon="-1.42024">
        <ele>8</ele>
        <time>2023-11-14T10:48:58Z</time>
      </trkpt>
      <trkpt lat="47.1419" lon="-1.42067">
        <ele>9</ele>
        <time>2023-11-14T10:49:52Z</time>
      </trkpt>
      <trkpt lat="47.142" lon="-1.42091">
        <ele>9</ele>
        <time>2023-11-14T10:50:17Z</time>
      </trkpt>
      <trkpt lat="47.14279" lon="-1.4219">
        <ele>12</ele>
        <time>2023-11-14T10:52:36Z</time>
      </trkpt>
      <trkpt lat="47.14333" lon="-1.4228">
        <ele>9</ele>
        <time>2023-11-14T10:54:25Z</time>
      </trkpt>
      <trkpt lat="47.1438" lon="-1.4237">
        <ele>9</ele>
        <time>2023-11-14T10:56:08Z</time>
      </trkpt>
      <trkpt lat="47.14391" lon="-1.42398">
        <ele>9</ele>
        <time>2023-11-14T10:56:37Z</time>
      </trkpt>
      <trkpt lat="47.1441" lon="-1.4241">
        <ele>11</ele>
        <time>2023-11-14T10:57:05Z</time>
      </trkpt>
      <trkpt lat="47.14485" lon="-1.42358">
        <ele>20</ele>
        <time>2023-11-14T10:58:55Z</time>
      </trkpt>
      <trkpt lat="47.14519" lon="-1.4233">
        <ele>22</ele>
        <time>2023-11-14T10:59:47Z</time>
      </trkpt>
      <trkpt lat="47.14537" lon="-1.42311">
        <ele>23</ele>
        <time>2023-11-14T11:00:17Z</time>
      </trkpt>
      <trkpt lat="47.14547" lon="-1.42288">
        <ele>22</ele>
        <time>2023-11-14T11:00:42Z</time>
      </trkpt>
      <trkpt lat="47.14536" lon="-1.4226">
        <ele>22</ele>
        <time>2023-11-14T11:01:11Z</time>
      </trkpt>
      <trkpt lat="47.14534" lon="-1.42231">
        <ele>22</ele>
        <time>2023-11-14T11:01:37Z</time>
      </trkpt>
      <trkpt lat="47.14609" lon="-1.4219">
        <ele>17</ele>
        <time>2023-11-14T11:03:24Z</time>
      </trkpt>
      <trkpt lat="47.14631" lon="-1.42182">
        <ele>15</ele>
        <time>2023-11-14T11:03:54Z</time>
      </trkpt>
      <trkpt lat="47.14673" lon="-1.42156">
        <ele>10</ele>
        <time>2023-11-14T11:04:55Z</time>
      </trkpt>
      <trkpt lat="47.14691" lon="-1.42148">
        <ele>9</ele>
        <time>2023-11-14T11:05:20Z</time>
      </trkpt>
      <trkpt lat="47.14711" lon="-1.42161">
        <ele>8</ele>
        <time>2023-11-14T11:05:49Z</time>
      </trkpt>
      <trkpt lat="47.14776" lon="-1.42235">
        <ele>8</ele>
        <time>2023-11-14T11:07:39Z</time>
      </trkpt>
      <trkpt lat="47.1481" lon="-1.42262">
        <ele>10</ele>
        <time>2023-11-14T11:08:31Z</time>
      </trkpt>
      <trkpt lat="47.14833" lon="-1.42274">
        <ele>12</ele>
        <time>2023-11-14T11:09:03Z</time>
      </trkpt>
      <trkpt lat="47.14852" lon="-1.42277">
        <ele>12</ele>
        <time>2023-11-14T11:09:29Z</time>
      </trkpt>
      <trkpt lat="47.14873" lon="-1.42277">
        <ele>12</ele>
        <time>2023-11-14T11:09:57Z</time>
      </trkpt>
      <trkpt lat="47.14911" lon="-1.42286">
        <ele>12</ele>
        <time>2023-11-14T11:10:48Z</time>
      </trkpt>
      <trkpt lat="47.14951" lon="-1.42289">
        <ele>12</ele>
        <time>2023-11-14T11:11:42Z</time>
      </trkpt>
      <trkpt lat="47.14991" lon="-1.4231">
        <ele>14</ele>
        <time>2023-11-14T11:12:38Z</time>
      </trkpt>
      <trkpt lat="47.15027" lon="-1.42333">
        <ele>14</ele>
        <time>2023-11-14T11:13:31Z</time>
      </trkpt>
      <trkpt lat="47.15046" lon="-1.42349">
        <ele>14</ele>
        <time>2023-11-14T11:14:00Z</time>
      </trkpt>
      <trkpt lat="47.15059" lon="-1.42368">
        <ele>15</ele>
        <time>2023-11-14T11:14:24Z</time>
      </trkpt>
      <trkpt lat="47.15077" lon="-1.42387">
        <ele>15</ele>
        <time>2023-11-14T11:14:54Z</time>
      </trkpt>
      <trkpt lat="47.15094" lon="-1.424">
        <ele>15</ele>
        <time>2023-11-14T11:15:20Z</time>
      </trkpt>
      <trkpt lat="47.15098" lon="-1.42429">
        <ele>17</ele>
        <time>2023-11-14T11:15:46Z</time>
      </trkpt>
      <trkpt lat="47.15108" lon="-1.42458">
        <ele>17</ele>
        <time>2023-11-14T11:16:16Z</time>
      </trkpt>
      <trkpt lat="47.15148" lon="-1.42525">
        <ele>15</ele>
        <time>2023-11-14T11:17:37Z</time>
      </trkpt>
      <trkpt lat="47.15177" lon="-1.42561">
        <ele>16</ele>
        <time>2023-11-14T11:18:27Z</time>
      </trkpt>
      <trkpt lat="47.15201" lon="-1.42611">
        <ele>17</ele>
        <time>2023-11-14T11:19:23Z</time>
      </trkpt>
      <trkpt lat="47.15211" lon="-1.4264">
        <ele>18</ele>
        <time>2023-11-14T11:19:53Z</time>
      </trkpt>
      <trkpt lat="47.15226" lon="-1.42661">
        <ele>17</ele>
        <time>2023-11-14T11:20:20Z</time>
      </trkpt>
      <trkpt lat="47.15235" lon="-1.42689">
        <ele>18</ele>
        <time>2023-11-14T11:20:48Z</time>
      </trkpt>
      <trkpt lat="47.15239" lon="-1.42744">
        <ele>21</ele>
        <time>2023-11-14T11:21:38Z</time>
      </trkpt>
      <trkpt lat="47.15262" lon="-1.42855">
        <ele>22</ele>
        <time>2023-11-14T11:23:24Z</time>
      </trkpt>
      <trkpt lat="47.15264" lon="-1.42911">
        <ele>23</ele>
        <time>2023-11-14T11:24:15Z</time>
      </trkpt>
      <trkpt lat="47.15268" lon="-1.42942">
        <ele>23</ele>
        <time>2023-11-14T11:24:43Z</time>
      </trkpt>
      <trkpt lat="47.15257" lon="-1.42964">
        <ele>24</ele>
        <time>2023-11-14T11:25:08Z</time>
      </trkpt>
      <trkpt lat="47.15241" lon="-1.42986">
        <ele>25</ele>
        <time>2023-11-14T11:25:37Z</time>
      </trkpt>
      <trkpt lat="47.1524" lon="-1.43014">
        <ele>25</ele>
        <time>2023-11-14T11:26:03Z</time>
      </trkpt>
      <trkpt lat="47.15261" lon="-1.43065">
        <ele>21</ele>
        <time>2023-11-14T11:26:57Z</time>
      </trkpt>
      <trkpt lat="47.15277" lon="-1.4312">
        <ele>18</ele>
        <time>2023-11-14T11:27:51Z</time>
      </trkpt>
      <trkpt lat="47.15287" lon="-1.43144">
        <ele>16</ele>
        <time>2023-11-14T11:28:17Z</time>
      </trkpt>
      <trkpt lat="47.15304" lon="-1.43201">
        <ele>12</ele>
        <time>2023-11-14T11:29:13Z</time>
      </trkpt>
      <trkpt lat="47.15309" lon="-1.4323">
        <ele>11</ele>
        <time>2023-11-14T11:29:40Z</time>
      </trkpt>
      <trkpt lat="47.15299" lon="-1.43287">
        <ele>12</ele>
        <time>2023-11-14T11:30:34Z</time>
      </trkpt>
      <trkpt lat="47.15284" lon="-1.43338">
        <ele>13</ele>
        <time>2023-11-14T11:31:24Z</time>
      </trkpt>
      <trkpt lat="47.15282" lon="-1.43366">
        <ele>13</ele>
        <time>2023-11-14T11:31:50Z</time>
      </trkpt>
      <trkpt lat="47.15285" lon="-1.43424">
        <ele>12</ele>
        <time>2023-11-14T11:32:42Z</time>
      </trkpt>
      <trkpt lat="47.15289" lon="-1.43453">
        <ele>12</ele>
        <time>2023-11-14T11:33:09Z</time>
      </trkpt>
      <trkpt lat="47.15295" lon="-1.43482">
        <ele>12</ele>
        <time>2023-11-14T11:33:37Z</time>
      </trkpt>
      <trkpt lat="47.15311" lon="-1.43535">
        <ele>10</ele>
        <time>2023-11-14T11:34:29Z</time>
      </trkpt>
      <trkpt lat="47.15319" lon="-1.4359">
        <ele>9</ele>
        <time>2023-11-14T11:35:21Z</time>
      </trkpt>
      <trkpt lat="47.15315" lon="-1.43621">
        <ele>10</ele>
        <time>2023-11-14T11:35:49Z</time>
      </trkpt>
      <trkpt lat="47.15318" lon="-1.43683">
        <ele>11</ele>
        <time>2023-11-14T11:36:46Z</time>
      </trkpt>
      <trkpt lat="47.15313" lon="-1.43711">
        <ele>12</ele>
        <time>2023-11-14T11:37:12Z</time>
      </trkpt>
      <trkpt lat="47.15317" lon="-1.43772">
        <ele>12</ele>
        <time>2023-11-14T11:38:07Z</time>
      </trkpt>
      <trkpt lat="47.15314" lon="-1.43833">
        <ele>10</ele>
        <time>2023-11-14T11:39:03Z</time>
      </trkpt>
      <trkpt lat="47.1529" lon="-1.43881">
        <ele>13</ele>
        <time>2023-11-14T11:39:57Z</time>
      </trkpt>
      <trkpt lat="47.15295" lon="-1.43907">
        <ele>12</ele>
        <time>2023-11-14T11:40:22Z</time>
      </trkpt>
      <trkpt lat="47.15326" lon="-1.43952">
        <ele>7</ele>
        <time>2023-11-14T11:41:20Z</time>
      </trkpt>
      <trkpt lat="47.15339" lon="-1.43977">
        <ele>6</ele>
        <time>2023-11-14T11:41:48Z</time>
      </trkpt>
      <trkpt lat="47.15369" lon="-1.4402">
        <ele>9</ele>
        <time>2023-11-14T11:42:44Z</time>
      </trkpt>
      <trkpt lat="47.15382" lon="-1.44046">
        <ele>11</ele>
        <time>2023-11-14T11:43:13Z</time>
      </trkpt>
      <trkpt lat="47.15385" lon="-1.44077">
        <ele>13</ele>
        <time>2023-11-14T11:43:42Z</time>
      </trkpt>
      <trkpt lat="47.1538" lon="-1.44104">
        <ele>13</ele>
        <time>2023-11-14T11:44:07Z</time>
      </trkpt>
      <trkpt lat="47.15365" lon="-1.44121">
        <ele>12</ele>
        <time>2023-11-14T11:44:32Z</time>
      </trkpt>
      <trkpt lat="47.15369" lon="-1.44063">
        <ele>11</ele>
        <time>2023-11-14T11:45:25Z</time>
      </trkpt>
      <trkpt lat="47.15358" lon="-1.44039">
        <ele>9</ele>
        <time>2023-11-14T11:45:52Z</time>
      </trkpt>
      <trkpt lat="47.1533" lon="-1.44078">
        <ele>8</ele>
        <time>2023-11-14T11:46:43Z</time>
      </trkpt>
      <trkpt lat="47.15308" lon="-1.44122">
        <ele>8</ele>
        <time>2023-11-14T11:47:33Z</time>
      </trkpt>
      <trkpt lat="47.1529" lon="-1.44142">
        <ele>8</ele>
        <time>2023-11-14T11:48:03Z</time>
      </trkpt>
      <trkpt lat="47.15279" lon="-1.44164">
        <ele>8</ele>
        <time>2023-11-14T11:48:28Z</time>
      </trkpt>
      <trkpt lat="47.15249" lon="-1.44211">
        <ele>5</ele>
        <time>2023-11-14T11:49:26Z</time>
      </trkpt>
      <trkpt lat="47.15227" lon="-1.44256">
        <ele>8</ele>
        <time>2023-11-14T11:50:16Z</time>
      </trkpt>
      <trkpt lat="47.15226" lon="-1.44284">
        <ele>9</ele>
        <time>2023-11-14T11:50:42Z</time>
      </trkpt>
      <trkpt lat="47.15286" lon="-1.44442">
        <ele>5</ele>
        <time>2023-11-14T11:53:26Z</time>
      </trkpt>
      <trkpt lat="47.15306" lon="-1.4449">
        <ele>4</ele>
        <time>2023-11-14T11:54:17Z</time>
      </trkpt>
      <trkpt lat="47.15329" lon="-1.44534">
        <ele>5</ele>
        <time>2023-11-14T11:55:07Z</time>
      </trkpt>
      <trkpt lat="47.1536" lon="-1.44576">
        <ele>7</ele>
        <time>2023-11-14T11:56:04Z</time>
      </trkpt>
      <trkpt lat="47.15395" lon="-1.44607">
        <ele>9</ele>
        <time>2023-11-14T11:56:58Z</time>
      </trkpt>
      <trkpt lat="47.15405" lon="-1.44634">
        <ele>11</ele>
        <time>2023-11-14T11:57:26Z</time>
      </trkpt>
      <trkpt lat="47.15424" lon="-1.44643">
        <ele>12</ele>
        <time>2023-11-14T11:57:53Z</time>
      </trkpt>
      <trkpt lat="47.15428" lon="-1.44736">
        <ele>13</ele>
        <time>2023-11-14T11:59:17Z</time>
      </trkpt>
      <trkpt lat="47.15423" lon="-1.44765">
        <ele>13</ele>
        <time>2023-11-14T11:59:45Z</time>
      </trkpt>
      <trkpt lat="47.15423" lon="-1.44823">
        <ele>12</ele>
        <time>2023-11-14T12:00:37Z</time>
      </trkpt>
      <trkpt lat="47.15432" lon="-1.44876">
        <ele>13</ele>
        <time>2023-11-14T12:01:27Z</time>
      </trkpt>
      <trkpt lat="47.15426" lon="-1.44906">
        <ele>12</ele>
        <time>2023-11-14T12:01:55Z</time>
      </trkpt>
      <trkpt lat="47.15428" lon="-1.44937">
        <ele>12</ele>
        <time>2023-11-14T12:02:23Z</time>
      </trkpt>
      <trkpt lat="47.15415" lon="-1.45058">
        <ele>11</ele>
        <time>2023-11-14T12:04:15Z</time>
      </trkpt>
      <trkpt lat="47.15418" lon="-1.45084">
        <ele>11</ele>
        <time>2023-11-14T12:04:38Z</time>
      </trkpt>
      <trkpt lat="47.15438" lon="-1.45173">
        <ele>9</ele>
        <time>2023-11-14T12:06:04Z</time>
      </trkpt>
      <trkpt lat="47.15446" lon="-1.45204">
        <ele>9</ele>
        <time>2023-11-14T12:06:34Z</time>
      </trkpt>
      <trkpt lat="47.15459" lon="-1.45228">
        <ele>10</ele>
        <time>2023-11-14T12:07:01Z</time>
      </trkpt>
      <trkpt lat="47.15496" lon="-1.45234">
        <ele>13</ele>
        <time>2023-11-14T12:07:51Z</time>
      </trkpt>
      <trkpt lat="47.15515" lon="-1.45234">
        <ele>14</ele>
        <time>2023-11-14T12:08:16Z</time>
      </trkpt>
      <trkpt lat="47.15534" lon="-1.45228">
        <ele>14</ele>
        <time>2023-11-14T12:08:42Z</time>
      </trkpt>
      <trkpt lat="47.15549" lon="-1.45211">
        <ele>14</ele>
        <time>2023-11-14T12:09:08Z</time>
      </trkpt>
      <trkpt lat="47.15549" lon="-1.45184">
        <ele>14</ele>
        <time>2023-11-14T12:09:32Z</time>
      </trkpt>
      <trkpt lat="47.15537" lon="-1.45127">
        <ele>16</ele>
        <time>2023-11-14T12:10:26Z</time>
      </trkpt>
      <trkpt lat="47.15536" lon="-1.45095">
        <ele>16</ele>
        <time>2023-11-14T12:10:55Z</time>
      </trkpt>
      <trkpt lat="47.15635" lon="-1.4504">
        <ele>19</ele>
        <time>2023-11-14T12:13:17Z</time>
      </trkpt>
      <trkpt lat="47.15668" lon="-1.45018">
        <ele>21</ele>
        <time>2023-11-14T12:14:05Z</time>
      </trkpt>
      <trkpt lat="47.15688" lon="-1.45031">
        <ele>22</ele>
        <time>2023-11-14T12:14:34Z</time>
      </trkpt>
      <trkpt lat="47.15702" lon="-1.4505">
        <ele>22</ele>
        <time>2023-11-14T12:15:00Z</time>
      </trkpt>
      <trkpt lat="47.15715" lon="-1.45077">
        <ele>21</ele>
        <time>2023-11-14T12:15:30Z</time>
      </trkpt>
      <trkpt lat="47.1572" lon="-1.45104">
        <ele>22</ele>
        <time>2023-11-14T12:15:55Z</time>
      </trkpt>
      <trkpt lat="47.15721" lon="-1.45133">
        <ele>22</ele>
        <time>2023-11-14T12:16:21Z</time>
      </trkpt>
      <trkpt lat="47.15726" lon="-1.45166">
        <ele>23</ele>
        <time>2023-11-14T12:16:52Z</time>
      </trkpt>
      <trkpt lat="47.15745" lon="-1.45247">
        <ele>27</ele>
        <time>2023-11-14T12:18:10Z</time>
      </trkpt>
      <trkpt lat="47.15753" lon="-1.45271">
        <ele>27</ele>
        <time>2023-11-14T12:18:34Z</time>
      </trkpt>
      <trkpt lat="47.15768" lon="-1.45364">
        <ele>29</ele>
        <time>2023-11-14T12:20:01Z</time>
      </trkpt>
      <trkpt lat="47.15786" lon="-1.45374">
        <ele>30</ele>
        <time>2023-11-14T12:20:26Z</time>
      </trkpt>
      <trkpt lat="47.15807" lon="-1.45378">
        <ele>31</ele>
        <time>2023-11-14T12:20:55Z</time>
      </trkpt>
      <trkpt lat="47.15824" lon="-1.45389">
        <ele>32</ele>
        <time>2023-11-14T12:21:19Z</time>
      </trkpt>
      <trkpt lat="47.15824" lon="-1.45416">
        <ele>32</ele>
        <time>2023-11-14T12:21:44Z</time>
      </trkpt>
      <trkpt lat="47.15808" lon="-1.45588">
        <ele>30</ele>
        <time>2023-11-14T12:24:21Z</time>
      </trkpt>
      <trkpt lat="47.15801" lon="-1.45615">
        <ele>30</ele>
        <time>2023-11-14T12:24:48Z</time>
      </trkpt>
      <trkpt lat="47.15742" lon="-1.45699">
        <ele>30</ele>
        <time>2023-11-14T12:26:37Z</time>
      </trkpt>
      <trkpt lat="47.15679" lon="-1.45772">
        <ele>30</ele>
        <time>2023-11-14T12:28:24Z</time>
      </trkpt>
      <trkpt lat="47.15674" lon="-1.45797">
        <ele>30</ele>
        <time>2023-11-14T12:28:48Z</time>
      </trkpt>
      <trkpt lat="47.15676" lon="-1.45829">
        <ele>30</ele>
        <time>2023-11-14T12:29:17Z</time>
      </trkpt>
      <trkpt lat="47.15669" lon="-1.4586">
        <ele>30</ele>
        <time>2023-11-14T12:29:47Z</time>
      </trkpt>
      <trkpt lat="47.15653" lon="-1.4588">
        <ele>30</ele>
        <time>2023-11-14T12:30:15Z</time>
      </trkpt>
      <trkpt lat="47.15618" lon="-1.459">
        <ele>29</ele>
        <time>2023-11-14T12:31:05Z</time>
      </trkpt>
      <trkpt lat="47.1558" lon="-1.45926">
        <ele>29</ele>
        <time>2023-11-14T12:32:01Z</time>
      </trkpt>
      <trkpt lat="47.15563" lon="-1.45946">
        <ele>27</ele>
        <time>2023-11-14T12:32:30Z</time>
      </trkpt>
      <trkpt lat="47.15543" lon="-1.45958">
        <ele>26</ele>
        <time>2023-11-14T12:32:59Z</time>
      </trkpt>
      <trkpt lat="47.15528" lon="-1.45973">
        <ele>24</ele>
        <time>2023-11-14T12:33:23Z</time>
      </trkpt>
      <trkpt lat="47.15511" lon="-1.45983">
        <ele>23</ele>
        <time>2023-11-14T12:33:47Z</time>
      </trkpt>
      <trkpt lat="47.15493" lon="-1.46005">
        <ele>21</ele>
        <time>2023-11-14T12:34:19Z</time>
      </trkpt>
      <trkpt lat="47.15456" lon="-1.46034">
        <ele>19</ele>
        <time>2023-11-14T12:35:15Z</time>
      </trkpt>
      <trkpt lat="47.15422" lon="-1.45989">
        <ele>15</ele>
        <time>2023-11-14T12:36:16Z</time>
      </trkpt>
      <trkpt lat="47.15401" lon="-1.46002">
        <ele>14</ele>
        <time>2023-11-14T12:36:46Z</time>
      </trkpt>
      <trkpt lat="47.15385" lon="-1.46016">
        <ele>14</ele>
        <time>2023-11-14T12:37:11Z</time>
      </trkpt>
      <trkpt lat="47.15365" lon="-1.46023">
        <ele>13</ele>
        <time>2023-11-14T12:37:38Z</time>
      </trkpt>
      <trkpt lat="47.15348" lon="-1.46033">
        <ele>13</ele>
        <time>2023-11-14T12:38:03Z</time>
      </trkpt>
      <trkpt lat="47.15332" lon="-1.46051">
        <ele>14</ele>
        <time>2023-11-14T12:38:30Z</time>
      </trkpt>
      <trkpt lat="47.15324" lon="-1.46076">
        <ele>15</ele>
        <time>2023-11-14T12:38:55Z</time>
      </trkpt>
      <trkpt lat="47.15323" lon="-1.46142">
        <ele>16</ele>
        <time>2023-11-14T12:39:55Z</time>
      </trkpt>
      <trkpt lat="47.15327" lon="-1.46174">
        <ele>16</ele>
        <time>2023-11-14T12:40:24Z</time>
      </trkpt>
      <trkpt lat="47.15327" lon="-1.46204">
        <ele>16</ele>
        <time>2023-11-14T12:40:51Z</time>
      </trkpt>
      <trkpt lat="47.15314" lon="-1.4626">
        <ele>15</ele>
        <time>2023-11-14T12:41:45Z</time>
      </trkpt>
      <trkpt lat="47.15311" lon="-1.46289">
        <ele>14</ele>
        <time>2023-11-14T12:42:12Z</time>
      </trkpt>
      <trkpt lat="47.15314" lon="-1.46343">
        <ele>14</ele>
        <time>2023-11-14T12:43:01Z</time>
      </trkpt>
      <trkpt lat="47.15322" lon="-1.4637">
        <ele>13</ele>
        <time>2023-11-14T12:43:28Z</time>
      </trkpt>
      <trkpt lat="47.1532" lon="-1.46399">
        <ele>12</ele>
        <time>2023-11-14T12:43:54Z</time>
      </trkpt>
      <trkpt lat="47.15282" lon="-1.46413">
        <ele>9</ele>
        <time>2023-11-14T12:44:46Z</time>
      </trkpt>
      <trkpt lat="47.15289" lon="-1.46441">
        <ele>9</ele>
        <time>2023-11-14T12:45:13Z</time>
      </trkpt>
      <trkpt lat="47.15332" lon="-1.46531">
        <ele>8</ele>
        <time>2023-11-14T12:46:53Z</time>
      </trkpt>
      <trkpt lat="47.15334" lon="-1.46562">
        <ele>7</ele>
        <time>2023-11-14T12:47:21Z</time>
      </trkpt>
      <trkpt lat="47.15312" lon="-1.46612">
        <ele>6</ele>
        <time>2023-11-14T12:48:15Z</time>
      </trkpt>
      <trkpt lat="47.15311" lon="-1.46639">
        <ele>6</ele>
        <time>2023-11-14T12:48:40Z</time>
      </trkpt>
      <trkpt lat="47.15314" lon="-1.46672">
        <ele>6</ele>
        <time>2023-11-14T12:49:10Z</time>
      </trkpt>
      <trkpt lat="47.15339" lon="-1.46753">
        <ele>6</ele>
        <time>2023-11-14T12:50:31Z</time>
      </trkpt>
      <trkpt lat="47.15343" lon="-1.46781">
        <ele>5</ele>
        <time>2023-11-14T12:50:57Z</time>
      </trkpt>
      <trkpt lat="47.15364" lon="-1.46854">
        <ele>5</ele>
        <time>2023-11-14T12:52:09Z</time>
      </trkpt>
      <trkpt lat="47.15383" lon="-1.46864">
        <ele>5</ele>
        <time>2023-11-14T12:52:36Z</time>
      </trkpt>
      <trkpt lat="47.15401" lon="-1.46883">
        <ele>6</ele>
        <time>2023-11-14T12:53:05Z</time>
      </trkpt>
      <trkpt lat="47.1546" lon="-1.46965">
        <ele>7</ele>
        <time>2023-11-14T12:54:54Z</time>
      </trkpt>
      <trkpt lat="47.15475" lon="-1.46981">
        <ele>8</ele>
        <time>2023-11-14T12:55:18Z</time>
      </trkpt>
      <trkpt lat="47.15495" lon="-1.46993">
        <ele>8</ele>
        <time>2023-11-14T12:55:47Z</time>
      </trkpt>
      <trkpt lat="47.15557" lon="-1.47014">
        <ele>9</ele>
        <time>2023-11-14T12:57:12Z</time>
      </trkpt>
      <trkpt lat="47.15593" lon="-1.47033">
        <ele>9</ele>
        <time>2023-11-14T12:58:03Z</time>
      </trkpt>
      <trkpt lat="47.15615" lon="-1.47037">
        <ele>8</ele>
        <time>2023-11-14T12:58:33Z</time>
      </trkpt>
      <trkpt lat="47.15634" lon="-1.47037">
        <ele>8</ele>
        <time>2023-11-14T12:58:58Z</time>
      </trkpt>
      <trkpt lat="47.15664" lon="-1.47081">
        <ele>6</ele>
        <time>2023-11-14T12:59:55Z</time>
      </trkpt>
      <trkpt lat="47.15681" lon="-1.4709">
        <ele>7</ele>
        <time>2023-11-14T13:00:19Z</time>
      </trkpt>
      <trkpt lat="47.15714" lon="-1.47125">
        <ele>7</ele>
        <time>2023-11-14T13:01:13Z</time>
      </trkpt>
      <trkpt lat="47.15744" lon="-1.47162">
        <ele>7</ele>
        <time>2023-11-14T13:02:05Z</time>
      </trkpt>
      <trkpt lat="47.15796" lon="-1.47217">
        <ele>9</ele>
        <time>2023-11-14T13:03:31Z</time>
      </trkpt>
      <trkpt lat="47.15805" lon="-1.4724">
        <ele>9</ele>
        <time>2023-11-14T13:03:55Z</time>
      </trkpt>
      <trkpt lat="47.15819" lon="-1.47264">
        <ele>10</ele>
        <time>2023-11-14T13:04:24Z</time>
      </trkpt>
      <trkpt lat="47.15824" lon="-1.4729">
        <ele>9</ele>
        <time>2023-11-14T13:04:48Z</time>
      </trkpt>
      <trkpt lat="47.15878" lon="-1.47381">
        <ele>9</ele>
        <time>2023-11-14T13:06:38Z</time>
      </trkpt>
      <trkpt lat="47.15909" lon="-1.47427">
        <ele>9</ele>
        <time>2023-11-14T13:07:36Z</time>
      </trkpt>
      <trkpt lat="47.15924" lon="-1.47445">
        <ele>9</ele>
        <time>2023-11-14T13:08:02Z</time>
      </trkpt>
      <trkpt lat="47.15942" lon="-1.47457">
        <ele>9</ele>
        <time>2023-11-14T13:08:29Z</time>
      </trkpt>
      <trkpt lat="47.15975" lon="-1.47492">
        <ele>8</ele>
        <time>2023-11-14T13:09:23Z</time>
      </trkpt>
      <trkpt lat="47.15995" lon="-1.47508">
        <ele>8</ele>
        <time>2023-11-14T13:09:53Z</time>
      </trkpt>
      <trkpt lat="47.16027" lon="-1.47548">
        <ele>7</ele>
        <time>2023-11-14T13:10:49Z</time>
      </trkpt>
      <trkpt lat="47.16035" lon="-1.47572">
        <ele>6</ele>
        <time>2023-11-14T13:11:14Z</time>
      </trkpt>
      <trkpt lat="47.16051" lon="-1.47595">
        <ele>5</ele>
        <time>2023-11-14T13:11:43Z</time>
      </trkpt>
      <trkpt lat="47.16084" lon="-1.47671">
        <ele>5</ele>
        <time>2023-11-14T13:13:05Z</time>
      </trkpt>
      <trkpt lat="47.1611" lon="-1.47719">
        <ele>5</ele>
        <time>2023-11-14T13:14:01Z</time>
      </trkpt>
      <trkpt lat="47.1614" lon="-1.47797">
        <ele>5</ele>
        <time>2023-11-14T13:15:22Z</time>
      </trkpt>
      <trkpt lat="47.16155" lon="-1.47816">
        <ele>5</ele>
        <time>2023-11-14T13:15:49Z</time>
      </trkpt>
      <trkpt lat="47.16159" lon="-1.47848">
        <ele>5</ele>
        <time>2023-11-14T13:16:18Z</time>
      </trkpt>
      <trkpt lat="47.16158" lon="-1.47881">
        <ele>5</ele>
        <time>2023-11-14T13:16:48Z</time>
      </trkpt>
      <trkpt lat="47.16176" lon="-1.4793">
        <ele>5</ele>
        <time>2023-11-14T13:17:39Z</time>
      </trkpt>
      <trkpt lat="47.16192" lon="-1.47949">
        <ele>5</ele>
        <time>2023-11-14T13:18:06Z</time>
      </trkpt>
      <trkpt lat="47.16205" lon="-1.4797">
        <ele>5</ele>
        <time>2023-11-14T13:18:32Z</time>
      </trkpt>
      <trkpt lat="47.16205" lon="-1.48002">
        <ele>6</ele>
        <time>2023-11-14T13:19:01Z</time>
      </trkpt>
      <trkpt lat="47.16211" lon="-1.4803">
        <ele>7</ele>
        <time>2023-11-14T13:19:28Z</time>
      </trkpt>
      <trkpt lat="47.16241" lon="-1.48067">
        <ele>8</ele>
        <time>2023-11-14T13:20:20Z</time>
      </trkpt>
      <trkpt lat="47.16256" lon="-1.48092">
        <ele>8</ele>
        <time>2023-11-14T13:20:50Z</time>
      </trkpt>
      <trkpt lat="47.1627" lon="-1.48109">
        <ele>9</ele>
        <time>2023-11-14T13:21:14Z</time>
      </trkpt>
      <trkpt lat="47.16289" lon="-1.48125">
        <ele>9</ele>
        <time>2023-11-14T13:21:44Z</time>
      </trkpt>
      <trkpt lat="47.16318" lon="-1.48169">
        <ele>9</ele>
        <time>2023-11-14T13:22:39Z</time>
      </trkpt>
      <trkpt lat="47.16333" lon="-1.48183">
        <ele>9</ele>
        <time>2023-11-14T13:23:03Z</time>
      </trkpt>
      <trkpt lat="47.16388" lon="-1.48194">
        <ele>6</ele>
        <time>2023-11-14T13:24:17Z</time>
      </trkpt>
      <trkpt lat="47.16411" lon="-1.48193">
        <ele>5</ele>
        <time>2023-11-14T13:24:48Z</time>
      </trkpt>
      <trkpt lat="47.16434" lon="-1.48197">
        <ele>5</ele>
        <time>2023-11-14T13:25:19Z</time>
      </trkpt>
      <trkpt lat="47.16455" lon="-1.48196">
        <ele>5</ele>
        <time>2023-11-14T13:25:47Z</time>
      </trkpt>
      <trkpt lat="47.16473" lon="-1.48186">
        <ele>5</ele>
        <time>2023-11-14T13:26:12Z</time>
      </trkpt>
      <trkpt lat="47.16486" lon="-1.48166">
        <ele>4</ele>
        <time>2023-11-14T13:26:37Z</time>
      </trkpt>
      <trkpt lat="47.16504" lon="-1.48171">
        <ele>4</ele>
        <time>2023-11-14T13:27:02Z</time>
      </trkpt>
      <trkpt lat="47.1653" lon="-1.48129">
        <ele>5</ele>
        <time>2023-11-14T13:27:53Z</time>
      </trkpt>
      <trkpt lat="47.1654" lon="-1.48071">
        <ele>5</ele>
        <time>2023-11-14T13:28:48Z</time>
      </trkpt>
      <trkpt lat="47.16557" lon="-1.4802">
        <ele>5</ele>
        <time>2023-11-14T13:29:39Z</time>
      </trkpt>
      <trkpt lat="47.16552" lon="-1.47994">
        <ele>5</ele>
        <time>2023-11-14T13:30:04Z</time>
      </trkpt>
      <trkpt lat="47.16559" lon="-1.47967">
        <ele>6</ele>
        <time>2023-11-14T13:30:30Z</time>
      </trkpt>
      <trkpt lat="47.16576" lon="-1.47955">
        <ele>6</ele>
        <time>2023-11-14T13:30:55Z</time>
      </trkpt>
    </trkseg>
  </trk>
</gpx>